[[{"header":{"parameterUnit":"m.s-1","parameterCategory":1,"la1":30.6,"la2":29.2853,"lo1":-89.7004,"lo2":-87.6739,"dx":0.0162,"dy":0.0183,"nx":112,"ny":82,"refTime":"2023-02-06T06:00:00:Z","depth":0,"parameterNumber":2,"parameterNumberName":"U-component_of_WINDS"},"data":[0.0,0.0,0.0,0.0,0.0,0.0,0.0,0.0,0.0,0.0,0.0,0.0,0.0,0.0,0.0,0.0,0.0,0.0,0.0,0.0,0.0,0.0,0.0,0.0,0.0,0.0,0.0,0.0,0.0,0.0,0.0,0.0,0.0,0.0,0.0,0.0,0.0,0.0,0.0,0.0,0.0,0.0,0.0,0.0,0.0,0.0,0.0,0.0,0.0,0.0,0.0,0.0,0.0,0.0,0.0,0.0,0.0,0.0,0.0,0.0,0.0,0.0,0.0,0.0,0.0,0.0,0.0,0.0,0.0,0.0,0.0,0.0,0.0,0.0,0.0,0.0,0.0,0.0,0.0,0.0,0.0,0.0,0.0,0.0,0.0,0.0,0.0,0.0,0.0,0.0,2.0346,1.9715,1.6637,1.4483,1.409,1.4102,1.4082,1.4082,0.0,0.0,0.0,0.0,0.0,0.0,0.0,0.0,0.0,0.0,0.0,0.0,0.0,0.0,0.0,0.0,0.0,0.0,0.0,0.0,0.0,0.0,0.0,0.0,0.0,0.0,0.0,0.0,0.0,0.0,0.0,0.0,0.0,0.0,0.0,0.0,0.0,0.0,0.0,0.0,0.0,0.0,0.0,0.0,0.0,0.0,0.0,0.0,0.0,0.0,0.0,0.0,0.0,0.0,0.0,0.0,0.0,0.0,0.0,0.0,0.0,0.0,0.0,0.0,0.0,0.0,0.0,0.0,0.0,0.0,0.0,0.0,0.0,0.0,0.0,0.0,0.0,0.0,0.0,0.0,0.0,0.0,0.0,0.0,0.0,0.0,0.0,0.0,0.0,0.0,0.0,0.0,0.0,0.0,0.0,0.0,0.0,0.0,0.0,0.0,0.0,0.0,0.0,0.0,1.9182,1.5499,1.6152,1.6047,1.4266,1.4055,1.4082,1.4082,0.0,0.0,0.0,0.0,0.0,0.0,0.0,0.0,0.0,0.0,0.0,0.0,0.0,0.0,0.0,0.0,0.0,0.0,0.0,0.0,0.0,0.0,0.0,0.0,0.0,0.0,0.0,0.0,0.0,0.0,0.0,0.0,0.0,0.0,0.0,0.0,0.0,0.0,0.0,0.0,0.0,0.0,0.0,0.0,0.0,0.0,0.0,0.0,0.0,0.0,0.0,0.0,0.0,0.0,0.0,0.0,0.0,0.0,0.0,0.0,0.0,0.0,0.0,0.0,0.0,0.0,0.0,0.0,0.0,0.0,0.0,0.0,0.0,0.0,0.0,0.0,0.0,0.0,0.0,0.0,0.0,0.0,0.0,0.0,0.0,0.0,0.0,0.0,0.0,0.0,0.0,0.0,0.0,0.0,0.0,0.0,0.0,0.0,0.0,0.0,0.0,0.0,0.0,2.0566,1.9381,1.6141,1.5625,1.5145,1.4185,1.4112,1.4082,1.4082,1.4058,0.0,0.0,0.0,0.0,0.0,0.0,0.0,0.0,0.0,0.0,0.0,0.0,0.0,0.0,0.0,0.0,0.0,0.0,0.0,0.0,0.0,0.0,0.0,0.0,0.0,0.0,0.0,0.0,0.0,0.0,0.0,0.0,0.0,0.0,0.0,0.0,0.0,0.0,0.0,0.0,0.0,0.0,0.0,0.0,0.0,0.0,0.0,0.0,0.0,0.0,0.0,0.0,0.0,0.0,0.0,0.0,0.0,0.0,0.0,0.0,0.0,0.0,0.0,0.0,0.0,0.0,0.0,0.0,0.0,0.0,0.0,0.0,0.0,0.0,0.0,0.0,0.0,0.0,0.0,0.0,0.0,0.0,0.0,0.0,0.0,0.0,0.0,0.0,0.0,0.0,0.0,0.0,0.0,0.0,0.0,0.0,0.0,0.0,0.0,0.0,0.0,0.0,2.0977,2.021,1.7974,1.6137,1.49,1.4531,1.4253,1.4082,1.4082,1.4082,0.0,0.0,0.0,0.0,0.0,0.0,0.0,0.0,0.0,0.0,0.0,0.0,0.0,0.0,0.0,0.0,0.0,0.0,0.0,0.0,0.0,0.0,0.0,0.0,0.0,0.0,0.0,0.0,0.0,0.0,0.0,0.0,0.0,0.0,0.0,0.0,0.0,0.0,0.0,0.0,0.0,0.0,0.0,0.0,0.0,0.0,0.0,0.0,0.0,0.0,0.0,0.0,0.0,0.0,0.0,0.0,0.0,0.0,0.0,0.0,0.0,0.0,0.0,0.0,0.0,0.0,0.0,0.0,0.0,0.0,0.0,0.0,0.0,0.0,0.0,0.0,0.0,0.0,0.0,0.0,0.0,0.0,0.0,0.0,0.0,0.0,0.0,0.0,0.0,0.0,0.0,0.0,0.0,0.0,0.0,0.0,0.0,0.0,0.0,0.0,0.0,0.0,2.202,2.1414,1.938,1.8277,1.7183,1.5711,1.4643,1.4082,1.4082,1.4082,0.0,0.0,0.0,0.0,0.0,0.0,0.0,0.0,0.0,0.0,0.0,0.0,0.0,0.0,0.0,0.0,0.0,0.0,0.0,0.0,0.0,0.0,0.0,0.0,0.0,0.0,0.0,0.0,0.0,0.0,0.0,0.0,0.0,0.0,0.0,0.0,0.0,0.0,0.0,0.0,0.0,0.0,0.0,0.0,0.0,0.0,0.0,0.0,0.0,0.0,0.0,0.0,0.0,0.0,0.0,0.0,0.0,0.0,0.0,0.0,0.0,0.0,0.0,0.0,0.0,0.0,0.0,0.0,0.0,0.0,0.0,0.0,0.0,0.0,0.0,0.0,0.0,0.0,0.0,0.0,0.0,0.0,0.0,0.0,0.0,0.0,0.0,0.0,0.0,0.0,0.0,0.0,0.0,0.0,0.0,0.0,0.0,0.0,0.0,0.0,0.0,0.0,2.2099,2.1237,1.8972,1.8464,1.7477,1.5402,1.4715,1.4362,1.4362,0.0,0.0,0.0,0.0,0.0,0.0,0.0,0.0,0.0,0.0,0.0,0.0,0.0,0.0,0.0,0.0,0.0,0.0,0.0,0.0,0.0,0.0,0.0,0.0,0.0,0.0,0.0,0.0,0.0,0.0,0.0,0.0,0.0,0.0,0.0,0.0,0.0,0.0,0.0,0.0,0.0,0.0,0.0,0.0,0.0,0.0,0.0,0.0,0.0,0.0,0.0,0.0,0.0,0.0,0.0,0.0,0.0,0.0,0.0,0.0,0.0,0.0,0.0,0.0,0.0,0.0,0.0,0.0,0.0,0.0,0.0,0.0,0.0,0.0,0.0,0.0,0.0,0.0,0.0,0.0,0.0,0.0,0.0,0.0,0.0,0.0,0.0,0.0,0.0,0.0,0.0,0.0,0.0,0.0,0.0,0.0,0.0,0.0,0.0,0.0,0.0,0.0,2.2493,2.2389,2.1617,1.9901,1.9022,1.793,1.6183,1.5205,1.4616,1.4522,0.0,0.0,0.0,0.0,0.0,0.0,0.0,0.0,0.0,0.0,0.0,0.0,0.0,0.0,0.0,0.0,0.0,0.0,0.0,0.0,0.0,0.0,0.0,0.0,0.0,0.0,0.0,0.0,0.0,0.0,0.0,0.0,0.0,0.0,0.0,0.0,0.0,0.0,0.0,0.0,0.0,0.0,0.0,0.0,0.0,0.0,0.0,0.0,0.0,0.0,0.0,0.0,0.0,0.0,0.0,0.0,0.0,0.0,0.0,0.0,0.0,0.0,0.0,0.0,0.0,0.0,0.0,0.0,0.0,0.0,0.0,0.0,0.0,0.0,0.0,0.0,0.0,0.0,0.0,0.0,0.0,0.0,0.0,0.0,0.0,0.0,0.0,0.0,0.0,0.0,0.0,0.0,0.0,0.0,0.0,0.0,0.0,0.0,0.0,0.0,0.0,0.0,2.3086,2.3144,2.2988,2.2473,2.0481,1.8908,1.837,1.6271,1.4843,0.0,0.0,0.0,0.0,0.0,0.0,0.0,0.0,0.0,0.0,0.0,0.0,0.0,0.0,0.0,0.0,0.0,0.0,0.0,0.0,0.0,0.0,0.0,0.0,0.0,0.0,0.0,0.0,0.0,0.0,0.0,0.0,0.0,0.0,0.0,0.0,0.0,0.0,0.0,0.0,0.0,0.0,0.0,0.0,0.0,0.0,0.0,0.0,0.0,0.0,0.0,0.0,0.0,0.0,0.0,0.0,0.0,0.0,0.0,0.0,0.0,0.0,0.0,0.0,0.0,0.0,0.0,0.0,0.0,0.0,0.0,0.0,0.0,0.0,0.0,0.0,0.0,0.0,0.0,0.0,0.0,0.0,0.0,0.0,0.0,0.0,0.0,0.0,0.0,0.0,0.0,0.0,0.0,0.0,0.0,0.0,0.0,0.0,0.0,0.0,0.0,0.0,0.0,2.3125,2.3144,2.2366,2.0606,1.9782,1.8664,1.6757,1.5746,1.5231,1.515,0.0,0.0,0.0,0.0,0.0,0.0,0.0,0.0,0.0,0.0,0.0,0.0,0.0,0.0,0.0,0.0,0.0,0.0,0.0,0.0,0.0,0.0,0.0,0.0,0.0,0.0,0.0,0.0,0.0,0.0,0.0,0.0,0.0,0.0,0.0,0.0,0.0,0.0,0.0,0.0,0.0,0.0,0.0,0.0,0.0,0.0,0.0,0.0,0.0,0.0,0.0,0.0,0.0,0.0,0.0,0.0,0.0,0.0,0.0,0.0,0.0,0.0,0.0,0.0,0.0,0.0,0.0,0.0,0.0,0.0,0.0,0.0,0.0,0.0,0.0,0.0,0.0,0.0,0.0,0.0,0.0,0.0,0.0,0.0,0.0,0.0,0.0,0.0,0.0,0.0,0.0,0.0,0.0,0.0,0.0,0.0,0.0,0.0,0.0,0.0,0.0,0.0,2.3144,2.3144,2.2492,2.1123,2.0494,1.9389,1.7483,1.6672,1.6068,1.5404,0.0,0.0,0.0,0.0,0.0,0.0,0.0,0.0,0.0,0.0,0.0,0.0,0.0,0.0,0.0,0.0,0.0,0.0,0.0,0.0,0.0,0.0,0.0,0.0,0.0,0.0,0.0,0.0,0.0,0.0,0.0,0.0,0.0,0.0,0.0,0.0,0.0,0.0,0.0,0.0,0.0,0.0,0.0,0.0,0.0,0.0,0.0,0.0,0.0,0.0,0.0,0.0,0.0,0.0,0.0,0.0,0.0,0.0,0.0,0.0,0.0,0.0,0.0,0.0,0.0,0.0,0.0,0.0,0.0,0.0,0.0,0.0,0.0,0.0,0.0,0.0,0.0,0.0,0.0,0.0,0.0,0.0,0.0,0.0,0.0,0.0,0.0,0.0,0.0,0.0,0.0,0.0,0.0,0.0,0.0,0.0,0.0,0.0,0.0,0.0,0.0,0.0,2.3144,2.295,2.2862,2.2775,2.1676,2.0477,1.9222,1.8133,1.6915,1.555,0.0,0.0,0.0,0.0,0.0,0.0,0.0,0.0,0.0,0.0,0.0,0.0,0.0,0.0,0.0,0.0,0.0,0.0,0.0,0.0,0.0,0.0,0.0,0.0,0.0,0.0,0.0,0.0,0.0,0.0,0.0,0.0,0.0,0.0,0.0,0.0,0.0,0.0,0.0,0.0,0.0,0.0,0.0,0.0,0.0,0.0,0.0,0.0,0.0,0.0,0.0,0.0,0.0,0.0,0.0,0.0,0.0,0.0,0.0,0.0,2.3144,2.3144,0.0,0.0,0.0,0.0,0.0,0.0,0.0,0.0,0.0,0.0,0.0,0.0,0.0,0.0,0.0,0.0,0.0,0.0,0.0,0.0,0.0,0.0,0.0,0.0,0.0,0.0,0.0,0.0,0.0,0.0,0.0,0.0,0.0,0.0,0.0,0.0,0.0,0.0,0.0,0.0,2.3144,2.2315,2.1302,2.0404,1.9222,1.7948,1.6655,1.6386,1.6075,1.5738,1.5738,0.0,0.0,0.0,0.0,0.0,0.0,0.0,0.0,0.0,0.0,0.0,0.0,0.0,0.0,0.0,0.0,0.0,0.0,0.0,0.0,0.0,0.0,0.0,0.0,0.0,0.0,0.0,0.0,0.0,0.0,0.0,0.0,0.0,0.0,0.0,0.0,0.0,0.0,0.0,0.0,0.0,0.0,0.0,0.0,0.0,0.0,0.0,0.0,0.0,0.0,0.0,0.0,0.0,0.0,0.0,0.0,0.0,0.0,0.0,2.3144,2.3144,0.0,0.0,0.0,0.0,0.0,0.0,0.0,0.0,0.0,0.0,0.0,0.0,0.0,0.0,0.0,0.0,0.0,0.0,0.0,0.0,0.0,0.0,0.0,0.0,0.0,0.0,0.0,0.0,0.0,0.0,0.0,0.0,0.0,0.0,0.0,0.0,0.0,0.0,0.0,0.0,2.3144,2.258,2.1943,2.132,2.0133,1.9131,1.8472,1.739,1.6669,1.6669,1.6103,0.0,0.0,0.0,0.0,0.0,0.0,0.0,0.0,0.0,0.0,0.0,0.0,0.0,0.0,0.0,0.0,0.0,0.0,0.0,0.0,0.0,0.0,0.0,0.0,0.0,0.0,0.0,0.0,0.0,0.0,0.0,0.0,0.0,0.0,0.0,0.0,0.0,0.0,0.0,0.0,0.0,0.0,0.0,0.0,0.0,0.0,0.0,0.0,0.0,0.0,0.0,0.0,0.0,2.3223,2.3242,2.3262,2.332,2.3359,2.3359,2.3359,2.3281,2.3144,2.3144,0.0,0.0,0.0,0.0,0.0,0.0,0.0,0.0,0.0,0.0,0.0,0.0,0.0,0.0,0.0,0.0,0.0,0.0,0.0,0.0,0.0,0.0,2.3144,2.3144,2.3144,2.3144,2.3144,0.0,0.0,0.0,0.0,0.0,0.0,0.0,0.0,0.0,0.0,0.0,2.3144,2.295,2.2687,2.2492,2.1391,2.0567,2.0387,1.8488,1.7404,1.7404,1.6386,1.5832,0.0,0.0,0.0,0.0,0.0,0.0,0.0,0.0,0.0,0.0,0.0,0.0,0.0,0.0,0.0,0.0,0.0,0.0,0.0,0.0,0.0,0.0,0.0,0.0,0.0,0.0,0.0,0.0,0.0,0.0,0.0,0.0,2.3714,2.4702,0.0,0.0,0.0,0.0,0.0,0.0,0.0,0.0,0.0,0.0,0.0,0.0,0.0,2.4787,2.4787,2.4617,2.4039,2.3144,2.3516,2.3711,2.3711,2.4082,2.4258,2.4258,2.4258,0.0,2.3144,2.3144,0.0,0.0,0.0,0.0,0.0,0.0,0.0,0.0,0.0,0.0,0.0,0.0,0.0,0.0,0.0,0.0,0.0,0.0,0.0,0.0,0.0,0.0,2.3144,2.3144,2.3144,2.3144,2.3144,2.3144,2.3144,2.3144,2.3144,2.3144,0.0,0.0,0.0,0.0,0.0,0.0,2.3144,2.2208,2.1123,2.0133,1.8872,1.7762,1.6655,1.6197,1.6008,1.6008,1.5927,1.5832,1.5832,1.5832,0.0,0.0,0.0,0.0,0.0,0.0,0.0,0.0,0.0,0.0,0.0,0.0,0.0,0.0,0.0,0.0,0.0,0.0,0.0,0.0,0.0,0.0,0.0,0.0,0.0,0.0,0.0,0.0,0.0,2.38,2.3541,2.4617,2.4211,2.4059,0.0,0.0,0.0,0.0,0.0,0.0,0.0,0.0,0.0,2.3887,2.4716,2.4861,2.427,2.4492,2.4277,2.3867,2.4043,2.4141,2.4141,2.4336,2.4414,2.4414,2.4414,2.4199,2.3867,2.3867,2.3867,2.3867,0.0,0.0,0.0,0.0,2.3867,2.3867,2.3867,2.3867,2.3867,2.3867,0.0,0.0,0.0,0.0,0.0,0.0,0.0,2.3144,0.0,0.0,2.3144,2.3144,2.3144,2.3144,2.3144,2.3144,2.3144,2.3144,2.3144,2.3144,2.3144,2.3144,0.0,0.0,0.0,2.3144,2.3144,2.2687,2.1854,2.0657,1.9405,1.8503,1.7933,1.656,1.6103,1.6857,1.6197,1.5832,1.5832,1.5832,1.5832,0.0,0.0,0.0,0.0,0.0,0.0,0.0,0.0,0.0,0.0,0.0,0.0,0.0,0.0,0.0,0.0,0.0,0.0,0.0,0.0,0.0,0.0,0.0,0.0,0.0,0.0,0.0,0.0,2.3627,2.3387,2.4296,2.3887,2.3541,0.0,0.0,0.0,0.0,0.0,0.0,2.4955,2.5487,2.5039,2.3457,2.4553,2.4735,2.3945,2.4258,2.4414,2.4414,2.4531,2.459,2.459,2.4707,2.4746,2.4746,2.4746,2.4746,2.4746,2.4512,2.4414,2.4414,2.4414,2.4414,2.4414,2.4414,2.4414,2.4414,2.4414,2.4414,2.4414,2.4414,2.4414,2.4355,2.4043,0.0,0.0,0.0,0.0,2.3437,2.334,2.3301,2.3281,2.3164,2.3144,2.3144,2.3144,2.3144,2.3144,2.3144,2.3144,2.3144,2.3144,2.3144,0.0,2.3144,2.3144,2.3144,2.3144,2.3144,2.2687,2.1391,2.0206,1.9405,1.9039,1.703,1.6197,1.7124,1.6292,1.5832,1.5832,1.5832,1.5832,1.5832,0.0,0.0,0.0,0.0,0.0,0.0,0.0,0.0,0.0,0.0,0.0,0.0,0.0,0.0,0.0,0.0,0.0,0.0,0.0,0.0,0.0,0.0,0.0,0.0,0.0,0.0,0.0,0.0,0.0,2.3212,2.4125,0.0,0.0,0.0,0.0,2.6318,2.4382,2.3827,2.5263,2.4444,2.4036,2.4336,2.4375,2.4375,2.4375,2.4414,2.4414,2.4414,2.4844,2.5039,2.5059,2.5469,2.5664,2.5664,2.5664,2.5664,2.5605,2.4766,2.4414,2.4414,2.4414,2.4414,2.4414,2.4414,2.4414,2.4414,2.4414,2.4414,2.4414,2.4414,2.4414,2.4414,2.4394,2.4375,0.0,0.0,2.4355,2.4258,2.3867,2.375,2.3652,2.3242,2.3144,2.3144,2.3144,2.3144,2.3144,2.3144,2.3144,2.3144,2.3144,0.0,2.3144,2.3144,2.3144,2.3144,2.3144,2.3144,2.2687,2.1391,2.0206,1.9039,1.787,1.6574,1.5832,1.5927,1.5832,1.5832,1.5832,1.5832,1.5832,1.5832,1.5832,0.0,0.0,0.0,0.0,0.0,0.0,0.0,0.0,0.0,0.0,0.0,0.0,0.0,0.0,0.0,0.0,0.0,0.0,0.0,0.0,0.0,0.0,0.0,0.0,0.0,0.0,0.0,0.0,2.3144,2.3474,0.0,2.3714,2.3974,2.4311,2.4748,2.4237,2.4205,2.4706,2.4362,2.4258,2.4414,2.4687,2.4844,2.4844,2.5117,2.5273,2.5273,2.543,2.5508,2.5508,2.5664,2.5742,2.5742,2.5742,2.5742,2.5723,2.5391,2.5273,2.5273,2.5273,2.5273,2.5273,2.5273,2.5273,2.5273,2.5273,2.5273,2.5273,2.5273,2.5078,2.4844,2.4844,2.4648,2.4414,2.4414,2.4414,2.4375,2.4238,2.4199,2.416,2.4004,2.3965,2.3965,2.3965,2.375,2.3555,2.3555,2.332,2.3144,2.3144,2.3144,2.3144,2.3144,2.3144,2.3144,2.3144,2.3144,2.2687,2.1391,2.0926,2.0133,1.8948,1.8395,1.7855,1.703,1.7044,1.6669,1.5832,1.5832,1.5832,1.5832,1.5832,1.5832,0.0,0.0,0.0,0.0,0.0,0.0,0.0,0.0,0.0,0.0,0.0,0.0,0.0,0.0,0.0,0.0,0.0,0.0,0.0,0.0,0.0,0.0,0.0,0.0,0.0,2.3144,2.3184,2.334,2.3359,2.3418,2.3555,2.3828,2.4004,2.4004,2.4258,2.4473,2.4629,2.4629,2.4707,2.4863,2.5137,2.5293,2.5293,2.5586,2.5742,2.5742,2.5742,2.5742,2.5742,2.5742,2.582,2.5957,2.5957,2.6035,2.6172,2.6172,2.6172,2.6133,2.584,2.5742,2.5742,2.5742,2.5742,2.5742,2.5742,2.5742,2.5742,2.5742,2.5527,2.5293,2.5293,2.5098,2.4863,2.4863,2.4863,2.4824,2.4668,2.4629,2.4609,2.4453,2.4414,2.4414,2.4414,2.4199,2.4004,2.4004,2.3535,2.3144,2.3144,2.3144,2.3144,2.3144,2.3144,2.3144,2.3144,2.3144,2.2775,2.2031,2.1212,2.0567,2.0116,1.8948,1.8133,1.7684,1.7311,1.6669,1.5832,1.5832,1.5832,1.5832,1.5832,1.5832,1.5832,0.0,0.0,0.0,0.0,0.0,0.0,0.0,0.0,0.0,0.0,0.0,0.0,0.0,0.0,0.0,0.0,0.0,0.0,0.0,0.0,0.0,0.0,0.0,2.3223,2.3164,2.334,2.375,2.3809,2.3965,2.4375,2.4434,2.4434,2.4434,2.4453,2.4648,2.5059,2.5098,2.5293,2.5723,2.5742,2.5742,2.5742,2.5742,2.5742,2.5762,2.5762,2.5762,2.5781,2.5781,2.6016,2.6406,2.6406,2.6641,2.7012,2.7012,2.7012,2.6934,2.6094,2.5781,2.5781,2.5781,2.5781,2.5781,2.5781,2.5781,2.5781,2.5762,2.5762,2.5762,2.5742,2.5742,2.5742,2.5742,2.5742,2.5644,2.5195,2.5098,2.498,2.4551,2.4453,2.4453,2.4453,2.4453,2.4434,2.4434,2.375,2.3184,2.3184,2.3164,2.3164,2.3164,2.3144,0.0,2.3144,2.3144,2.3144,2.3144,2.0944,2.0025,2.1212,1.8025,1.648,1.7684,1.6574,1.5927,1.5832,1.5832,1.5832,1.5832,1.5832,1.5832,1.5832,0.0,0.0,0.0,0.0,0.0,0.0,0.0,0.0,0.0,0.0,0.0,0.0,0.0,0.0,0.0,0.0,0.0,0.0,0.0,0.0,0.0,2.416,2.4102,2.3672,2.3867,2.4102,2.4238,2.4238,2.4297,2.4414,2.4707,2.4883,2.4883,2.5195,2.543,2.5547,2.5547,2.5605,2.5742,2.5742,2.5742,2.5742,2.5742,2.5898,2.6211,2.6211,2.6367,2.666,2.666,2.6738,2.6836,2.6836,2.6914,2.7012,2.7012,2.7012,2.6992,2.6758,2.666,2.666,2.666,2.666,2.666,2.666,2.666,2.6621,2.6309,2.6211,2.6152,2.584,2.5742,2.5742,2.5742,2.5742,2.5703,2.5586,2.5547,2.5527,2.541,2.5371,2.5371,2.5371,2.5117,2.4883,2.4883,2.4453,2.4062,2.4062,2.3809,2.3613,2.3613,2.334,2.3144,2.3144,2.3144,2.3144,2.3144,2.1765,2.1302,2.2492,2.0836,1.9571,1.9039,1.8672,1.7669,1.5832,1.5832,1.5832,1.5832,1.5832,1.5832,0.0,0.0,0.0,0.0,0.0,0.0,0.0,0.0,0.0,0.0,0.0,0.0,0.0,0.0,0.0,0.0,0.0,0.0,0.0,0.0,0.0,0.0,2.457,2.4609,2.4355,2.4375,2.4473,2.4668,2.4687,2.4766,2.4961,2.5195,2.5352,2.5352,2.5586,2.5742,2.5742,2.5742,2.5742,2.5742,2.5742,2.582,2.6016,2.6016,2.623,2.6641,2.6641,2.6777,2.7012,2.7012,2.7109,2.7285,2.7285,2.7383,2.7539,2.7539,2.7539,0.0,0.0,0.0,0.0,0.0,2.7012,2.7012,2.7012,2.7012,2.6973,2.6738,2.6641,2.6602,2.6348,2.6152,2.6016,2.6016,2.5879,2.5742,2.5742,2.5742,2.5742,2.5742,2.5742,2.5742,2.5742,2.5527,2.5352,2.5352,2.5137,0.0,2.4961,2.4453,2.4043,2.4043,2.3848,2.3672,2.3672,2.3516,2.3418,2.3418,2.2124,2.1569,2.2315,2.0764,0.0,0.0,0.0,1.7296,1.5832,1.5832,0.0,0.0,0.0,1.5832,1.5832,1.5832,0.0,0.0,1.5752,1.5738,0.0,0.0,0.0,0.0,0.0,0.0,0.0,0.0,0.0,0.0,0.0,0.0,0.0,0.0,0.0,0.0,2.4883,2.5137,2.5137,2.4805,2.4707,2.5098,2.5137,2.5293,2.5703,2.5742,2.5742,2.5742,2.5742,2.5742,2.5742,2.5781,0.0,0.0,0.0,2.6074,2.6465,2.6465,2.666,2.709,2.709,2.7109,2.7168,2.7168,2.7363,2.7734,2.7734,2.7949,2.8301,2.8301,2.8301,2.8223,2.7461,2.7168,2.7168,2.7168,2.7168,2.7168,2.7168,0.0,0.0,2.7109,2.709,2.709,2.7031,2.6758,2.6465,2.6465,2.6152,2.5801,2.5801,2.5781,2.5742,2.5742,2.5742,2.5742,2.5742,2.5742,2.5742,2.5742,2.5742,2.5742,2.5742,2.5039,2.4492,2.4492,2.4453,2.4414,2.4414,2.4102,2.3867,2.3867,2.2385,0.0,2.1553,1.9471,1.8087,1.787,1.6574,1.5832,1.5832,1.5832,1.5832,1.5832,1.5832,1.5832,1.5832,1.5832,1.5832,1.5832,1.5832,1.5832,0.0,0.0,0.0,0.0,0.0,0.0,0.0,0.0,0.0,0.0,0.0,0.0,0.0,0.0,0.0,2.543,2.5547,2.5605,2.5605,2.5547,2.5508,2.5605,2.5605,2.5644,2.5723,2.5742,2.5742,2.5742,2.5742,2.5742,2.5742,2.6074,2.6269,2.6269,2.6582,2.6797,2.6894,2.6894,2.7109,2.7539,0.0,0.0,2.8047,2.8047,2.8086,2.8164,2.8164,2.8223,2.8301,2.8301,2.8301,2.8281,2.8105,2.8047,2.8047,2.8047,2.8047,2.8047,2.8047,2.8047,2.7988,2.7656,2.7539,2.748,2.7129,2.6953,0.0,2.6894,2.6582,2.6269,2.6269,2.5996,2.5742,2.5742,2.5742,2.5742,2.5742,2.5742,2.5742,2.5742,2.5742,2.5742,2.5742,2.5293,2.4941,2.4941,2.4648,2.4414,2.4414,2.4355,2.4297,2.4297,2.3075,2.2612,2.3223,2.1989,2.0566,1.9239,1.7016,1.5832,1.5832,1.5832,1.5832,1.5832,1.5832,1.5832,1.5832,1.5832,1.5832,1.5832,1.5832,1.5832,0.0,0.0,0.0,0.0,0.0,0.0,0.0,0.0,0.0,0.0,0.0,2.5137,2.5371,0.0,2.5469,2.5703,2.5742,2.5742,2.5742,2.5742,2.5742,2.5742,2.5742,2.5742,2.5742,2.5742,2.5742,2.5742,2.5937,2.6055,2.6055,2.6465,2.6699,2.6699,2.6914,2.7129,2.7344,2.7344,2.7559,2.7988,2.7988,2.8086,2.8301,2.8301,2.8301,2.8301,2.8301,2.8301,2.8301,2.8301,2.8301,2.8301,2.8301,2.8301,2.8301,2.8301,2.8301,2.8301,2.8301,2.8301,2.8262,2.8047,2.7988,2.793,2.7715,2.75,2.7344,2.7344,2.7031,2.6699,2.6699,2.6387,2.6055,2.6055,2.5898,2.5742,2.5742,2.5742,2.5742,2.5742,2.5742,2.5742,2.5742,2.5547,2.541,2.541,2.5215,2.5078,2.5078,2.4883,2.4746,2.4746,2.3973,2.3392,2.3185,2.1281,1.9507,1.8018,1.6564,1.5832,1.5832,1.5832,1.5832,1.5832,1.5832,1.5832,1.5832,1.5832,1.5832,1.5832,1.5832,1.5832,0.0,0.0,0.0,0.0,0.0,0.0,0.0,2.4941,2.5195,2.5195,2.5488,2.5742,2.5742,2.5742,2.5742,2.5742,2.5742,2.5742,2.5742,2.5742,2.5762,2.5859,2.5801,2.5742,2.5742,2.582,2.5859,2.5859,2.6269,2.6504,2.6504,2.6914,2.7148,2.7148,2.7226,2.7422,2.7793,2.7793,2.7949,2.8301,2.8301,2.8301,2.8301,2.8301,2.8301,2.8301,2.8301,2.8301,2.8301,2.8301,2.8301,2.8301,2.8301,2.8301,2.8301,2.8301,2.8301,2.8301,2.8301,2.8301,2.8301,2.8301,2.8301,2.8301,2.8301,2.8066,2.7793,2.7793,2.748,2.7148,2.7148,2.6836,2.6504,2.6504,2.6172,2.5859,2.5859,2.5801,2.5742,2.5742,2.5742,2.5742,2.5742,2.5742,2.5742,2.5742,2.5742,2.5742,2.5742,2.543,2.5195,2.5195,2.4883,2.4162,2.2826,2.026,1.8171,1.6842,1.6169,1.5912,1.5912,1.5858,1.5832,1.5832,1.5832,1.5832,1.5832,1.5832,1.5832,1.5832,1.5832,1.5832,2.4531,2.4414,2.4512,2.4902,2.5,2.5098,0.0,2.5625,2.5664,2.5664,2.5703,2.5742,2.5742,2.5742,2.5742,2.5742,2.5742,2.5742,2.5742,2.5742,2.5879,2.6269,2.5977,2.5742,2.5742,2.6094,2.6309,2.6309,2.6699,2.6953,2.6953,2.7363,2.7598,2.7598,2.7949,2.8164,2.8223,2.8223,2.8242,2.8301,2.8301,2.8301,2.8301,2.8301,2.8301,2.8301,2.8301,2.8301,2.8301,2.8301,2.8301,2.8301,2.8301,2.8301,2.8301,2.8301,2.8301,2.8301,2.8301,2.8301,2.8301,2.8301,2.8301,2.8301,2.8301,2.8262,2.8223,2.8223,2.793,2.7598,2.7598,2.7266,2.6953,2.6953,2.6621,2.6309,2.6309,2.6016,2.5742,2.5742,2.5742,2.5742,2.5742,2.5742,2.5742,2.5742,2.5742,2.5742,2.5742,2.5684,2.5664,2.5664,2.5625,2.4832,2.3051,2.1394,1.9749,1.8302,1.6953,1.6219,1.6219,1.5965,1.5832,1.5832,1.5832,1.5832,1.5832,1.5832,1.5832,1.5832,1.5832,1.5832,2.5234,2.5195,2.5234,2.541,2.5449,2.5508,2.5684,2.5742,2.5742,2.5742,2.5742,2.5742,2.5742,2.5742,2.5742,2.5742,2.5742,2.582,2.6074,2.6113,2.6269,2.6699,2.6602,2.6484,2.6484,2.6641,2.6758,2.6758,2.7148,2.7402,2.7402,2.7793,2.8027,2.8027,2.8203,2.8301,2.8301,2.8301,2.8301,2.8301,2.8301,2.8301,2.8301,2.8301,2.8301,2.8301,2.8301,2.8301,2.8301,2.8301,2.8301,2.8301,2.8301,2.8301,2.8301,2.8301,2.8301,2.8301,2.8301,2.8301,2.8301,2.8301,2.8301,2.8301,2.8301,2.8301,2.8301,2.8301,2.8164,2.8027,2.8027,2.7715,2.7402,2.7402,2.707,2.668,2.6445,2.625,2.6035,2.5781,2.5742,2.5742,2.5742,2.5742,2.5742,2.5742,2.5742,2.5742,2.5742,2.5742,2.5742,2.5742,2.5742,2.4749,2.2443,2.1492,2.0,1.7851,1.6987,1.6526,1.6526,1.6246,1.6086,1.6086,1.5912,1.5832,1.5832,1.5832,1.5832,1.5832,1.5832,1.5832,2.5742,2.5742,2.5742,2.5742,2.5742,2.5742,2.5742,2.5742,2.5742,2.5742,2.5742,2.5742,2.5742,2.5742,2.5781,2.5898,2.5918,2.6074,2.6504,2.6562,2.6719,2.7148,2.7187,2.7246,2.7363,2.7266,2.7187,2.7187,2.7598,2.7832,2.7832,2.8125,2.8301,2.8301,2.8301,2.8301,2.8301,2.8301,2.8301,2.8301,2.8301,2.8301,2.8301,2.8418,2.8457,2.8476,2.8594,2.8652,2.8652,2.8652,2.8652,2.8652,2.8652,2.8652,2.8652,2.8652,2.8496,2.8301,2.8301,2.8301,2.8301,2.8301,2.8301,2.8301,2.8301,2.8301,2.8301,2.8301,2.8301,2.8301,2.8301,2.8066,2.7832,2.7832,2.75,2.7109,2.6797,2.6562,2.6289,2.5977,2.582,2.5742,2.5742,2.5742,2.5742,2.5742,2.5742,2.5742,2.5742,2.5742,2.5742,2.5742,2.5742,2.4609,2.1963,2.1512,2.0163,1.7468,1.6994,1.6834,1.6834,1.6553,1.6393,1.6393,1.6099,1.5952,1.5952,1.5872,1.5832,1.5832,1.5832,1.5832,2.5742,2.5742,2.5742,2.5742,2.5742,2.5742,2.5742,2.5742,2.5742,2.5742,2.5742,2.5742,2.5742,2.5742,2.5879,2.6289,2.6367,2.6523,2.6934,2.6992,2.7168,2.7598,2.7656,2.7812,2.8203,2.7891,2.7656,2.7656,2.8027,2.8281,2.8281,2.8281,2.8301,2.8301,2.8301,2.8301,2.8301,2.8301,2.8301,2.8301,2.8301,2.8301,2.8301,2.8711,2.8906,2.8926,2.9355,2.9531,2.9531,2.9531,2.9531,2.9531,2.9531,2.9531,2.9531,2.9531,2.9004,2.8301,2.8301,2.8301,2.8301,2.8301,2.8301,2.8301,2.8301,2.8301,2.8301,2.8301,2.8301,2.8301,2.8301,2.8281,2.8281,2.8281,2.7949,2.7637,2.7637,2.6973,2.6387,2.6367,2.6035,2.5742,2.5742,2.5742,2.5742,2.5742,2.5742,2.5742,2.5742,2.5742,2.5742,2.5742,2.5742,2.4609,2.1963,2.1744,2.0523,1.7779,1.7301,1.7141,1.7141,1.6847,1.6687,1.6687,1.6406,1.6259,1.6259,1.5965,1.5832,1.5832,1.5832,1.5832,2.5742,2.5742,2.5742,2.5742,2.5742,2.5742,2.5742,2.5742,2.5742,2.5742,2.5977,2.6172,2.6172,2.6406,2.6641,2.6777,2.6797,2.6953,2.7383,2.7441,2.7598,2.8027,2.8086,2.8144,2.8281,2.8164,2.8086,2.8086,2.8203,2.8301,2.8301,2.8301,2.8301,2.8301,2.8301,2.8301,2.8301,2.8301,2.8437,2.8711,2.9004,2.9141,2.9141,2.9297,2.9355,2.9355,2.9512,2.957,2.957,2.957,2.957,2.957,2.957,2.957,2.957,2.957,2.9394,2.9101,2.8809,2.8711,2.8652,2.8379,2.8301,2.8301,2.8301,2.8301,2.8301,2.8301,2.8301,2.8301,2.8301,2.8301,2.8301,2.8301,2.8184,2.8008,2.7734,2.7441,2.7148,2.6855,2.668,2.6504,2.6211,2.6172,2.6074,2.5781,2.5742,2.5742,2.5742,2.5742,2.5742,2.5742,2.5742,2.4609,2.1963,2.1744,2.0538,1.7793,1.7488,1.7435,1.7435,1.7154,1.7007,1.7007,1.6714,1.6567,1.6567,1.646,1.6406,1.6406,1.6406,1.6406,2.5742,2.5742,2.5742,2.5742,2.5742,2.5742,2.5742,2.5742,2.5742,2.5742,2.6094,2.6387,2.6387,2.6738,2.707,2.7226,2.7246,2.7402,2.7832,2.7891,2.7988,2.8262,2.8301,2.8301,2.8301,2.8301,2.8301,2.8301,2.8301,2.8301,2.8301,2.8301,2.8301,2.8301,2.8301,2.8359,2.8516,2.8516,2.873,2.916,2.9434,2.957,2.957,2.9726,2.9785,2.9805,2.998,3.0039,3.0039,3.0039,3.0039,3.0039,3.0039,3.0039,3.0039,3.0039,3.0039,2.9961,2.9355,2.9043,2.8867,2.8613,2.8418,2.8301,2.8301,2.8301,2.8301,2.8301,2.8301,2.8301,2.8301,2.8301,2.8301,2.8301,2.8301,2.8223,2.7949,2.7773,2.7578,2.7305,2.7129,2.6934,2.666,2.6602,2.6523,2.623,2.6074,2.5918,2.5762,2.5742,2.5528,2.502,2.502,2.3899,2.1151,2.0947,2.0025,1.7793,1.7582,1.7582,1.7582,1.7395,1.7301,1.7301,1.7021,1.686,1.686,1.6754,1.67,1.67,1.67,1.67,2.5742,2.5742,2.5742,2.5742,2.5742,2.5742,2.5742,2.5762,2.5781,2.5781,2.6133,2.6445,2.6445,2.6797,2.7207,2.7637,2.7695,2.7832,2.8242,2.8301,2.8301,2.8301,2.8301,2.8301,2.8301,2.8301,2.8301,2.8301,2.8301,2.8301,2.8301,2.8301,2.8301,2.832,2.832,2.8535,2.8945,2.8965,2.9199,2.9609,2.9629,2.9648,2.9648,3.0059,3.0234,3.0254,3.0703,3.0898,3.0898,3.0898,3.0898,3.0898,3.0898,3.0898,3.0898,3.0898,3.0898,3.0762,2.9922,2.9355,2.8984,2.8926,2.8652,2.832,2.8301,2.8301,2.8301,2.8301,2.8301,2.8301,2.8301,2.8301,2.8301,2.8301,2.8301,2.8301,2.8301,2.7988,2.7695,2.7695,2.7344,2.7051,2.7051,2.7031,2.7012,2.7012,2.668,2.6269,2.582,2.5742,2.5216,2.38,2.3683,2.2567,1.9834,1.9627,1.902,1.7687,1.7582,1.7582,1.7582,1.7582,1.7582,1.7582,1.7315,1.7168,1.7168,1.6887,1.6754,1.6754,1.6754,1.6754,2.5742,2.5742,2.5742,2.5742,2.5742,2.5742,2.5742,2.5996,2.623,2.623,2.6816,2.7344,2.7344,2.7676,2.8008,2.8125,2.8125,2.8164,2.8281,2.8301,2.8301,2.8301,2.8301,2.8301,2.8301,2.8301,2.8301,2.8301,2.8301,2.8301,2.8301,2.8301,2.8437,2.875,2.8769,2.8965,2.9394,2.9707,2.9922,3.0039,3.0391,3.0547,3.0566,3.0664,3.0703,3.0723,3.084,3.0898,3.0898,3.0898,3.0898,3.0898,3.0898,3.0898,3.0898,3.0898,3.0898,3.0859,3.0625,3.0254,2.9766,2.9121,2.8848,2.8711,2.8398,2.8301,2.8301,2.8301,2.8301,2.8301,2.8301,2.8301,2.8301,2.8301,2.8301,2.8301,2.8301,2.8203,2.8125,2.8125,2.7793,2.75,2.75,2.7226,2.7012,2.7012,2.6914,2.6699,2.6269,2.5937,2.5216,2.38,2.3683,2.2567,1.9834,1.9627,1.902,1.7687,1.7582,1.7582,1.7582,1.7582,1.7582,1.7582,1.7515,1.7475,1.7475,1.7395,1.7355,1.7355,1.7355,1.7355,2.5742,2.5742,2.5742,2.5742,2.5742,2.5781,2.5977,2.6211,2.6445,2.6621,2.7207,2.7676,2.7676,2.8008,2.8301,2.8301,2.8301,2.8301,2.8301,2.8301,2.8301,2.8301,2.8301,2.8301,2.8301,2.8301,2.8301,2.8301,2.8301,2.8301,2.8301,2.8476,2.8672,2.8906,2.9101,2.9414,2.9844,3.0273,3.0508,3.0508,3.0762,3.0898,3.0898,3.0898,3.0898,3.0898,3.0898,3.0898,3.0898,3.0898,3.0898,3.0898,3.0898,3.0898,3.0898,3.0898,3.0898,3.0898,3.0898,3.0723,3.0351,2.9492,2.9082,2.8848,2.8418,2.8301,2.8301,2.8301,2.8301,2.8301,2.8301,2.8301,2.8301,2.8301,2.8301,2.8301,2.8301,2.8301,2.8301,2.8301,2.8105,2.793,2.793,2.7734,2.7578,2.7578,2.7422,2.7207,2.6973,2.6562,2.5772,2.4408,2.3538,2.2214,2.0045,1.9197,1.8408,1.7687,1.7582,1.7582,1.7582,1.7582,1.7582,1.7582,1.7582,1.7582,1.7582,1.7582,1.7582,1.7582,1.7582,1.7582,2.5742,2.5742,2.5742,2.5742,2.5781,2.5918,2.6309,2.6484,2.666,2.7031,2.7441,2.7754,2.7754,2.8047,2.8301,2.8301,2.8301,2.8301,2.8301,2.8301,2.8301,2.8301,2.8301,2.8301,2.8301,2.8301,2.832,2.8379,2.8379,2.8379,2.8379,2.8711,2.8965,2.9082,2.9512,2.9922,3.0293,3.0684,3.0898,3.0898,3.0898,3.0898,3.0898,3.0898,3.0898,3.0898,3.0898,3.0898,3.0898,3.0898,3.0898,3.0898,3.0898,3.0898,3.0898,3.0898,3.0898,3.0898,3.0898,3.0898,3.0762,2.9922,2.9355,2.8926,2.8496,2.834,2.8301,2.8301,2.8301,2.8301,2.8301,2.8301,2.8301,2.8301,2.8301,2.8301,2.8301,2.8301,2.8301,2.8301,2.8301,2.8301,2.8301,2.8301,2.8301,2.8301,2.7988,2.7754,2.7754,2.7324,2.6481,2.5185,2.341,2.1764,2.0499,1.8646,1.7649,1.7649,1.7609,1.7582,1.7582,1.7582,1.7582,1.7582,1.7582,1.7582,1.7582,1.7582,1.7582,1.7582,1.7582,1.7582,2.5742,2.5742,2.5742,2.5742,2.6016,2.6289,2.6367,2.6934,2.7461,2.7539,2.7891,2.8184,2.8184,2.8242,2.8301,2.8301,2.8301,2.8301,2.8301,2.8301,2.8301,2.8301,2.8301,2.8301,2.8301,2.8301,2.8437,2.8789,2.8809,2.8809,2.8809,2.8887,2.9238,2.9961,3.043,3.0703,3.0762,3.0859,3.0898,3.0898,3.0898,3.0898,3.0898,3.0898,3.0898,3.0898,3.0898,0.0,3.0898,3.0898,3.0898,3.0898,3.0898,3.0898,3.0898,3.0898,3.0898,3.0898,3.0898,3.0898,3.0801,3.0254,2.9805,2.9375,2.8945,2.8574,2.8301,2.8301,2.8301,2.8301,2.8301,2.8301,2.8301,2.8301,2.8301,2.8301,2.8301,2.8301,2.8301,2.8301,2.8301,2.8301,2.8301,2.8301,2.8301,2.8301,2.8223,2.8184,2.8184,2.75,2.6481,2.5185,2.3545,2.2118,2.074,1.8968,1.7969,1.7969,1.7729,1.7582,1.7582,1.7582,1.7582,1.7582,1.7582,1.7582,1.7582,1.7582,1.7582,1.7582,1.7582,1.7582,2.5742,2.5742,2.5801,2.6016,2.623,2.6504,2.6953,0.0,0.0,2.7949,2.8144,2.8301,2.8301,2.8301,2.8301,2.8301,2.8301,2.8301,2.8301,2.8301,2.8301,2.8301,2.8301,2.8301,2.8301,2.8301,2.8476,2.8887,2.8926,2.9023,2.9238,2.9473,2.9883,3.0527,3.0781,3.0898,3.0898,3.0898,3.0898,3.0898,3.0898,3.0898,3.0898,3.0898,3.0898,3.0898,3.0898,3.0898,3.0898,3.0898,3.0898,3.0898,3.0898,3.0898,3.0898,3.0898,3.0898,3.0898,3.0898,3.0898,3.0859,3.0625,3.0117,2.9492,2.9043,2.8633,2.8301,2.8301,2.8301,2.8301,2.8301,2.8301,2.8301,2.8301,2.8301,2.8301,2.8301,2.8301,2.8301,2.8301,2.8301,2.8301,2.8301,2.8301,2.8301,2.8301,2.8301,2.8301,2.8301,2.793,2.7466,2.6797,2.4543,2.2814,2.2164,1.9728,1.8277,1.8277,1.7996,1.7822,1.7822,1.7662,1.7582,1.7582,1.7582,1.7582,1.7582,1.7582,1.7582,1.7582,1.7582,1.7582,2.5742,2.5742,2.584,2.6289,2.6465,2.6719,2.75,2.7734,2.7891,2.8223,2.8301,2.8301,2.8301,2.8301,2.8301,2.8301,2.8301,2.8301,2.8301,2.8301,2.8301,2.8301,2.8301,2.8301,2.8301,2.8379,2.8594,2.9023,2.9238,2.9453,2.9687,3.0117,3.0508,3.0879,3.0898,3.0898,3.0898,3.0898,3.0898,3.0898,3.0898,3.0898,3.0898,3.0898,3.0898,3.0898,3.0898,3.0898,3.0898,3.0898,3.0898,3.0898,3.0898,3.0898,3.0898,3.0898,3.0898,3.0898,3.0898,3.0898,3.0879,3.0781,3.0215,2.9512,2.916,2.8691,2.8301,2.8301,2.8301,2.8301,2.8301,2.8301,2.8301,2.8301,2.8301,2.8301,2.8301,2.8301,2.8301,2.8301,2.8301,2.8301,2.8301,2.8301,2.8301,2.8301,2.8301,2.8301,2.8301,2.8301,2.8174,2.7833,2.5233,2.3409,2.308,2.0265,1.8584,1.8584,1.8303,1.8143,1.8143,1.7849,1.7689,1.7689,1.7622,1.7582,1.7582,1.7582,1.7582,1.7582,1.7582,1.7582,2.5742,2.5742,2.584,2.6289,2.668,2.709,2.7559,0.0,2.8242,2.8281,2.8301,2.8301,2.8301,2.8301,2.8301,2.8301,2.8301,2.8301,2.8301,2.8301,2.8301,2.8301,2.8301,2.8301,2.8301,2.8633,2.9043,2.9473,3.0254,3.0547,3.0156,3.0586,3.084,3.0898,3.0898,3.0898,3.0898,3.0898,3.0898,3.0898,3.0898,3.0898,3.0898,3.0898,3.0898,3.0898,3.0898,3.0898,0.0,3.0898,3.0898,3.0898,3.0898,3.0898,3.0898,3.0898,3.0898,3.0898,3.0898,3.0898,3.082,3.0391,2.9941,2.957,2.9531,2.8945,2.8301,2.8301,2.8301,2.8301,2.8301,2.8301,2.8301,2.8301,2.8301,2.8301,2.8301,2.8301,2.8301,2.8301,2.8301,2.8301,2.8301,2.8301,2.8301,2.8301,2.8301,2.8301,2.8301,2.8301,2.7833,2.6481,2.4786,2.3215,2.1881,1.992,1.8878,1.8878,1.8611,1.845,1.845,1.8156,1.8009,1.8009,1.7729,1.7582,1.7582,1.7582,1.7582,1.7582,1.7582,1.7582,2.5742,2.6304,2.683,2.6783,2.8043,2.9331,2.9291,0.0,2.9513,2.9513,2.89,2.8301,2.8301,2.8301,2.8301,2.8301,2.8301,2.8301,2.8301,2.8301,2.8301,2.8301,2.8301,2.8301,2.8301,2.8672,2.9199,2.9902,3.0527,3.082,3.0625,3.0801,3.0898,3.0898,3.0898,3.0898,3.0898,3.0898,3.0898,3.0898,3.0898,3.0898,3.0898,3.0898,3.0898,3.0898,3.0898,3.0898,0.0,3.0898,3.0898,3.0898,3.0898,3.0898,3.0898,3.0898,3.0898,3.0898,3.0898,3.0898,3.082,3.0351,2.9922,2.9531,2.9258,2.8769,2.8301,2.8301,2.8301,2.8301,2.8301,2.8301,2.8301,2.8301,2.8301,2.8301,2.8301,2.8301,2.8301,2.8301,2.8301,2.8301,2.8301,2.8301,2.8301,2.8301,2.8301,2.8301,2.8301,2.8301,2.7403,2.4931,2.4156,2.3151,2.1699,2.0144,1.9185,1.9185,1.8918,1.8744,1.8744,1.8464,1.8317,1.8317,1.8196,1.813,1.813,1.813,1.813,1.813,1.813,1.813,2.6207,2.6935,2.7619,2.7563,2.9239,3.0754,3.0406,3.0307,3.0411,3.0824,2.9513,2.8388,2.8794,2.8601,2.8301,2.8301,0.0,2.89,2.89,2.9197,2.9303,2.89,2.9197,2.9303,2.89,2.9829,3.0518,3.0977,3.1357,3.1325,3.0879,3.1325,3.1325,3.0898,3.0898,3.0898,3.0898,3.0898,3.0898,3.0898,3.0898,3.0898,3.0898,3.0898,3.0898,3.0898,3.0898,3.0898,0.0,3.0898,3.0898,3.0898,3.0898,3.0898,3.0898,3.0898,3.0898,3.0898,3.0898,3.0898,3.0801,3.0195,2.9805,2.9473,2.8906,2.8516,2.8301,2.8301,2.8301,2.8301,2.8301,2.8301,2.8301,2.8301,2.8301,2.8301,2.8301,2.8301,2.8301,2.8301,2.8301,2.8301,2.8301,2.8301,2.8301,2.8301,2.8301,2.8301,2.8301,2.796,2.6608,2.4044,2.3375,2.2589,2.1031,2.004,1.9372,1.9372,1.9172,1.9052,1.9052,1.8771,1.8624,1.8624,1.8531,1.849,1.849,1.849,1.849,1.849,1.849,1.849,2.722,2.76,2.7809,2.8613,2.9808,3.0754,3.0406,3.0307,3.0721,3.2028,3.012,2.8708,3.0016,2.9197,2.8301,2.8301,2.9408,0.0,3.0307,3.1418,3.1724,3.0411,3.1418,3.1724,3.0411,3.2394,3.357,3.3106,3.3077,0.0,3.0995,3.2322,3.2416,3.1015,3.0898,3.0898,3.0898,3.0898,3.0898,3.0898,3.0898,3.0898,3.0898,3.0898,3.0898,3.0898,3.0898,3.0898,0.0,3.0898,3.0898,3.0898,3.0898,3.0898,3.0898,3.0898,3.0898,3.0898,3.0898,3.0898,3.0742,2.9863,2.957,2.9414,2.8555,2.8301,2.8301,2.8301,2.8301,2.8301,2.8301,2.8301,2.8301,2.8301,2.8301,2.8301,2.8301,2.8301,2.8301,2.8301,2.8301,2.8301,2.8301,2.8301,2.8301,2.8301,2.8301,2.8301,2.8301,2.706,2.548,2.3933,2.2476,2.1031,1.9591,1.9372,1.9372,1.9372,1.9359,1.9359,1.9359,1.9078,1.8918,1.8918,1.8637,1.849,1.849,1.849,1.849,1.849,1.849,1.849,2.722,2.76,2.7809,2.8712,3.0585,3.2415,3.2925,3.3055,3.3254,3.3674,3.2252,3.1133,3.1622,3.1338,3.103,3.103,3.1418,3.1622,3.1622,3.2028,3.2129,3.1724,3.2028,3.2396,3.2669,3.3315,3.357,3.3127,3.3077,3.2851,3.2416,3.2851,3.2851,3.2416,3.2416,3.2416,3.2416,3.1441,3.0898,3.0898,3.0898,3.0898,3.0898,3.0898,3.0898,3.0898,3.0898,3.0898,3.0898,3.0898,3.0898,3.0898,3.0898,3.0898,3.0898,3.0898,3.0898,3.0898,3.0898,3.0684,3.0332,2.9746,2.9375,2.9023,2.8457,2.8301,2.8301,2.8301,2.8301,2.8301,2.8301,2.8301,2.8301,2.8301,2.8301,2.8301,2.8301,2.8301,2.8301,2.8301,2.8301,2.8301,2.8301,2.8301,2.8301,2.8301,2.8301,2.8301,2.8301,2.706,2.548,2.3933,2.2476,2.1031,1.9475,1.9372,1.9372,1.9372,1.9372,1.9372,1.9372,1.9279,1.9225,1.9225,1.9132,1.9092,1.9092,1.9092,1.9092,1.9092,1.9092,1.9092,0.0,2.8308,2.8094,2.9956,3.1639,0.0,3.4148,3.4385,3.4581,3.5066,3.365,3.2431,3.2955,3.2632,3.2331,3.2331,3.2733,3.3055,3.3055,0.0,0.0,3.3848,3.3453,0.0,0.0,3.5371,3.5166,3.4759,3.4714,3.4515,3.3957,3.4515,3.4714,3.4714,3.4181,3.3957,3.3957,3.2416,3.1767,3.1767,3.1228,3.0898,3.0898,3.0898,3.0898,3.0898,3.0898,3.0898,0.0,3.0898,3.0898,3.0898,3.0898,3.0898,3.0898,3.0898,3.0898,3.0859,3.0684,3.043,3.0098,2.9512,2.9043,2.8633,2.8379,2.8301,2.8301,2.8301,2.8301,2.8301,2.8301,2.8301,2.8301,2.8301,2.8301,2.8301,2.8301,2.8301,2.8301,2.8301,2.8301,2.8301,2.8301,2.8301,2.8301,2.8301,2.8301,2.8067,2.7511,2.6155,2.4599,2.3151,2.1699,2.0371,1.9475,1.9372,1.9372,1.9372,1.9372,1.9372,1.9372,1.9372,1.9372,1.9372,1.9372,1.9372,1.9372,1.9372,1.9372,1.9372,1.9372,1.9372,0.0,0.0,0.0,0.0,0.0,0.0,0.0,0.0,0.0,3.6168,3.4338,3.2955,3.4264,3.3453,3.2632,3.2632,3.365,3.4581,3.4581,3.5571,0.0,0.0,3.5259,3.5478,3.7741,3.799,3.7814,3.744,3.7453,3.6918,3.5508,3.6703,3.7583,3.769,3.6379,3.5508,3.5288,3.3733,3.2964,3.2964,3.1536,3.0898,3.0898,3.0898,3.0898,3.0898,3.0898,3.0898,3.0898,3.0898,3.0898,3.0898,3.0898,3.0898,3.0898,3.0898,3.0859,3.0781,3.0351,3.0156,2.9961,2.9141,2.8613,2.8301,2.8301,2.8301,2.8301,2.8301,2.8301,2.8301,2.8301,2.8301,2.8301,2.8301,2.8301,2.8301,2.8301,2.8301,2.8301,2.8301,2.8301,2.8301,2.8301,2.8301,2.8301,2.8301,2.8301,2.7833,2.6372,2.4931,2.3375,2.1926,2.0486,1.9475,1.9372,1.9372,1.9372,1.9372,1.9372,1.9372,1.9372,1.9372,1.9372,1.9372,1.9372,1.9372,1.9372,1.9372,1.9372,1.9372,1.9372,1.9372,0.0,0.0,0.0,0.0,0.0,0.0,0.0,0.0,0.0,0.0,0.0,0.0,0.0,0.0,3.5451,3.5451,3.5763,3.5953,3.5953,3.6168,0.0,3.6358,3.6168,3.6322,3.7312,3.7764,3.7666,3.6939,3.7239,3.7346,3.7026,3.7346,3.8031,3.9129,3.8816,3.7607,3.5288,3.2758,3.1441,3.1441,3.1112,3.0898,3.0898,3.0898,3.0898,3.0898,3.0898,3.0898,3.0898,3.0898,3.0898,3.0898,3.0898,3.0898,3.0898,3.0898,3.0664,3.0351,3.0234,2.9766,2.9141,2.8613,2.8379,2.8301,2.8301,2.8301,2.8301,2.8301,2.8301,2.8301,2.8301,2.8301,2.8301,2.8301,2.8301,2.8301,2.8301,2.8301,2.8301,2.8301,2.8301,2.8301,2.8301,2.8301,2.8301,2.8301,2.8301,2.8174,2.7833,2.6518,2.4948,2.3487,2.1926,2.0587,1.9475,1.9372,1.9372,1.9372,1.9372,1.9372,1.9372,1.9372,1.9372,1.9372,1.9372,1.9372,1.9372,1.9372,1.9372,1.9372,1.9372,1.9372,0.0,0.0,0.0,0.0,0.0,0.0,0.0,0.0,0.0,0.0,0.0,0.0,0.0,0.0,0.0,0.0,3.6358,0.0,0.0,0.0,3.6358,3.6358,3.6358,3.6584,0.0,3.7688,3.7917,3.7726,3.816,3.8477,3.8477,3.8477,3.8921,3.9697,3.8372,3.7263,3.6271,3.409,3.255,3.1883,3.1208,3.0898,3.0898,3.0898,3.0898,3.0898,3.0898,3.0898,3.0898,3.0898,3.0898,3.0898,3.0898,3.0898,3.0898,3.0898,3.0586,3.0176,2.998,2.9355,2.8594,2.8359,2.8301,2.8301,2.8301,2.8301,2.8301,2.8301,2.8301,2.8301,2.8301,2.8301,2.8301,2.8301,2.8301,2.8301,2.8301,2.8301,2.8301,2.8301,2.8301,2.8301,2.8301,2.8301,2.8301,2.8301,2.8301,2.8067,2.7384,2.6608,2.5278,2.3039,2.2024,2.1031,1.9475,1.9372,1.9372,1.9372,1.9372,1.9372,1.9372,1.9372,1.9372,1.9372,1.9372,1.9372,1.9372,1.9372,1.9372,1.9372,1.9372,1.9372,0.0,0.0,0.0,0.0,0.0,0.0,0.0,0.0,0.0,0.0,0.0,0.0,0.0,3.6358,0.0,0.0,0.0,0.0,3.6358,3.6358,3.6358,3.6358,3.6358,0.0,3.701,3.7563,3.8115,3.8693,3.9245,3.9597,3.9697,3.9697,3.9697,3.9697,3.7049,3.6162,3.7133,3.5508,3.3979,3.2758,3.1556,3.0898,3.0898,3.0898,3.0898,3.0898,3.0898,0.0,3.0898,3.0898,3.0898,3.0898,3.0898,3.0898,3.0898,3.0898,3.0547,3.0039,2.9551,2.8906,2.8301,2.8301,2.8301,2.8301,2.8301,2.8301,2.8301,2.8301,2.8301,2.8301,2.8301,2.8301,2.8301,2.8301,2.8301,2.8301,2.8301,2.8301,2.8301,2.8301,2.8301,2.8301,2.8301,2.8301,2.8301,2.8301,2.8301,2.7853,2.6608,2.6264,2.5041,2.2251,2.1699,2.1031,1.9475,1.9372,1.9372,1.9372,1.9372,1.9372,1.9372,1.9372,1.9372,1.9372,1.9372,1.9372,1.9372,1.9372,1.9372,1.9372,1.9372,1.9372,3.3068,3.281,3.2636,3.3082,3.3859,0.0,0.0,0.0,0.0,0.0,0.0,0.0,0.0,3.6358,3.6358,0.0,0.0,3.6358,0.0,0.0,3.6358,3.6358,0.0,3.6383,3.6483,3.6985,3.7538,3.809,3.8668,3.9195,3.9672,3.9697,3.9697,3.9697,3.8031,3.6703,3.5617,3.2985,3.1441,3.1228,3.0995,3.0898,3.0898,3.0898,3.0898,3.0898,0.0,3.0898,3.0898,3.0898,3.0898,3.0898,3.0898,3.0898,3.0898,3.0898,3.0371,2.9551,2.8769,2.8398,2.8301,2.8301,2.8301,2.8301,2.8301,2.8301,2.8301,2.8301,2.8301,2.8301,2.8301,2.8301,2.8301,2.8301,2.8301,2.8301,2.8301,2.8301,2.8301,2.8301,2.8301,2.8301,2.8301,2.8301,2.8301,2.8301,2.8301,2.8174,2.796,2.6825,2.5371,2.3599,2.2363,2.1031,1.9475,1.9372,1.9372,1.9372,1.9372,1.9372,1.9372,1.9372,1.9372,1.9372,1.9372,1.9372,1.9372,1.9372,1.9372,1.9372,1.9372,1.9372,3.3068,3.3068,3.3144,3.3445,0.0,3.4801,3.5102,0.0,0.0,0.0,0.0,0.0,0.0,0.0,3.6358,3.6358,0.0,3.6358,3.6358,3.6358,3.6358,0.0,0.0,3.6358,3.6358,3.686,3.7287,3.7538,3.8366,3.8969,3.922,3.9521,3.9697,3.9697,3.8243,3.7133,3.6487,3.3529,3.1652,3.0898,3.0898,3.0898,3.0898,3.0898,3.0898,3.0898,0.0,3.0898,3.0898,3.0898,3.0898,3.0898,3.0898,3.0898,3.084,3.0351,2.9766,2.9121,2.8496,2.8301,2.8301,2.8301,2.8301,2.8301,2.8301,2.8301,2.8301,2.8301,2.8301,2.8301,2.8301,2.8301,2.8301,2.8301,2.8301,2.8301,2.8301,2.8301,2.8301,2.8301,2.8301,2.8301,2.8301,2.8301,2.8301,2.8301,2.8301,2.8067,2.7168,2.6499,2.5151,2.2814,2.204,2.1031,1.9475,1.9372,1.9372,1.9372,1.9372,1.9372,1.9372,1.9372,1.9372,1.9372,1.9372,1.9372,1.9372,1.9372,1.9372,1.9372,1.9372,1.9372,3.3068,3.3169,3.3395,0.0,0.0,3.4876,3.5429,0.0,0.0,0.0,0.0,0.0,0.0,3.6358,0.0,3.6358,3.6358,3.6358,3.6358,3.6358,3.6358,3.6358,3.6358,3.6358,3.6358,3.6734,3.7036,3.7186,3.799,3.8542,3.8668,3.9069,3.9371,3.9496,3.8049,3.7228,3.7026,3.4403,3.253,3.1441,3.1112,3.0898,3.0898,3.0898,3.0898,3.0898,3.0898,3.0898,3.0898,3.0898,3.0898,3.0898,3.0898,3.082,3.0625,2.9863,2.9297,2.8848,2.8437,2.8301,2.8301,2.8301,2.8301,2.8301,2.8301,2.8301,2.8301,2.8301,2.8301,2.8301,2.8301,2.8301,2.8301,2.8301,2.8301,2.8301,2.8301,2.8301,2.8301,2.8301,2.8301,2.8301,2.8301,2.8301,2.8301,2.8301,2.8301,2.7853,2.6717,2.6264,2.5041,2.2363,2.1813,2.1031,1.9475,1.9372,1.9372,1.9372,1.9372,1.9372,1.9372,1.9372,1.9372,1.9372,1.9372,1.9372,1.9372,1.9372,1.9372,1.9372,1.9372,1.9372,3.3068,3.3445,3.3972,3.4525,3.47,0.0,3.5429,3.5981,0.0,3.6358,0.0,0.0,0.0,3.6358,3.6358,3.6358,3.6358,3.6358,3.6358,0.0,3.6358,3.6358,3.6358,3.6358,3.6358,3.6383,3.6634,3.7136,3.7262,3.7538,3.804,3.8115,3.8366,3.8919,3.7515,3.6343,3.5508,3.3845,3.3077,3.2964,3.1536,3.0898,3.0898,3.0898,3.0898,3.0898,3.0898,3.0898,3.0898,3.0898,3.0898,3.0898,3.0898,3.0625,3.0195,2.9726,2.9297,2.8848,2.8437,2.8301,2.8301,2.8301,2.8301,2.8301,2.8301,2.8301,2.8301,2.8301,2.8301,2.8301,2.8301,2.8301,2.8301,2.8301,2.8301,2.8301,2.8301,2.8301,2.8301,2.8301,2.8301,2.8301,2.8301,2.8301,2.8301,2.8301,2.8301,2.8301,2.8174,2.6952,2.548,2.3822,2.2363,2.1031,1.9475,1.9372,1.9372,1.9372,1.9372,1.9372,1.9372,1.9372,1.9372,1.9372,1.9372,1.9372,1.9372,1.9372,1.9372,1.9372,1.9372,1.9372,3.3495,3.3746,3.4123,3.5002,3.5228,0.0,0.0,3.6207,3.6358,3.6358,3.6358,0.0,0.0,0.0,3.6358,3.6358,3.6358,3.6358,3.6358,3.6358,3.6358,3.6358,3.6358,3.6358,3.6358,3.6358,3.6458,3.6659,3.6985,3.7287,3.7487,3.7814,3.8115,3.8316,3.7791,3.7097,3.6237,3.4709,3.3655,3.3077,3.1536,3.0898,3.0898,3.0898,3.0898,3.0898,3.0898,3.0898,3.0898,3.0898,3.0898,3.0859,3.0566,3.0195,2.9746,2.9316,2.8887,2.8516,2.834,2.8301,2.8301,2.8301,2.8301,2.8301,2.8301,2.8301,2.8301,2.8301,2.8301,2.8301,2.8301,2.8301,2.8301,2.8301,2.8301,2.8301,2.8301,2.8301,2.8301,2.8301,2.8301,2.8301,2.8301,2.8301,2.8301,2.8301,2.8301,2.796,2.706,2.6481,2.548,2.3933,2.2476,2.1031,1.9475,1.9372,1.9372,1.9372,1.9372,1.9372,1.9372,1.9372,1.9372,1.9372,1.9372,1.9372,1.9372,1.9372,1.9372,1.9372,1.9372,1.9372,3.3746,3.4022,3.4374,0.0,0.0,0.0,3.6282,3.6358,3.6358,3.6358,3.6358,0.0,3.6358,0.0,0.0,0.0,3.6358,3.6358,3.6358,3.6358,3.6358,3.6358,3.6358,3.6358,3.6358,3.6358,3.6358,3.6358,3.6709,3.6935,3.6935,3.7287,3.7563,3.7739,3.732,3.6642,3.5806,3.4302,3.3157,3.2189,3.1106,3.0742,3.0898,3.0898,3.0898,3.0898,3.0898,3.0898,3.0898,3.0898,3.0898,3.084,3.0371,2.9941,2.9512,2.9082,2.8652,2.8301,2.8301,2.8301,2.8301,2.8301,2.8301,2.8301,2.8301,2.8301,2.8301,2.8301,2.8301,2.8301,2.8301,2.8301,2.8301,2.8301,2.8301,2.8301,2.8301,2.8301,2.8301,2.8301,2.8301,2.8301,2.8301,2.8301,2.8301,2.8301,2.8301,2.796,2.6933,2.6825,2.6155,2.471,2.3151,2.1699,2.0256,2.0141,1.9924,1.9488,1.9372,1.9372,1.9372,1.9372,1.9372,1.9372,1.9372,1.9372,1.9372,1.9372,1.9372,1.9372,1.9372,1.9372,3.3746,3.4299,0.0,0.0,0.0,0.0,3.6358,3.6358,3.6358,3.6358,3.6358,3.6358,3.6358,3.6358,0.0,3.6358,3.6358,3.6358,3.6358,3.6358,3.6358,3.6358,3.6358,3.6358,3.6358,3.6358,3.6358,3.6358,3.6358,3.6358,3.6358,3.6358,3.6609,3.7161,3.5818,3.4731,3.381,3.2448,3.1285,3.0195,3.0195,3.0449,3.0898,3.0898,3.0898,3.0898,3.0898,3.0898,3.0898,3.0898,3.0898,3.084,3.0371,2.9941,2.9512,2.9082,2.8652,2.8301,2.8301,2.8301,2.8301,2.8301,2.8301,2.8301,2.8301,2.8301,2.8301,2.8301,2.8301,2.8301,2.8301,2.8301,2.8301,2.8301,2.8301,2.8301,2.8301,2.8301,2.8301,2.8301,2.8301,2.8301,2.8301,2.8301,2.8301,2.8301,2.8301,2.8301,2.8301,2.8301,2.7726,2.6264,2.471,2.3263,2.1699,2.1586,2.1031,1.9475,1.9372,1.9372,1.9372,1.9372,1.9372,1.9372,1.9372,1.9372,1.9372,1.9372,1.9372,1.9372,1.9372,1.9372,3.4223,3.46,0.0,3.5881,0.0,0.0,0.0,3.6358,0.0,0.0,3.6358,3.6358,3.6358,3.6358,0.0,3.6358,3.6358,3.6358,3.6358,3.6358,3.6358,3.6358,3.6358,3.6358,3.6358,3.6358,3.6358,3.6358,3.6358,3.5978,3.5066,3.4969,3.4628,3.3761,3.3361,3.2677,3.1848,3.1423,3.0704,2.9766,3.0059,3.0449,3.0898,3.0898,3.0898,3.0898,3.0898,3.0898,3.0898,3.0898,3.0898,3.082,3.0059,2.9687,2.9492,2.875,2.8398,2.8301,2.8301,2.8301,2.8301,2.8301,2.8301,2.8301,2.8301,2.8301,2.8301,2.8301,2.8301,2.8301,2.8301,2.8301,2.8301,2.8301,2.8301,2.8301,2.8301,2.8301,2.8301,2.8301,2.8301,2.8301,2.8301,2.8301,2.8301,2.8301,2.8301,2.8301,2.8301,2.8301,2.7726,2.6264,2.5717,2.482,2.3263,2.2138,2.1358,2.1031,1.9924,1.9372,1.9372,1.9372,1.9372,1.9372,1.9372,1.9372,1.9372,1.9372,1.9372,1.9372,1.9372,1.9372,3.4751,0.0,0.0,3.6132,3.6358,3.6358,3.6358,0.0,0.0,0.0,3.6358,3.6358,3.6358,3.6358,0.0,3.6358,3.6358,3.6358,3.6358,3.6358,3.6358,3.6358,3.6358,3.6358,3.6358,3.6358,3.6358,3.6358,3.5858,3.5259,3.4483,3.3871,3.3155,3.2331,3.1825,3.1262,3.0727,3.0219,2.9715,2.9316,2.957,3.0019,3.0625,3.0801,3.0898,3.0898,3.0898,3.0898,3.0898,3.0898,3.0781,3.0547,2.9844,2.9473,2.9238,2.8555,2.8301,2.8301,2.8301,2.8301,2.8301,2.8301,2.8301,2.8301,2.8301,2.8301,2.8301,2.8301,2.8301,2.8301,2.8301,2.8301,2.8301,2.8301,2.8301,2.8301,2.8301,2.8301,2.8301,2.8301,2.8301,2.8301,2.8301,2.8301,2.8301,2.8301,2.8301,2.8301,2.8301,2.8301,2.796,2.706,2.6933,2.6372,2.482,2.3933,2.3151,2.2476,2.1031,2.0256,2.0256,1.9707,1.9372,1.9372,1.9372,1.9372,1.9372,1.9372,1.9372,1.9372,1.9372,1.9372,3.5177,0.0,0.0,3.6232,3.6358,0.0,3.6358,3.6358,3.6358,3.6358,0.0,3.6358,3.6358,3.6358,3.6358,3.6358,3.6358,3.6358,3.6358,3.6358,3.6358,3.6358,3.6358,3.6358,3.6358,3.6358,3.6358,3.6358,3.5162,3.4385,3.419,3.2855,3.2028,3.1927,3.0721,3.012,3.012,2.89,2.8476,2.8867,2.8906,2.9316,3.0098,3.0605,3.0859,3.0898,3.0898,3.0898,3.0879,3.084,3.0586,3.0156,2.9687,2.9277,2.8867,2.8437,2.8301,2.8301,2.8301,2.8301,2.8301,2.8301,2.8301,2.8301,2.8301,2.8301,2.8301,2.8301,2.8301,2.8301,2.8301,2.8301,2.8301,2.8301,2.8301,2.8301,2.8301,2.8301,2.8301,2.8301,2.8301,2.8301,2.8301,2.8301,2.8301,2.8301,2.8301,2.8301,2.8301,2.8301,2.8301,2.8301,2.8301,2.7726,2.6372,2.6155,2.548,2.4044,2.2476,2.1586,2.1586,2.0141,1.9372,1.9372,1.9372,1.9372,1.9372,1.9372,1.9372,1.9372,1.9372,1.9372,0.0,3.5228,0.0,0.0,3.6358,3.6358,3.6358,3.6358,3.6358,3.6358,3.6358,3.6358,3.6358,3.6358,3.6358,3.6358,3.6358,3.6358,3.6358,3.6358,3.6358,3.6358,3.6358,3.6358,3.6358,3.6358,3.6358,3.6358,3.5162,3.3871,3.2855,3.144,3.0224,2.9197,2.89,2.8688,2.8688,2.8388,2.834,2.8437,2.8769,2.9023,2.9219,3.0,3.0547,3.0898,3.0898,3.0898,3.0859,3.0488,3.0293,3.0117,2.9355,2.9004,2.8867,2.8437,2.8301,2.8301,2.8301,2.8301,2.8301,2.8301,2.8301,2.8301,2.8301,2.8301,2.8301,2.8301,2.8301,2.8301,2.8301,2.8301,2.8301,2.8301,2.8301,2.8301,2.8301,2.8301,2.8301,2.8301,2.8301,2.8301,2.8301,2.8301,2.8301,2.8301,2.8301,2.8301,2.8301,2.8301,2.8301,2.8301,2.8301,2.8174,2.7833,2.6717,2.5936,2.5608,2.3039,2.1586,2.1586,2.0141,1.9372,1.9372,1.9372,1.9372,1.9372,1.9372,1.9372,1.9372,1.9372,1.9372,0.0,0.0,0.0,3.6282,0.0,3.6358,3.6358,3.6358,3.6358,3.6358,3.6358,3.6358,3.6358,3.6358,3.6358,3.6358,3.6358,3.6358,3.6358,3.6358,3.6358,3.6358,3.6358,3.6358,3.6358,3.6358,3.6168,3.5475,3.4166,3.2755,3.1418,3.012,2.9006,2.8281,2.8301,2.8301,2.8301,2.8301,2.8301,2.8301,2.8516,2.873,2.8945,2.9805,3.0449,3.0879,3.0644,3.0566,3.0527,3.0078,2.9785,2.9531,2.9101,2.8789,2.8594,2.8379,2.8301,2.8301,2.8301,2.8301,2.8301,2.8301,2.8301,2.8301,2.8301,2.8301,2.8301,2.8301,2.8301,2.8301,2.8301,2.8301,2.8301,2.8301,2.8301,2.8301,2.8301,2.8301,2.8301,2.8301,2.8301,2.8301,2.8301,2.8301,2.8301,2.8301,2.8301,2.8301,2.8301,2.8301,2.8301,2.8301,2.8301,2.8301,2.8301,2.7618,2.7168,2.7168,2.5041,2.3375,2.2702,2.1259,2.0141,1.9359,1.9372,1.9372,1.9372,1.9372,1.9372,1.9372,1.9372,1.9372,0.0,0.0,3.6358,3.6358,3.6358,0.0,3.6358,3.6358,3.6358,3.6358,3.6358,3.6358,3.6358,3.6358,3.6358,3.6358,3.6358,3.6358,3.6358,3.6358,3.6358,3.6358,3.6358,3.6358,3.6358,3.6358,3.5953,3.4872,3.3254,3.1825,3.0721,2.9092,2.8301,2.8301,2.8301,2.8301,2.8301,2.8301,2.8301,2.8301,2.8301,2.8516,2.8945,2.9648,3.0234,3.0644,3.0254,3.0098,3.0059,2.9629,2.9238,2.8906,2.8848,2.8594,2.8301,2.8301,2.8301,2.8301,2.8301,2.8301,2.8301,2.8301,2.8301,2.8301,2.8301,2.8301,2.8301,2.8301,2.8301,2.8301,2.8301,2.8301,2.8301,2.8301,2.8301,2.8301,2.8301,2.8301,2.8301,2.8301,2.8301,2.8301,2.8301,2.8301,2.8301,2.8301,2.8301,2.8301,2.8301,2.8301,2.8301,2.8301,2.8301,2.8301,2.8301,2.8301,2.8301,2.8301,2.6933,2.5371,2.3822,2.2363,2.0916,1.9488,1.9372,1.9372,1.9372,1.9372,1.9372,1.9372,1.9372,1.9372,0.0,0.0,3.6358,0.0,3.6358,3.6358,0.0,0.0,3.6358,0.0,3.6358,3.6358,3.6358,3.6358,3.6358,3.6358,3.6358,3.6358,3.6358,3.6358,3.6358,3.6358,3.6358,3.6358,3.6358,3.6358,3.6358,3.6168,3.3749,3.223,3.2028,2.9618,2.8301,2.8301,2.8301,2.8301,2.8301,2.8301,2.8301,2.8301,2.8301,2.8516,2.8926,2.9043,2.9336,2.9746,2.9687,2.9648,2.9629,2.918,2.8965,2.8887,2.8516,2.834,2.8301,2.8301,2.8301,2.8301,2.8301,2.8301,2.8301,2.8301,2.8301,2.8301,2.8301,2.8301,2.8301,2.8301,2.8301,2.8301,2.8301,2.8301,2.8301,2.8301,2.8301,2.8301,2.8301,2.8301,2.8301,2.8301,2.8301,2.8301,2.8301,2.8301,2.8301,2.8301,2.8301,2.8301,2.8301,2.8301,2.8301,2.8301,2.8301,2.8301,2.8301,2.8301,2.8301,2.8301,2.6933,2.5371,2.3822,2.2363,2.0916,1.9488,1.9372,1.9372,1.9372,1.9372,1.9372,1.9372,1.9372,1.9372,3.5906,3.6182,3.6358,0.0,3.6358,3.6358,3.6358,0.0,3.6358,3.6358,3.6358,3.6358,3.6358,3.6358,3.6358,3.6358,3.6358,3.6358,3.6358,3.6358,3.6358,3.6358,3.6358,3.6358,3.6358,3.6358,3.5763,3.424,3.2932,3.1622,3.012,2.89,2.8301,2.8301,2.8301,2.8301,2.8301,2.8301,2.8301,2.8301,2.8301,2.8398,2.8574,2.8574,2.8926,2.9551,2.9316,2.9199,2.918,2.875,2.8574,2.8555,2.8359,2.8301,2.8301,2.8301,2.8301,2.8301,2.8301,2.8301,2.8301,2.8301,2.8301,2.8301,2.8301,2.8301,2.8301,2.8301,2.8301,2.8301,2.8301,2.8301,2.8301,2.8301,2.8301,2.8301,2.8301,2.8301,2.8301,2.8301,2.8301,2.8301,2.8301,2.8301,2.8301,2.8301,2.8301,2.8301,2.8301,2.8301,2.8301,2.8301,2.8301,2.8301,2.8301,2.8301,2.8301,2.8301,2.7726,2.6608,2.5151,2.3599,2.2153,2.0702,1.9809,1.9372,1.9372,1.9372,1.9372,1.9372,1.9372,1.9372,0.0,0.0,3.6358,3.6358,3.6358,3.6358,0.0,0.0,3.6358,0.0,3.6358,3.6358,3.6358,3.6358,3.6358,3.6358,3.6358,3.6358,3.6358,3.6358,3.6358,3.6358,3.6358,3.6358,3.6358,3.6358,3.5547,3.3528,3.2733,3.1418,2.9408,2.8708,2.8301,2.8301,2.8301,2.8301,2.8301,2.8301,2.8301,2.8301,2.8301,2.8301,2.8301,2.8301,2.8633,2.9219,2.8906,2.8769,2.873,2.8418,2.8301,2.8301,2.8301,2.8301,2.8301,2.8301,2.8301,2.8301,2.8301,2.8301,2.8301,2.8301,2.8301,2.8301,2.8301,2.8301,2.8301,2.8301,2.8301,2.8301,2.8301,2.8301,2.8301,2.8301,2.8301,2.8301,2.8301,2.8301,2.8301,2.8301,2.8301,2.8301,2.8301,2.8301,2.8301,2.8301,2.8301,2.8301,2.8301,2.8301,2.8301,2.8301,2.8301,2.8301,2.8301,2.8301,2.8301,2.8301,2.8301,2.7618,2.6155,2.4599,2.3151,2.1586,2.0141,1.9372,1.9372,1.9372,1.9372,1.9372,1.9372,1.9372,0.0,3.6358,0.0,3.6358,0.0,0.0,0.0,0.0,3.6358,3.6358,3.6358,3.6358,3.6358,3.6358,3.6358,3.6358,3.6358,3.6358,3.6358,3.6358,3.6358,3.6358,3.6358,3.6358,3.6358,3.6358,3.6358,3.6168,3.3749,3.223,3.2129,2.9702,2.8301,2.8301,2.8301,2.8301,2.8301,2.8301,2.8301,2.8301,2.8301,2.8301,2.8301,2.8301,2.832,2.8359,2.834,2.832,2.832,2.8301,2.8301,2.8301,2.8301,2.8301,2.8301,2.8301,2.8301,2.8301,2.8301,2.8301,2.8301,2.8301,2.8301,2.8301,2.8301,2.8301,2.8301,2.8301,2.8301,2.8301,2.8301,2.8301,2.8301,2.8301,2.8301,2.8301,2.8301,2.8301,2.8301,2.8301,2.8301,2.8301,2.8301,2.8301,2.8301,2.8301,2.8301,2.8301,2.8301,2.8301,2.8301,2.8301,2.8301,2.8301,2.8301,2.8301,2.8301,2.8301,2.8301,2.7618,2.6155,2.4599,2.3151,2.1586,2.0141,1.9372,1.9372,1.9372,1.9372,1.9372,1.9372,1.9372,0.0,0.0,0.0,3.6358,3.6358,3.6358,3.6358,3.6358,3.6358,3.6358,3.6358,3.6358,3.6358,3.6358,3.6358,3.6358,3.6358,3.6358,3.6358,3.6358,3.6358,3.6358,3.6358,3.6358,3.6358,3.6358,3.5642,3.3946,3.2833,3.152,2.9807,2.8794,2.8301,2.8301,2.8301,2.8301,2.8301,2.8301,2.8301,2.8301,2.8301,2.8301,2.8301,2.8301,2.8301,2.8301,2.8301,2.8301,2.8301,2.8301,2.8301,2.8301,2.8301,2.8301,2.8301,2.8301,2.8301,2.8301,2.8301,2.8301,2.8301,2.8301,2.8301,2.8301,2.8301,2.8301,2.8301,2.8301,2.8301,2.8301,2.8301,2.8301,2.8301,2.8301,2.8301,2.8301,2.8301,2.8301,2.8301,2.8301,2.8301,2.8301,2.8301,2.8301,2.8301,2.8301,2.8301,2.8301,2.8301,2.8301,2.8301,2.8301,2.8301,2.8301,2.8301,2.8301,2.8301,2.8301,2.8301,2.8067,2.7511,2.5151,2.3599,2.3039,2.0601,1.9372,1.9372,1.9372,1.9372,1.9372,1.9372,1.9372,3.6358,0.0,0.0,0.0,0.0,3.6358,3.6358,0.0,3.6358,3.6358,3.6358,3.6358,3.6358,3.6358,3.6358,3.6358,3.6358,3.6358,3.6358,3.6358,3.6358,3.6358,3.6358,3.6358,3.6358,3.6358,3.5451,3.3155,3.2532,3.1316,2.9112,2.8495,2.8301,2.8301,2.8301,2.8301,2.8301,2.8301,2.8301,2.8301,2.8301,2.8301,2.8301,2.8301,2.8301,2.8301,2.8301,2.8301,2.8301,2.8301,2.8301,2.8301,2.8301,2.8301,2.8301,2.8301,2.8301,2.8301,2.8301,2.8301,2.8301,2.8301,2.8398,2.8496,2.8496,2.8613,2.873,2.873,2.873,2.873,2.873,2.8613,2.8496,2.8496,2.8398,2.8301,2.8301,2.8301,2.8301,2.8301,2.8301,2.8301,2.8301,2.8301,2.8301,2.8301,2.8301,2.8301,2.8301,2.8301,2.8301,2.8301,2.8301,2.8301,2.8301,2.8301,2.8301,2.8301,2.8301,2.8301,2.8301,2.5388,2.3822,2.3822,2.0931,1.9372,1.9372,1.9372,1.9372,1.9372,1.9372,1.9372,0.0,0.0,0.0,0.0,0.0,0.0,3.6358,0.0,3.6358,3.6358,3.6358,3.6358,3.6358,3.6358,3.6358,3.6358,3.6358,3.6358,3.6358,3.6358,3.6358,3.6358,3.6358,3.6358,3.6358,3.6358,3.5763,3.4385,3.3055,3.1622,3.0307,2.9006,2.8301,2.8301,2.8301,2.8301,2.8301,2.8301,2.8301,2.8301,2.8301,2.8301,2.8301,2.8301,2.8301,2.8301,2.8301,2.8301,2.8301,2.8301,2.8301,2.8301,2.8301,2.8301,2.8301,2.8301,2.8301,2.8301,2.8301,2.832,2.832,2.832,2.8613,2.8945,2.8945,2.9238,2.957,2.957,2.957,2.957,2.957,2.9258,2.8945,2.8926,2.8613,2.8301,2.8301,2.8301,2.8301,2.8301,2.8301,2.8301,2.8301,2.8301,2.8301,2.8301,2.8301,2.8301,2.8301,2.8301,2.8301,2.8301,2.8301,2.8301,2.8301,2.8301,2.8301,2.8301,2.8301,2.8301,2.8301,2.5388,2.3822,2.3822,2.0931,1.9372,1.9372,1.9372,1.9372,1.9372,1.9372,1.9372,3.6358,0.0,0.0,0.0,0.0,0.0,0.0,0.0,3.6358,3.6358,3.6358,3.6358,3.6358,3.6358,3.6358,3.6358,3.6358,3.6358,3.6358,3.6358,3.6358,3.6358,3.6358,3.6073,3.5066,3.4969,3.397,0.0,3.103,3.0328,2.89,2.8495,2.8301,2.8301,2.8301,2.8301,2.8301,2.8301,2.8301,2.8301,2.8301,2.8301,2.8301,2.8301,2.8301,2.8301,2.8301,2.8301,2.8301,2.8301,2.8301,2.8301,2.8301,2.8301,2.8301,2.8301,2.8301,2.834,2.8633,2.875,2.8789,2.9121,2.9297,2.9394,2.9394,2.9473,2.957,2.957,2.957,2.957,2.957,2.9473,2.9316,2.9004,2.8828,2.8652,2.8359,2.8301,2.8301,2.8301,2.8301,2.8301,2.8301,2.8301,2.8301,2.8301,2.8301,2.8301,2.8301,2.8301,2.8301,2.8301,2.8301,2.8301,2.8301,2.8301,2.8301,2.8301,2.8301,2.8301,2.8301,2.5388,2.3822,2.3822,2.0931,1.9372,1.9372,1.9372,1.9372,1.9372,1.9372,1.9372,3.6358,3.6358,0.0,0.0,0.0,0.0,3.6358,3.6358,3.6358,3.6358,3.6358,3.6358,3.6358,3.6358,3.6358,3.6358,3.6358,3.6358,3.6358,3.6358,3.6358,3.6358,3.6358,3.5858,3.4483,3.4385,3.3254,3.0514,3.0307,2.9702,2.8388,2.8301,2.8301,2.8301,2.8301,2.8301,2.8301,2.8301,2.8301,2.8301,2.8301,2.8301,2.8301,2.8301,2.8301,2.8301,2.8301,2.8301,2.8301,2.8301,2.8301,2.8301,2.8301,2.8301,2.832,2.8496,2.8555,2.8613,2.9043,2.9199,2.9238,2.9492,2.9687,2.9824,2.9824,2.9961,3.0117,3.0117,3.0117,3.0117,3.0117,2.998,2.9766,2.9512,2.918,2.8848,2.8613,2.8418,2.8301,2.8301,2.8301,2.8301,2.8301,2.8301,2.8301,2.8301,2.8301,2.8301,2.8301,2.8301,2.8301,2.8301,2.8301,2.8301,2.8301,2.8301,2.8301,2.8301,2.8301,2.8301,2.8301,2.5388,2.3822,2.3822,2.0931,1.9372,1.9372,1.9372,1.9372,1.9372,1.9372,1.9372,0.0,0.0,0.0,0.0,3.6358,0.0,3.6358,3.6358,3.6358,3.6358,3.6358,3.6358,3.6358,3.6358,3.6358,3.6358,3.6358,3.6358,3.6358,3.6358,3.6358,3.6358,3.6358,3.5763,3.4288,3.419,3.3055,3.0307,3.012,2.9513,2.8388,2.8301,2.8301,2.8301,2.8301,2.8301,2.8301,2.8301,2.8301,2.8301,2.8301,2.8301,2.8301,2.8301,2.8301,2.8301,2.8301,2.8301,2.8301,2.8301,2.8301,2.8301,2.8301,2.8301,2.834,2.8769,2.8926,2.8984,2.9473,2.9648,2.9648,2.9707,2.998,3.0273,3.0273,3.0566,3.0898,3.0898,3.0898,3.0898,3.0898,3.0586,3.0254,3.0215,2.957,2.8984,2.8926,2.8594,2.8301,2.8301,2.8301,2.8301,2.8301,2.8301,2.8301,2.8301,2.8301,2.8301,2.8301,2.8301,2.8301,2.8301,2.8301,2.8301,2.8301,2.8301,2.8301,2.8301,2.8301,2.8301,2.8301,2.5608,2.3933,2.3822,2.0931,1.9372,1.9372,1.9372,1.9372,1.9372,1.9372,1.9372,0.0,0.0,0.0,0.0,3.6358,0.0,3.6358,3.6358,3.6358,3.6358,3.6358,3.6358,3.6358,3.6358,3.6358,3.6358,3.6358,3.6358,3.6358,3.6358,3.6358,3.6358,3.6358,3.5451,3.2955,3.2755,3.1644,2.89,2.8708,2.8601,2.8281,2.8301,2.8301,2.8301,2.8301,2.8301,2.8301,2.8301,2.8301,2.8301,2.8301,2.8301,2.8301,2.8301,2.8301,2.8301,2.8301,2.8301,2.8301,2.8301,2.8301,2.8301,2.8301,2.8301,2.834,2.8769,2.8926,2.9023,2.9805,3.0078,3.0137,3.0508,3.0684,3.0762,3.0762,3.082,3.0898,3.0898,3.0898,3.0898,3.0898,3.082,3.0664,3.0293,2.9805,2.9355,2.9004,2.8594,2.8301,2.8301,2.8301,2.8301,2.8301,2.8301,2.8301,2.8301,2.8301,2.8301,2.8301,2.8301,2.8301,2.8301,2.8301,2.8301,2.8301,2.8301,2.8301,2.8301,2.8301,2.8301,2.8301,2.6608,2.5041,2.3822,2.0931,1.9372,1.9372,1.9372,1.9372,1.9372,1.9372,1.9372,0.0,0.0,0.0,3.6358,3.6358,0.0,0.0,3.6358,3.6358,3.6358,3.6358,3.6358,3.6358,3.6358,3.6358,3.6358,3.6358,3.6358,3.6358,3.6358,3.6358,3.6358,3.6358,3.5355,3.2532,3.2331,3.1235,2.8495,2.8301,2.8301,2.8301,2.8301,2.8301,2.8301,2.8301,2.8301,2.8301,2.8301,2.8301,2.8301,2.8301,2.8301,2.8301,2.8301,2.8301,2.8281,2.9006,2.9303,2.9303,3.0016,3.0307,3.012,2.8794,2.8301,2.8359,2.9004,2.9238,2.9375,3.0234,3.0547,3.0586,3.082,3.0898,3.0898,3.0898,3.0898,3.0898,3.0898,3.0898,3.0898,3.0898,3.0898,3.084,3.0605,3.0215,2.9766,2.9336,2.8906,2.8535,2.834,2.8301,2.8301,2.8301,2.8301,2.8301,2.8301,2.8301,2.8301,2.8301,2.8301,2.8301,2.8301,2.8301,2.8301,2.8301,2.8301,2.8301,2.8301,2.8301,2.8301,2.8301,2.6825,2.5041,2.2702,2.1259,2.0141,1.9372,1.9372,1.9372,1.9372,1.9372,1.9372,0.0,0.0,0.0,0.0,0.0,3.6358,0.0,0.0,0.0,3.6358,0.0,0.0,0.0,0.0,0.0,3.6232,0.0,0.0,0.0,3.6307,0.0,3.6358,3.6358,3.5451,3.2932,3.2431,3.1316,2.89,2.8708,2.8601,2.8281,2.8301,2.8301,2.8301,2.8301,2.8301,2.8301,2.8301,2.8301,2.8301,2.8301,2.8301,2.8281,2.8601,2.8708,2.8794,3.012,3.0721,3.0721,3.1825,3.2331,3.2129,2.9911,2.9112,2.9212,3.0097,3.0198,3.0115,3.1027,3.1112,3.0898,3.0898,3.0898,3.0898,3.0898,3.0898,3.0898,3.0898,3.0898,3.0898,3.0898,3.0898,3.0898,3.0898,3.0527,3.0098,2.9766,2.9277,2.8809,2.8476,2.834,2.8301,2.8301,2.8301,2.8301,2.8301,2.8301,2.8301,2.8301,2.8301,2.8301,2.8301,2.8301,2.8301,2.8301,2.8301,2.8301,2.8301,2.8301,2.8301,2.8301,2.6608,2.4488,2.204,2.1472,2.0587,1.9372,1.9372,1.9372,1.9372,1.9372,1.9372,0.0,0.0,0.0,0.0,3.6358,3.6358,3.6358,0.0,3.6358,3.6358,0.0,0.0,0.0,0.0,0.0,0.0,0.0,0.0,3.5705,3.6056,3.6358,3.6358,3.6358,3.5763,3.4288,3.3055,3.1724,3.0224,3.012,2.9513,2.8388,2.8301,2.8301,2.8301,2.8301,2.8301,2.8301,2.8301,2.8301,2.8301,2.8301,2.8301,2.8281,2.9513,3.012,3.012,3.152,3.2028,3.2129,3.223,3.2331,3.223,3.1927,3.1825,3.1958,3.2928,3.2534,3.1491,3.2538,3.1977,3.0898,3.0898,3.0898,3.0898,3.0898,3.0898,3.0898,3.0898,3.0898,3.0898,3.0898,3.0898,3.0898,3.0898,3.0527,3.0176,3.0137,2.9492,2.8906,2.8848,2.8555,2.8301,2.8301,2.8301,2.8301,2.8301,2.8301,2.8301,2.8301,2.8301,2.8301,2.8301,2.8301,2.8301,2.8301,2.8301,2.8301,2.8301,2.8301,2.8301,2.8301,2.5608,2.3933,2.3599,2.0931,1.9591,1.9372,1.9372,1.9372,1.9372,1.9372,1.9372,0.0,0.0,0.0,0.0,0.0,0.0,3.6358,0.0,3.6358,0.0,0.0,0.0,0.0,0.0,0.0,0.0,3.6207,0.0,0.0,0.0,3.6358,3.6358,0.0,0.0,3.4483,3.3155,3.1724,3.0411,3.0307,2.9702,2.8388,2.8301,2.8301,2.8301,2.8301,2.8301,2.8301,2.8301,2.8301,2.8301,2.8301,2.8688,2.9513,3.0016,3.0721,3.152,3.2955,3.3552,3.3552,3.4362,3.4654,3.4654,3.4654,3.3936,3.2869,3.3563,3.3564,3.3378,3.3183,3.2644,3.2092,3.1228,3.0898,3.0898,3.0898,3.0898,3.0898,3.0898,3.0898,3.0898,3.0898,3.0898,3.0898,3.0898,3.0742,3.0527,3.0254,2.9726,2.9219,2.8965,2.8574,2.8301,2.8301,2.8301,2.8301,2.8301,2.8301,2.8301,2.8301,2.8301,2.8301,2.8301,2.8301,2.8301,2.8301,2.8301,2.8301,2.8301,2.8301,2.8301,2.8301,2.6264,2.471,2.3822,2.1699,2.0256,1.9372,1.9372,1.9372,1.9372,1.9372,1.9372,3.7513,0.0,0.0,0.0,0.0,0.0,0.0,0.0,0.0,0.0,0.0,0.0,0.0,0.0,0.0,0.0,0.0,3.6307,0.0,3.6282,0.0,0.0,0.0,0.0,0.0,3.4044,3.2733,3.103,3.0824,3.012,2.8388,2.8301,2.8495,2.8794,2.8794,2.8794,2.8794,2.8794,2.8708,2.8301,2.8708,2.9408,3.0307,3.103,3.1927,3.2955,3.4362,3.4969,3.4969,3.5953,3.6358,3.6358,3.6358,3.5673,3.4574,3.4819,3.5073,3.5046,3.456,3.3733,3.2851,3.1325,3.0898,3.0898,3.0898,3.0898,3.0898,3.0898,3.0898,3.0898,3.0898,3.0898,3.0898,3.0898,3.0898,3.0801,3.0469,3.0059,2.9609,2.918,2.875,2.8437,2.832,2.8301,2.8301,2.8301,2.8301,2.8301,2.8301,2.8301,2.8301,2.8301,2.8301,2.8301,2.8301,2.8301,2.8301,2.8301,2.8301,2.8301,2.8301,2.6499,2.4931,2.3822,2.1926,2.0472,1.9372,1.9372,1.9372,1.9372,1.9372,1.9372,0.0,0.0,0.0,3.7161,0.0,0.0,0.0,0.0,3.6358,0.0,0.0,0.0,0.0,0.0,0.0,0.0,0.0,0.0,0.0,0.0,0.0,0.0,0.0,0.0,0.0,3.6263,3.5162,3.2431,3.223,3.1133,2.8388,2.8301,2.89,3.0203,3.0224,3.0224,3.0224,3.0224,2.9618,2.8301,2.9618,3.0224,3.0411,3.3055,3.4288,3.4385,3.5763,3.6358,3.6358,3.6358,3.6358,3.6358,3.6358,3.701,3.7866,3.7891,3.7286,3.6659,3.718,3.5485,3.2851,3.1325,3.0898,3.0898,3.0898,3.0898,3.0898,3.0898,3.0898,3.0898,3.0898,3.0898,3.0898,3.0898,3.0898,3.0879,3.0879,3.0508,3.0059,2.9629,2.9199,2.8769,2.8359,2.8301,2.8301,2.8301,2.8301,2.8301,2.8301,2.8301,2.8301,2.8301,2.8301,2.8301,2.8301,2.8301,2.8301,2.8301,2.8301,2.8301,2.8301,2.5498,2.3822,2.3822,2.0931,1.9488,1.9372,1.9372,1.9372,1.9372,1.9372,1.9372,0.0,0.0,3.8216,3.7814,0.0,0.0,0.0,0.0,0.0,0.0,0.0,0.0,0.0,0.0,0.0,0.0,0.0,0.0,0.0,0.0,0.0,0.0,0.0,0.0,0.0,0.0,3.5667,3.3871,3.2855,3.152,2.9702,2.8794,2.89,3.0224,3.0307,3.0721,3.1622,3.1622,3.1418,3.0927,3.144,3.2129,3.3055,3.397,3.4872,3.5763,3.6168,3.6358,3.6358,3.6358,3.6358,3.6358,3.6358,3.7036,3.8015,3.8015,3.829,3.8546,3.7748,3.6162,3.4515,3.3979,3.3212,3.2301,3.2301,3.1652,3.0898,3.0898,3.0898,3.0898,3.0898,3.0898,3.0898,3.0898,3.0898,3.0898,3.0898,3.0527,3.0078,2.9648,2.9219,2.8789,2.8359,2.8301,2.8301,2.8301,2.8301,2.8301,2.8301,2.8301,2.8301,2.8301,2.8301,2.8301,2.8301,2.8301,2.8301,2.8301,2.8301,2.7833,2.6825,2.4931,2.3375,2.2363,2.0371,1.9372,1.9372,1.9372,1.9372,1.9372,1.9372,1.9372,3.927,3.9019,0.0,3.8417,3.7739,0.0,3.7186,0.0,3.6358,0.0,0.0,0.0,0.0,0.0,0.0,0.0,0.0,0.0,0.0,3.6358,3.6358,3.6358,3.6358,3.6358,0.0,3.6358,3.5858,3.4483,3.3552,3.2431,3.1133,3.0224,3.0328,3.1746,3.1746,3.2151,3.3055,3.3055,3.2855,3.2331,3.2855,3.3552,3.4385,3.4872,3.5571,3.6358,3.6358,3.6358,3.6358,3.6358,3.6358,3.6383,3.6584,3.7211,3.8015,3.8015,3.8718,3.9465,3.8007,3.6918,3.5945,3.4847,3.3845,3.2964,3.253,3.1652,3.0898,3.0898,3.0898,3.0898,3.0898,3.0898,3.0898,3.0898,3.0898,3.0898,3.0898,3.0644,3.0273,2.9687,2.9355,2.8965,2.8398,2.8301,2.8301,2.8301,2.8301,2.8301,2.8301,2.8301,2.8301,2.8301,2.8301,2.8301,2.8301,2.8301,2.8301,2.8301,2.8301,2.7618,2.6155,2.4599,2.3103,2.175,2.0197,1.9412,1.9519,1.9412,1.9372,1.9372,1.9372,1.9372]},{"header":{"parameterUnit":"m.s-1","parameterCategory":1,"la1":30.6,"la2":29.2853,"lo1":-89.7004,"lo2":-87.6739,"dx":0.0162,"dy":0.0183,"nx":112,"ny":82,"refTime":"2023-02-06T06:00:00:Z","depth":0,"parameterNumber":3,"parameterNumberName":"V-component_of_WINDS"},"data":[0.0,0.0,0.0,0.0,0.0,0.0,0.0,0.0,0.0,0.0,0.0,0.0,0.0,0.0,0.0,0.0,0.0,0.0,0.0,0.0,0.0,0.0,0.0,0.0,0.0,0.0,0.0,0.0,0.0,0.0,0.0,0.0,0.0,0.0,0.0,0.0,0.0,0.0,0.0,0.0,0.0,0.0,0.0,0.0,0.0,0.0,0.0,0.0,0.0,0.0,0.0,0.0,0.0,0.0,0.0,0.0,0.0,0.0,0.0,0.0,0.0,0.0,0.0,0.0,0.0,0.0,0.0,0.0,0.0,0.0,0.0,0.0,0.0,0.0,0.0,0.0,0.0,0.0,0.0,0.0,0.0,0.0,0.0,0.0,0.0,0.0,0.0,0.0,0.0,0.0,-3.6331,-3.65,-3.6933,-3.7244,-3.7436,-3.8224,-3.8689,-3.8689,0.0,0.0,0.0,0.0,0.0,0.0,0.0,0.0,0.0,0.0,0.0,0.0,0.0,0.0,0.0,0.0,0.0,0.0,0.0,0.0,0.0,0.0,0.0,0.0,0.0,0.0,0.0,0.0,0.0,0.0,0.0,0.0,0.0,0.0,0.0,0.0,0.0,0.0,0.0,0.0,0.0,0.0,0.0,0.0,0.0,0.0,0.0,0.0,0.0,0.0,0.0,0.0,0.0,0.0,0.0,0.0,0.0,0.0,0.0,0.0,0.0,0.0,0.0,0.0,0.0,0.0,0.0,0.0,0.0,0.0,0.0,0.0,0.0,0.0,0.0,0.0,0.0,0.0,0.0,0.0,0.0,0.0,0.0,0.0,0.0,0.0,0.0,0.0,0.0,0.0,0.0,0.0,0.0,0.0,0.0,0.0,0.0,0.0,0.0,0.0,0.0,0.0,0.0,0.0,-3.6077,-3.696,-3.7148,-3.7576,-3.8413,-3.8615,-3.8689,-3.8689,0.0,0.0,0.0,0.0,0.0,0.0,0.0,0.0,0.0,0.0,0.0,0.0,0.0,0.0,0.0,0.0,0.0,0.0,0.0,0.0,0.0,0.0,0.0,0.0,0.0,0.0,0.0,0.0,0.0,0.0,0.0,0.0,0.0,0.0,0.0,0.0,0.0,0.0,0.0,0.0,0.0,0.0,0.0,0.0,0.0,0.0,0.0,0.0,0.0,0.0,0.0,0.0,0.0,0.0,0.0,0.0,0.0,0.0,0.0,0.0,0.0,0.0,0.0,0.0,0.0,0.0,0.0,0.0,0.0,0.0,0.0,0.0,0.0,0.0,0.0,0.0,0.0,0.0,0.0,0.0,0.0,0.0,0.0,0.0,0.0,0.0,0.0,0.0,0.0,0.0,0.0,0.0,0.0,0.0,0.0,0.0,0.0,0.0,0.0,0.0,0.0,0.0,0.0,-3.5622,-3.5882,-3.6684,-3.7034,-3.7486,-3.8193,-3.8511,-3.8689,-3.8689,-3.8365,0.0,0.0,0.0,0.0,0.0,0.0,0.0,0.0,0.0,0.0,0.0,0.0,0.0,0.0,0.0,0.0,0.0,0.0,0.0,0.0,0.0,0.0,0.0,0.0,0.0,0.0,0.0,0.0,0.0,0.0,0.0,0.0,0.0,0.0,0.0,0.0,0.0,0.0,0.0,0.0,0.0,0.0,0.0,0.0,0.0,0.0,0.0,0.0,0.0,0.0,0.0,0.0,0.0,0.0,0.0,0.0,0.0,0.0,0.0,0.0,0.0,0.0,0.0,0.0,0.0,0.0,0.0,0.0,0.0,0.0,0.0,0.0,0.0,0.0,0.0,0.0,0.0,0.0,0.0,0.0,0.0,0.0,0.0,0.0,0.0,0.0,0.0,0.0,0.0,0.0,0.0,0.0,0.0,0.0,0.0,0.0,0.0,0.0,0.0,0.0,0.0,0.0,-3.6151,-3.6273,-3.665,-3.7112,-3.7584,-3.7854,-3.8376,-3.8689,-3.8689,-3.8689,0.0,0.0,0.0,0.0,0.0,0.0,0.0,0.0,0.0,0.0,0.0,0.0,0.0,0.0,0.0,0.0,0.0,0.0,0.0,0.0,0.0,0.0,0.0,0.0,0.0,0.0,0.0,0.0,0.0,0.0,0.0,0.0,0.0,0.0,0.0,0.0,0.0,0.0,0.0,0.0,0.0,0.0,0.0,0.0,0.0,0.0,0.0,0.0,0.0,0.0,0.0,0.0,0.0,0.0,0.0,0.0,0.0,0.0,0.0,0.0,0.0,0.0,0.0,0.0,0.0,0.0,0.0,0.0,0.0,0.0,0.0,0.0,0.0,0.0,0.0,0.0,0.0,0.0,0.0,0.0,0.0,0.0,0.0,0.0,0.0,0.0,0.0,0.0,0.0,0.0,0.0,0.0,0.0,0.0,0.0,0.0,0.0,0.0,0.0,0.0,0.0,0.0,-3.7759,-3.7657,-3.7428,-3.7893,-3.8144,-3.7929,-3.8396,-3.8689,-3.8689,-3.8689,0.0,0.0,0.0,0.0,0.0,0.0,0.0,0.0,0.0,0.0,0.0,0.0,0.0,0.0,0.0,0.0,0.0,0.0,0.0,0.0,0.0,0.0,0.0,0.0,0.0,0.0,0.0,0.0,0.0,0.0,0.0,0.0,0.0,0.0,0.0,0.0,0.0,0.0,0.0,0.0,0.0,0.0,0.0,0.0,0.0,0.0,0.0,0.0,0.0,0.0,0.0,0.0,0.0,0.0,0.0,0.0,0.0,0.0,0.0,0.0,0.0,0.0,0.0,0.0,0.0,0.0,0.0,0.0,0.0,0.0,0.0,0.0,0.0,0.0,0.0,0.0,0.0,0.0,0.0,0.0,0.0,0.0,0.0,0.0,0.0,0.0,0.0,0.0,0.0,0.0,0.0,0.0,0.0,0.0,0.0,0.0,0.0,0.0,0.0,0.0,0.0,0.0,-3.7894,-3.8116,-3.8684,-3.8929,-3.9254,-3.9862,-3.9621,-3.946,-3.946,0.0,0.0,0.0,0.0,0.0,0.0,0.0,0.0,0.0,0.0,0.0,0.0,0.0,0.0,0.0,0.0,0.0,0.0,0.0,0.0,0.0,0.0,0.0,0.0,0.0,0.0,0.0,0.0,0.0,0.0,0.0,0.0,0.0,0.0,0.0,0.0,0.0,0.0,0.0,0.0,0.0,0.0,0.0,0.0,0.0,0.0,0.0,0.0,0.0,0.0,0.0,0.0,0.0,0.0,0.0,0.0,0.0,0.0,0.0,0.0,0.0,0.0,0.0,0.0,0.0,0.0,0.0,0.0,0.0,0.0,0.0,0.0,0.0,0.0,0.0,0.0,0.0,0.0,0.0,0.0,0.0,0.0,0.0,0.0,0.0,0.0,0.0,0.0,0.0,0.0,0.0,0.0,0.0,0.0,0.0,0.0,0.0,0.0,0.0,0.0,0.0,0.0,-3.8569,-3.8584,-3.8798,-3.9269,-3.9658,-4.0036,-4.0563,-4.0397,-4.0157,-3.99,0.0,0.0,0.0,0.0,0.0,0.0,0.0,0.0,0.0,0.0,0.0,0.0,0.0,0.0,0.0,0.0,0.0,0.0,0.0,0.0,0.0,0.0,0.0,0.0,0.0,0.0,0.0,0.0,0.0,0.0,0.0,0.0,0.0,0.0,0.0,0.0,0.0,0.0,0.0,0.0,0.0,0.0,0.0,0.0,0.0,0.0,0.0,0.0,0.0,0.0,0.0,0.0,0.0,0.0,0.0,0.0,0.0,0.0,0.0,0.0,0.0,0.0,0.0,0.0,0.0,0.0,0.0,0.0,0.0,0.0,0.0,0.0,0.0,0.0,0.0,0.0,0.0,0.0,0.0,0.0,0.0,0.0,0.0,0.0,0.0,0.0,0.0,0.0,0.0,0.0,0.0,0.0,0.0,0.0,0.0,0.0,0.0,0.0,0.0,0.0,0.0,0.0,-3.9986,-4.0087,-3.9817,-3.9122,-3.9981,-4.0318,-3.962,-4.0527,-4.0781,0.0,0.0,0.0,0.0,0.0,0.0,0.0,0.0,0.0,0.0,0.0,0.0,0.0,0.0,0.0,0.0,0.0,0.0,0.0,0.0,0.0,0.0,0.0,0.0,0.0,0.0,0.0,0.0,0.0,0.0,0.0,0.0,0.0,0.0,0.0,0.0,0.0,0.0,0.0,0.0,0.0,0.0,0.0,0.0,0.0,0.0,0.0,0.0,0.0,0.0,0.0,0.0,0.0,0.0,0.0,0.0,0.0,0.0,0.0,0.0,0.0,0.0,0.0,0.0,0.0,0.0,0.0,0.0,0.0,0.0,0.0,0.0,0.0,0.0,0.0,0.0,0.0,0.0,0.0,0.0,0.0,0.0,0.0,0.0,0.0,0.0,0.0,0.0,0.0,0.0,0.0,0.0,0.0,0.0,0.0,0.0,0.0,0.0,0.0,0.0,0.0,0.0,0.0,-4.0054,-4.0087,-4.0349,-4.0882,-4.1243,-4.1675,-4.2268,-4.2114,-4.1846,-4.1625,0.0,0.0,0.0,0.0,0.0,0.0,0.0,0.0,0.0,0.0,0.0,0.0,0.0,0.0,0.0,0.0,0.0,0.0,0.0,0.0,0.0,0.0,0.0,0.0,0.0,0.0,0.0,0.0,0.0,0.0,0.0,0.0,0.0,0.0,0.0,0.0,0.0,0.0,0.0,0.0,0.0,0.0,0.0,0.0,0.0,0.0,0.0,0.0,0.0,0.0,0.0,0.0,0.0,0.0,0.0,0.0,0.0,0.0,0.0,0.0,0.0,0.0,0.0,0.0,0.0,0.0,0.0,0.0,0.0,0.0,0.0,0.0,0.0,0.0,0.0,0.0,0.0,0.0,0.0,0.0,0.0,0.0,0.0,0.0,0.0,0.0,0.0,0.0,0.0,0.0,0.0,0.0,0.0,0.0,0.0,0.0,0.0,0.0,0.0,0.0,0.0,0.0,-4.0087,-4.0087,-4.0368,-4.1013,-4.1331,-4.1817,-4.2734,-4.2596,-4.241,-4.2323,0.0,0.0,0.0,0.0,0.0,0.0,0.0,0.0,0.0,0.0,0.0,0.0,0.0,0.0,0.0,0.0,0.0,0.0,0.0,0.0,0.0,0.0,0.0,0.0,0.0,0.0,0.0,0.0,0.0,0.0,0.0,0.0,0.0,0.0,0.0,0.0,0.0,0.0,0.0,0.0,0.0,0.0,0.0,0.0,0.0,0.0,0.0,0.0,0.0,0.0,0.0,0.0,0.0,0.0,0.0,0.0,0.0,0.0,0.0,0.0,0.0,0.0,0.0,0.0,0.0,0.0,0.0,0.0,0.0,0.0,0.0,0.0,0.0,0.0,0.0,0.0,0.0,0.0,0.0,0.0,0.0,0.0,0.0,0.0,0.0,0.0,0.0,0.0,0.0,0.0,0.0,0.0,0.0,0.0,0.0,0.0,0.0,0.0,0.0,0.0,0.0,0.0,-4.0087,-4.0154,-4.0204,-4.0254,-4.0767,-4.1296,-4.1937,-4.2462,-4.2668,-4.2436,0.0,0.0,0.0,0.0,0.0,0.0,0.0,0.0,0.0,0.0,0.0,0.0,0.0,0.0,0.0,0.0,0.0,0.0,0.0,0.0,0.0,0.0,0.0,0.0,0.0,0.0,0.0,0.0,0.0,0.0,0.0,0.0,0.0,0.0,0.0,0.0,0.0,0.0,0.0,0.0,0.0,0.0,0.0,0.0,0.0,0.0,0.0,0.0,0.0,0.0,0.0,0.0,0.0,0.0,0.0,0.0,0.0,0.0,0.0,0.0,-4.0087,-4.0087,0.0,0.0,0.0,0.0,0.0,0.0,0.0,0.0,0.0,0.0,0.0,0.0,0.0,0.0,0.0,0.0,0.0,0.0,0.0,0.0,0.0,0.0,0.0,0.0,0.0,0.0,0.0,0.0,0.0,0.0,0.0,0.0,0.0,0.0,0.0,0.0,0.0,0.0,0.0,0.0,-4.0087,-4.0466,-4.092,-4.1375,-4.1937,-4.2541,-4.3105,-4.325,-4.3283,-4.324,-4.324,0.0,0.0,0.0,0.0,0.0,0.0,0.0,0.0,0.0,0.0,0.0,0.0,0.0,0.0,0.0,0.0,0.0,0.0,0.0,0.0,0.0,0.0,0.0,0.0,0.0,0.0,0.0,0.0,0.0,0.0,0.0,0.0,0.0,0.0,0.0,0.0,0.0,0.0,0.0,0.0,0.0,0.0,0.0,0.0,0.0,0.0,0.0,0.0,0.0,0.0,0.0,0.0,0.0,0.0,0.0,0.0,0.0,0.0,0.0,-4.0087,-4.0087,0.0,0.0,0.0,0.0,0.0,0.0,0.0,0.0,0.0,0.0,0.0,0.0,0.0,0.0,0.0,0.0,0.0,0.0,0.0,0.0,0.0,0.0,0.0,0.0,0.0,0.0,0.0,0.0,0.0,0.0,0.0,0.0,0.0,0.0,0.0,0.0,0.0,0.0,0.0,0.0,-4.0087,-4.0319,-4.0625,-4.0955,-4.1508,-4.1979,-4.223,-4.2772,-4.3142,-4.3142,-4.3356,0.0,0.0,0.0,0.0,0.0,0.0,0.0,0.0,0.0,0.0,0.0,0.0,0.0,0.0,0.0,0.0,0.0,0.0,0.0,0.0,0.0,0.0,0.0,0.0,0.0,0.0,0.0,0.0,0.0,0.0,0.0,0.0,0.0,0.0,0.0,0.0,0.0,0.0,0.0,0.0,0.0,0.0,0.0,0.0,0.0,0.0,0.0,0.0,0.0,0.0,0.0,0.0,0.0,-4.0223,-4.0257,-4.029,-4.0392,-4.046,-4.046,-4.046,-4.0324,-4.0087,-4.0087,0.0,0.0,0.0,0.0,0.0,0.0,0.0,0.0,0.0,0.0,0.0,0.0,0.0,0.0,0.0,0.0,0.0,0.0,0.0,0.0,0.0,0.0,-4.0087,-4.0087,-4.0087,-4.0087,-4.0087,0.0,0.0,0.0,0.0,0.0,0.0,0.0,0.0,0.0,0.0,0.0,-4.0087,-4.0154,-4.0303,-4.0368,-4.0874,-4.1251,-4.134,-4.2266,-4.2808,-4.2808,-4.325,-4.3497,0.0,0.0,0.0,0.0,0.0,0.0,0.0,0.0,0.0,0.0,0.0,0.0,0.0,0.0,0.0,0.0,0.0,0.0,0.0,0.0,0.0,0.0,0.0,0.0,0.0,0.0,0.0,0.0,0.0,0.0,0.0,0.0,-3.9662,-3.8962,0.0,0.0,0.0,0.0,0.0,0.0,0.0,0.0,0.0,0.0,0.0,0.0,0.0,-3.8908,-3.8908,-3.9016,-3.942,-4.0087,-4.073,-4.1068,-4.1068,-4.1711,-4.2016,-4.2016,-4.2016,0.0,-4.0087,-4.0087,0.0,0.0,0.0,0.0,0.0,0.0,0.0,0.0,0.0,0.0,0.0,0.0,0.0,0.0,0.0,0.0,0.0,0.0,0.0,0.0,0.0,0.0,-4.0087,-4.0087,-4.0087,-4.0087,-4.0087,-4.0087,-4.0087,-4.0087,-4.0087,-4.0087,0.0,0.0,0.0,0.0,0.0,0.0,-4.0087,-4.048,-4.1013,-4.1508,-4.2139,-4.2619,-4.3105,-4.3321,-4.3391,-4.3391,-4.3463,-4.3497,-4.3497,-4.3497,0.0,0.0,0.0,0.0,0.0,0.0,0.0,0.0,0.0,0.0,0.0,0.0,0.0,0.0,0.0,0.0,0.0,0.0,0.0,0.0,0.0,0.0,0.0,0.0,0.0,0.0,0.0,0.0,0.0,-3.961,-3.9765,-3.9016,-3.9315,-3.9454,0.0,0.0,0.0,0.0,0.0,0.0,0.0,0.0,0.0,-3.9558,-3.9553,-3.9785,-4.0194,-4.0562,-4.1009,-4.1339,-4.1644,-4.1813,-4.1813,-4.2151,-4.2286,-4.2286,-4.2286,-4.1914,-4.1339,-4.1339,-4.1339,-4.1339,0.0,0.0,0.0,0.0,-4.1339,-4.1339,-4.1339,-4.1339,-4.1339,-4.1339,0.0,0.0,0.0,0.0,0.0,0.0,0.0,-4.0087,0.0,0.0,-4.0087,-4.0087,-4.0087,-4.0087,-4.0087,-4.0087,-4.0087,-4.0087,-4.0087,-4.0087,-4.0087,-4.0087,0.0,0.0,0.0,-4.0087,-4.0087,-4.0303,-4.0672,-4.1206,-4.1853,-4.2302,-4.2505,-4.3142,-4.3356,-4.3069,-4.3321,-4.3497,-4.3497,-4.3497,-4.3497,0.0,0.0,0.0,0.0,0.0,0.0,0.0,0.0,0.0,0.0,0.0,0.0,0.0,0.0,0.0,0.0,0.0,0.0,0.0,0.0,0.0,0.0,0.0,0.0,0.0,0.0,0.0,0.0,-3.9714,-3.9901,-3.9262,-3.9558,-3.9765,0.0,0.0,0.0,0.0,0.0,0.0,-3.9171,-3.8874,-3.9303,-4.0629,-4.0662,-4.0963,-4.1474,-4.2016,-4.2286,-4.2286,-4.2489,-4.2591,-4.2591,-4.2794,-4.2861,-4.2861,-4.2861,-4.2861,-4.2861,-4.2455,-4.2286,-4.2286,-4.2286,-4.2286,-4.2286,-4.2286,-4.2286,-4.2286,-4.2286,-4.2286,-4.2286,-4.2286,-4.2286,-4.2185,-4.1644,0.0,0.0,0.0,0.0,-4.0595,-4.0426,-4.0358,-4.0324,-4.0121,-4.0087,-4.0087,-4.0087,-4.0087,-4.0087,-4.0087,-4.0087,-4.0087,-4.0087,-4.0087,0.0,-4.0087,-4.0087,-4.0087,-4.0087,-4.0087,-4.0303,-4.0874,-4.1429,-4.1853,-4.2021,-4.2958,-4.3321,-4.2921,-4.3286,-4.3497,-4.3497,-4.3497,-4.3497,-4.3497,0.0,0.0,0.0,0.0,0.0,0.0,0.0,0.0,0.0,0.0,0.0,0.0,0.0,0.0,0.0,0.0,0.0,0.0,0.0,0.0,0.0,0.0,0.0,0.0,0.0,0.0,0.0,0.0,0.0,-4.0003,-3.9368,0.0,0.0,0.0,0.0,-3.7937,-3.9209,-4.005,-4.004,-4.0682,-4.1422,-4.2151,-4.2219,-4.2219,-4.2219,-4.2286,-4.2286,-4.2286,-4.3031,-4.3369,-4.3403,-4.4113,-4.4451,-4.4451,-4.4451,-4.4451,-4.435,-4.2895,-4.2286,-4.2286,-4.2286,-4.2286,-4.2286,-4.2286,-4.2286,-4.2286,-4.2286,-4.2286,-4.2286,-4.2286,-4.2286,-4.2286,-4.2252,-4.2219,0.0,0.0,-4.2185,-4.2016,-4.1339,-4.1136,-4.0967,-4.0257,-4.0087,-4.0087,-4.0087,-4.0087,-4.0087,-4.0087,-4.0087,-4.0087,-4.0087,0.0,-4.0087,-4.0087,-4.0087,-4.0087,-4.0087,-4.0087,-4.0303,-4.0874,-4.1429,-4.2021,-4.2616,-4.3178,-4.3497,-4.3463,-4.3497,-4.3497,-4.3497,-4.3497,-4.3497,-4.3497,-4.3497,0.0,0.0,0.0,0.0,0.0,0.0,0.0,0.0,0.0,0.0,0.0,0.0,0.0,0.0,0.0,0.0,0.0,0.0,0.0,0.0,0.0,0.0,0.0,0.0,0.0,0.0,0.0,0.0,-4.0087,-3.985,0.0,-3.9662,-4.0098,-4.0261,-3.9993,-4.0942,-4.1504,-4.1527,-4.1774,-4.2016,-4.2286,-4.276,-4.3031,-4.3031,-4.3504,-4.3775,-4.3775,-4.4045,-4.4181,-4.4181,-4.4451,-4.4587,-4.4587,-4.4587,-4.4587,-4.4553,-4.3978,-4.3775,-4.3775,-4.3775,-4.3775,-4.3775,-4.3775,-4.3775,-4.3775,-4.3775,-4.3775,-4.3775,-4.3775,-4.3436,-4.3031,-4.3031,-4.2692,-4.2286,-4.2286,-4.2286,-4.2219,-4.1982,-4.1914,-4.1847,-4.1576,-4.1508,-4.1508,-4.1508,-4.1136,-4.0798,-4.0798,-4.0392,-4.0087,-4.0087,-4.0087,-4.0087,-4.0087,-4.0087,-4.0087,-4.0087,-4.0087,-4.0303,-4.0874,-4.107,-4.1508,-4.2062,-4.2306,-4.258,-4.2958,-4.2995,-4.3142,-4.3497,-4.3497,-4.3497,-4.3497,-4.3497,-4.3497,0.0,0.0,0.0,0.0,0.0,0.0,0.0,0.0,0.0,0.0,0.0,0.0,0.0,0.0,0.0,0.0,0.0,0.0,0.0,0.0,0.0,0.0,0.0,0.0,0.0,-4.0087,-4.0155,-4.0426,-4.046,-4.0561,-4.0798,-4.1271,-4.1576,-4.1576,-4.2016,-4.2388,-4.2658,-4.2658,-4.2794,-4.3064,-4.3538,-4.3809,-4.3809,-4.4316,-4.4587,-4.4587,-4.4587,-4.4587,-4.4587,-4.4587,-4.4722,-4.4959,-4.4959,-4.5094,-4.5331,-4.5331,-4.5331,-4.5263,-4.4756,-4.4587,-4.4587,-4.4587,-4.4587,-4.4587,-4.4587,-4.4587,-4.4587,-4.4587,-4.4215,-4.3809,-4.3809,-4.347,-4.3064,-4.3064,-4.3064,-4.2997,-4.2726,-4.2658,-4.2625,-4.2354,-4.2286,-4.2286,-4.2286,-4.1914,-4.1576,-4.1576,-4.0764,-4.0087,-4.0087,-4.0087,-4.0087,-4.0087,-4.0087,-4.0087,-4.0087,-4.0087,-4.0254,-4.0577,-4.0967,-4.1251,-4.1473,-4.2062,-4.2462,-4.2693,-4.2846,-4.3142,-4.3497,-4.3497,-4.3497,-4.3497,-4.3497,-4.3497,-4.3497,0.0,0.0,0.0,0.0,0.0,0.0,0.0,0.0,0.0,0.0,0.0,0.0,0.0,0.0,0.0,0.0,0.0,0.0,0.0,0.0,0.0,0.0,0.0,-4.0223,-4.0121,-4.0426,-4.1136,-4.1238,-4.1508,-4.2219,-4.232,-4.232,-4.232,-4.2354,-4.2692,-4.3403,-4.347,-4.3809,-4.4553,-4.4587,-4.4587,-4.4587,-4.4587,-4.4587,-4.4621,-4.4621,-4.4621,-4.4654,-4.4654,-4.506,-4.5737,-4.5737,-4.6143,-4.6786,-4.6786,-4.6786,-4.665,-4.5196,-4.4654,-4.4654,-4.4654,-4.4654,-4.4654,-4.4654,-4.4654,-4.4654,-4.4621,-4.4621,-4.4621,-4.4587,-4.4587,-4.4587,-4.4587,-4.4587,-4.4418,-4.3639,-4.347,-4.3267,-4.2523,-4.2354,-4.2354,-4.2354,-4.2354,-4.232,-4.232,-4.1136,-4.0155,-4.0155,-4.0121,-4.0121,-4.0121,-4.0087,0.0,-4.0087,-4.0087,-4.0087,-4.0087,-4.1105,-4.1516,-4.0967,-4.2465,-4.3214,-4.2693,-4.3178,-4.3463,-4.3497,-4.3497,-4.3497,-4.3497,-4.3497,-4.3497,-4.3497,0.0,0.0,0.0,0.0,0.0,0.0,0.0,0.0,0.0,0.0,0.0,0.0,0.0,0.0,0.0,0.0,0.0,0.0,0.0,0.0,0.0,-4.1847,-4.1745,-4.1001,-4.1339,-4.1745,-4.1982,-4.1982,-4.2083,-4.2286,-4.2794,-4.3098,-4.3098,-4.3639,-4.4045,-4.4248,-4.4248,-4.435,-4.4587,-4.4587,-4.4587,-4.4587,-4.4587,-4.4857,-4.5399,-4.5399,-4.5669,-4.6177,-4.6177,-4.6312,-4.6481,-4.6481,-4.6616,-4.6786,-4.6786,-4.6786,-4.6752,-4.6346,-4.6177,-4.6177,-4.6177,-4.6177,-4.6177,-4.6177,-4.6177,-4.6109,-4.5568,-4.5399,-4.5297,-4.4756,-4.4587,-4.4587,-4.4587,-4.4587,-4.4519,-4.4316,-4.4248,-4.4215,-4.4012,-4.3944,-4.3944,-4.3944,-4.3504,-4.3098,-4.3098,-4.2354,-4.1677,-4.1677,-4.1238,-4.0899,-4.0899,-4.0426,-4.0087,-4.0087,-4.0087,-4.0087,-4.0087,-4.072,-4.092,-4.0368,-4.1115,-4.1732,-4.2021,-4.2185,-4.2657,-4.3497,-4.3497,-4.3497,-4.3497,-4.3497,-4.3497,0.0,0.0,0.0,0.0,0.0,0.0,0.0,0.0,0.0,0.0,0.0,0.0,0.0,0.0,0.0,0.0,0.0,0.0,0.0,0.0,0.0,0.0,-4.2557,-4.2625,-4.2185,-4.2219,-4.2388,-4.2726,-4.276,-4.2895,-4.3234,-4.3639,-4.391,-4.391,-4.4316,-4.4587,-4.4587,-4.4587,-4.4587,-4.4587,-4.4587,-4.4722,-4.506,-4.506,-4.5432,-4.6143,-4.6143,-4.638,-4.6786,-4.6786,-4.6955,-4.7259,-4.7259,-4.7428,-4.7699,-4.7699,-4.7699,0.0,0.0,0.0,0.0,0.0,-4.6786,-4.6786,-4.6786,-4.6786,-4.6718,-4.6312,-4.6143,-4.6075,-4.5635,-4.5297,-4.506,-4.506,-4.4823,-4.4587,-4.4587,-4.4587,-4.4587,-4.4587,-4.4587,-4.4587,-4.4587,-4.4215,-4.391,-4.391,-4.3538,0.0,-4.3234,-4.2354,-4.1644,-4.1644,-4.1305,-4.1001,-4.1001,-4.073,-4.0561,-4.0561,-4.0748,-4.078,-4.0466,-4.1196,0.0,0.0,0.0,-4.281,-4.3497,-4.3497,0.0,0.0,0.0,-4.3497,-4.3497,-4.3497,0.0,0.0,-4.3277,-4.324,0.0,0.0,0.0,0.0,0.0,0.0,0.0,0.0,0.0,0.0,0.0,0.0,0.0,0.0,0.0,0.0,-4.3098,-4.3538,-4.3538,-4.2963,-4.2794,-4.347,-4.3538,-4.3809,-4.4519,-4.4587,-4.4587,-4.4587,-4.4587,-4.4587,-4.4587,-4.4654,0.0,0.0,0.0,-4.5162,-4.5838,-4.5838,-4.6177,-4.6921,-4.6921,-4.6955,-4.7056,-4.7056,-4.7394,-4.8037,-4.8037,-4.8409,-4.9018,-4.9018,-4.9018,-4.8883,-4.7564,-4.7056,-4.7056,-4.7056,-4.7056,-4.7056,-4.7056,0.0,0.0,-4.6955,-4.6921,-4.6921,-4.6819,-4.6346,-4.5838,-4.5838,-4.5297,-4.4688,-4.4688,-4.4654,-4.4587,-4.4587,-4.4587,-4.4587,-4.4587,-4.4587,-4.4587,-4.4587,-4.4587,-4.4587,-4.4587,-4.3369,-4.2422,-4.2422,-4.2354,-4.2286,-4.2286,-4.1745,-4.1339,-4.1339,-4.1229,0.0,-4.0965,-4.1995,-4.2609,-4.2616,-4.3178,-4.3497,-4.3497,-4.3497,-4.3497,-4.3497,-4.3497,-4.3497,-4.3497,-4.3497,-4.3497,-4.3497,-4.3497,-4.3497,0.0,0.0,0.0,0.0,0.0,0.0,0.0,0.0,0.0,0.0,0.0,0.0,0.0,0.0,0.0,-4.4045,-4.4248,-4.435,-4.435,-4.4248,-4.4181,-4.435,-4.435,-4.4418,-4.4553,-4.4587,-4.4587,-4.4587,-4.4587,-4.4587,-4.4587,-4.5162,-4.55,-4.55,-4.6041,-4.6413,-4.6583,-4.6583,-4.6955,-4.7699,0.0,0.0,-4.8578,-4.8578,-4.8646,-4.8781,-4.8781,-4.8883,-4.9018,-4.9018,-4.9018,-4.8984,-4.868,-4.8578,-4.8578,-4.8578,-4.8578,-4.8578,-4.8578,-4.8578,-4.8477,-4.7902,-4.7699,-4.7597,-4.6989,-4.6684,0.0,-4.6583,-4.6041,-4.55,-4.55,-4.5026,-4.4587,-4.4587,-4.4587,-4.4587,-4.4587,-4.4587,-4.4587,-4.4587,-4.4587,-4.4587,-4.4587,-4.3809,-4.32,-4.32,-4.2692,-4.2286,-4.2286,-4.2185,-4.2083,-4.2083,-4.2499,-4.2305,-4.1257,-4.1795,-4.2166,-4.1973,-4.2922,-4.3497,-4.3497,-4.3497,-4.3497,-4.3497,-4.3497,-4.3497,-4.3497,-4.3497,-4.3497,-4.3497,-4.3497,-4.3497,0.0,0.0,0.0,0.0,0.0,0.0,0.0,0.0,0.0,0.0,0.0,-4.3538,-4.3944,0.0,-4.4113,-4.4519,-4.4587,-4.4587,-4.4587,-4.4587,-4.4587,-4.4587,-4.4587,-4.4587,-4.4587,-4.4587,-4.4587,-4.4587,-4.4925,-4.5128,-4.5128,-4.5838,-4.6244,-4.6244,-4.6616,-4.6989,-4.7361,-4.7361,-4.7733,-4.8477,-4.8477,-4.8646,-4.9018,-4.9018,-4.9018,-4.9018,-4.9018,-4.9018,-4.9018,-4.9018,-4.9018,-4.9018,-4.9018,-4.9018,-4.9018,-4.9018,-4.9018,-4.9018,-4.9018,-4.9018,-4.8951,-4.8578,-4.8477,-4.8376,-4.8003,-4.7631,-4.7361,-4.7361,-4.6819,-4.6244,-4.6244,-4.5703,-4.5128,-4.5128,-4.4857,-4.4587,-4.4587,-4.4587,-4.4587,-4.4587,-4.4587,-4.4587,-4.4587,-4.4248,-4.4012,-4.4012,-4.3673,-4.3436,-4.3436,-4.3098,-4.2861,-4.2861,-4.2807,-4.2638,-4.2261,-4.2684,-4.3052,-4.3231,-4.3433,-4.3497,-4.3497,-4.3497,-4.3497,-4.3497,-4.3497,-4.3497,-4.3497,-4.3497,-4.3497,-4.3497,-4.3497,-4.3497,0.0,0.0,0.0,0.0,0.0,0.0,0.0,-4.32,-4.3639,-4.3639,-4.4147,-4.4587,-4.4587,-4.4587,-4.4587,-4.4587,-4.4587,-4.4587,-4.4587,-4.4587,-4.4621,-4.479,-4.4688,-4.4587,-4.4587,-4.4722,-4.479,-4.479,-4.55,-4.5906,-4.5906,-4.6616,-4.7022,-4.7022,-4.7158,-4.7496,-4.8139,-4.8139,-4.8409,-4.9018,-4.9018,-4.9018,-4.9018,-4.9018,-4.9018,-4.9018,-4.9018,-4.9018,-4.9018,-4.9018,-4.9018,-4.9018,-4.9018,-4.9018,-4.9018,-4.9018,-4.9018,-4.9018,-4.9018,-4.9018,-4.9018,-4.9018,-4.9018,-4.9018,-4.9018,-4.8612,-4.8139,-4.8139,-4.7597,-4.7022,-4.7022,-4.6481,-4.5906,-4.5906,-4.5331,-4.479,-4.479,-4.4688,-4.4587,-4.4587,-4.4587,-4.4587,-4.4587,-4.4587,-4.4587,-4.4587,-4.4587,-4.4587,-4.4587,-4.4045,-4.3639,-4.3639,-4.3098,-4.2925,-4.3385,-4.3696,-4.414,-4.4748,-4.4123,-4.3718,-4.3718,-4.3571,-4.3497,-4.3497,-4.3497,-4.3497,-4.3497,-4.3497,-4.3497,-4.3497,-4.3497,-4.3497,-4.2489,-4.2286,-4.2455,-4.3132,-4.3301,-4.347,0.0,-4.4384,-4.4451,-4.4451,-4.4519,-4.4587,-4.4587,-4.4587,-4.4587,-4.4587,-4.4587,-4.4587,-4.4587,-4.4587,-4.4823,-4.55,-4.4993,-4.4587,-4.4587,-4.5196,-4.5568,-4.5568,-4.6244,-4.6684,-4.6684,-4.7394,-4.78,-4.78,-4.8409,-4.8781,-4.8883,-4.8883,-4.8917,-4.9018,-4.9018,-4.9018,-4.9018,-4.9018,-4.9018,-4.9018,-4.9018,-4.9018,-4.9018,-4.9018,-4.9018,-4.9018,-4.9018,-4.9018,-4.9018,-4.9018,-4.9018,-4.9018,-4.9018,-4.9018,-4.9018,-4.9018,-4.9018,-4.9018,-4.9018,-4.8951,-4.8883,-4.8883,-4.8376,-4.78,-4.78,-4.7225,-4.6684,-4.6684,-4.6109,-4.5568,-4.5568,-4.506,-4.4587,-4.4587,-4.4587,-4.4587,-4.4587,-4.4587,-4.4587,-4.4587,-4.4587,-4.4587,-4.4587,-4.4485,-4.4451,-4.4451,-4.4384,-4.434,-4.4281,-4.4109,-4.4357,-4.5015,-4.4748,-4.4562,-4.4562,-4.3864,-4.3497,-4.3497,-4.3497,-4.3497,-4.3497,-4.3497,-4.3497,-4.3497,-4.3497,-4.3497,-4.3707,-4.3639,-4.3707,-4.4012,-4.4079,-4.4181,-4.4485,-4.4587,-4.4587,-4.4587,-4.4587,-4.4587,-4.4587,-4.4587,-4.4587,-4.4587,-4.4587,-4.4722,-4.5162,-4.5229,-4.55,-4.6244,-4.6075,-4.5872,-4.5872,-4.6143,-4.6346,-4.6346,-4.7022,-4.7462,-4.7462,-4.8139,-4.8545,-4.8545,-4.8849,-4.9018,-4.9018,-4.9018,-4.9018,-4.9018,-4.9018,-4.9018,-4.9018,-4.9018,-4.9018,-4.9018,-4.9018,-4.9018,-4.9018,-4.9018,-4.9018,-4.9018,-4.9018,-4.9018,-4.9018,-4.9018,-4.9018,-4.9018,-4.9018,-4.9018,-4.9018,-4.9018,-4.9018,-4.9018,-4.9018,-4.9018,-4.9018,-4.9018,-4.8781,-4.8545,-4.8545,-4.8003,-4.7462,-4.7462,-4.6887,-4.621,-4.5805,-4.5466,-4.5094,-4.4654,-4.4587,-4.4587,-4.4587,-4.4587,-4.4587,-4.4587,-4.4587,-4.4587,-4.4587,-4.4587,-4.4587,-4.4587,-4.4587,-4.4878,-4.5509,-4.5059,-4.5186,-4.6202,-4.5736,-4.5406,-4.5406,-4.4635,-4.4195,-4.4195,-4.3718,-4.3497,-4.3497,-4.3497,-4.3497,-4.3497,-4.3497,-4.3497,-4.4587,-4.4587,-4.4587,-4.4587,-4.4587,-4.4587,-4.4587,-4.4587,-4.4587,-4.4587,-4.4587,-4.4587,-4.4587,-4.4587,-4.4654,-4.4857,-4.4891,-4.5162,-4.5906,-4.6007,-4.6278,-4.7022,-4.709,-4.7192,-4.7394,-4.7225,-4.709,-4.709,-4.78,-4.8206,-4.8206,-4.8714,-4.9018,-4.9018,-4.9018,-4.9018,-4.9018,-4.9018,-4.9018,-4.9018,-4.9018,-4.9018,-4.9018,-4.9221,-4.9289,-4.9323,-4.9526,-4.9627,-4.9627,-4.9627,-4.9627,-4.9627,-4.9627,-4.9627,-4.9627,-4.9627,-4.9357,-4.9018,-4.9018,-4.9018,-4.9018,-4.9018,-4.9018,-4.9018,-4.9018,-4.9018,-4.9018,-4.9018,-4.9018,-4.9018,-4.9018,-4.8612,-4.8206,-4.8206,-4.7631,-4.6955,-4.6413,-4.6007,-4.5534,-4.4993,-4.4722,-4.4587,-4.4587,-4.4587,-4.4587,-4.4587,-4.4587,-4.4587,-4.4587,-4.4587,-4.4587,-4.4587,-4.4587,-4.5089,-4.6305,-4.587,-4.6096,-4.7349,-4.6691,-4.625,-4.625,-4.548,-4.5039,-4.5039,-4.4232,-4.3828,-4.3828,-4.3608,-4.3497,-4.3497,-4.3497,-4.3497,-4.4587,-4.4587,-4.4587,-4.4587,-4.4587,-4.4587,-4.4587,-4.4587,-4.4587,-4.4587,-4.4587,-4.4587,-4.4587,-4.4587,-4.4823,-4.5534,-4.5669,-4.594,-4.665,-4.6752,-4.7056,-4.78,-4.7902,-4.8173,-4.8849,-4.8308,-4.7902,-4.7902,-4.8545,-4.8984,-4.8984,-4.8984,-4.9018,-4.9018,-4.9018,-4.9018,-4.9018,-4.9018,-4.9018,-4.9018,-4.9018,-4.9018,-4.9018,-4.9729,-5.0067,-5.0101,-5.0845,-5.115,-5.115,-5.115,-5.115,-5.115,-5.115,-5.115,-5.115,-5.115,-5.0236,-4.9018,-4.9018,-4.9018,-4.9018,-4.9018,-4.9018,-4.9018,-4.9018,-4.9018,-4.9018,-4.9018,-4.9018,-4.9018,-4.9018,-4.8984,-4.8984,-4.8984,-4.8409,-4.7868,-4.7868,-4.6718,-4.5703,-4.5669,-4.5094,-4.4587,-4.4587,-4.4587,-4.4587,-4.4587,-4.4587,-4.4587,-4.4587,-4.4587,-4.4587,-4.4587,-4.4587,-4.5089,-4.6305,-4.6365,-4.6919,-4.8192,-4.7535,-4.7095,-4.7095,-4.6287,-4.5847,-4.5847,-4.5076,-4.4672,-4.4672,-4.3864,-4.3497,-4.3497,-4.3497,-4.3497,-4.4587,-4.4587,-4.4587,-4.4587,-4.4587,-4.4587,-4.4587,-4.4587,-4.4587,-4.4587,-4.4993,-4.5331,-4.5331,-4.5737,-4.6143,-4.638,-4.6413,-4.6684,-4.7428,-4.753,-4.78,-4.8545,-4.8646,-4.8748,-4.8984,-4.8781,-4.8646,-4.8646,-4.8849,-4.9018,-4.9018,-4.9018,-4.9018,-4.9018,-4.9018,-4.9018,-4.9018,-4.9018,-4.9255,-4.9729,-5.0236,-5.0473,-5.0473,-5.0744,-5.0845,-5.0845,-5.1116,-5.1217,-5.1217,-5.1217,-5.1217,-5.1217,-5.1217,-5.1217,-5.1217,-5.1217,-5.0913,-5.0405,-4.9898,-4.9729,-4.9627,-4.9154,-4.9018,-4.9018,-4.9018,-4.9018,-4.9018,-4.9018,-4.9018,-4.9018,-4.9018,-4.9018,-4.9018,-4.9018,-4.8815,-4.8511,-4.8037,-4.753,-4.7022,-4.6515,-4.621,-4.5906,-4.5399,-4.5331,-4.5162,-4.4654,-4.4587,-4.4587,-4.4587,-4.4587,-4.4587,-4.4587,-4.4587,-4.5089,-4.6305,-4.6365,-4.6955,-4.8229,-4.8049,-4.7902,-4.7902,-4.7131,-4.6728,-4.6728,-4.592,-4.5516,-4.5516,-4.5223,-4.5076,-4.5076,-4.5076,-4.5076,-4.4587,-4.4587,-4.4587,-4.4587,-4.4587,-4.4587,-4.4587,-4.4587,-4.4587,-4.4587,-4.5196,-4.5703,-4.5703,-4.6312,-4.6887,-4.7158,-4.7192,-4.7462,-4.8206,-4.8308,-4.8477,-4.8951,-4.9018,-4.9018,-4.9018,-4.9018,-4.9018,-4.9018,-4.9018,-4.9018,-4.9018,-4.9018,-4.9018,-4.9018,-4.9018,-4.912,-4.939,-4.939,-4.9763,-5.0507,-5.098,-5.1217,-5.1217,-5.1488,-5.1589,-5.1623,-5.1928,-5.2029,-5.2029,-5.2029,-5.2029,-5.2029,-5.2029,-5.2029,-5.2029,-5.2029,-5.2029,-5.1894,-5.0845,-5.0304,-4.9999,-4.956,-4.9221,-4.9018,-4.9018,-4.9018,-4.9018,-4.9018,-4.9018,-4.9018,-4.9018,-4.9018,-4.9018,-4.9018,-4.9018,-4.8883,-4.8409,-4.8105,-4.7767,-4.7293,-4.6989,-4.665,-4.6177,-4.6075,-4.594,-4.5432,-4.5162,-4.4891,-4.4621,-4.4587,-4.4665,-4.4906,-4.4906,-4.5425,-4.6682,-4.6774,-4.7176,-4.8229,-4.8306,-4.8306,-4.8306,-4.7792,-4.7535,-4.7535,-4.6764,-4.6324,-4.6324,-4.603,-4.5883,-4.5883,-4.5883,-4.5883,-4.4587,-4.4587,-4.4587,-4.4587,-4.4587,-4.4587,-4.4587,-4.4621,-4.4654,-4.4654,-4.5263,-4.5805,-4.5805,-4.6413,-4.7124,-4.7868,-4.797,-4.8206,-4.8917,-4.9018,-4.9018,-4.9018,-4.9018,-4.9018,-4.9018,-4.9018,-4.9018,-4.9018,-4.9018,-4.9018,-4.9018,-4.9018,-4.9018,-4.9052,-4.9052,-4.9424,-5.0135,-5.0168,-5.0574,-5.1285,-5.1319,-5.1352,-5.1352,-5.2063,-5.2367,-5.2401,-5.3179,-5.3518,-5.3518,-5.3518,-5.3518,-5.3518,-5.3518,-5.3518,-5.3518,-5.3518,-5.3518,-5.3281,-5.1826,-5.0845,-5.0202,-5.0101,-4.9627,-4.9052,-4.9018,-4.9018,-4.9018,-4.9018,-4.9018,-4.9018,-4.9018,-4.9018,-4.9018,-4.9018,-4.9018,-4.9018,-4.9018,-4.8477,-4.797,-4.797,-4.7361,-4.6853,-4.6853,-4.6819,-4.6786,-4.6786,-4.621,-4.55,-4.4722,-4.4587,-4.4797,-4.5477,-4.5494,-4.6014,-4.7299,-4.7385,-4.7674,-4.8267,-4.8306,-4.8306,-4.8306,-4.8306,-4.8306,-4.8306,-4.7572,-4.7168,-4.7168,-4.6397,-4.603,-4.603,-4.603,-4.603,-4.4587,-4.4587,-4.4587,-4.4587,-4.4587,-4.4587,-4.4587,-4.5026,-4.5432,-4.5432,-4.6447,-4.7361,-4.7361,-4.7936,-4.8511,-4.8714,-4.8714,-4.8781,-4.8984,-4.9018,-4.9018,-4.9018,-4.9018,-4.9018,-4.9018,-4.9018,-4.9018,-4.9018,-4.9018,-4.9018,-4.9018,-4.9018,-4.9255,-4.9796,-4.983,-5.0168,-5.0913,-5.1454,-5.1826,-5.2029,-5.2638,-5.2909,-5.2942,-5.3112,-5.3179,-5.3213,-5.3416,-5.3518,-5.3518,-5.3518,-5.3518,-5.3518,-5.3518,-5.3518,-5.3518,-5.3518,-5.3518,-5.345,-5.3044,-5.2401,-5.1555,-5.0439,-4.9965,-4.9729,-4.9187,-4.9018,-4.9018,-4.9018,-4.9018,-4.9018,-4.9018,-4.9018,-4.9018,-4.9018,-4.9018,-4.9018,-4.9018,-4.8849,-4.8714,-4.8714,-4.8139,-4.7631,-4.7631,-4.7158,-4.6786,-4.6786,-4.6616,-4.6244,-4.55,-4.4925,-4.4797,-4.5477,-4.5494,-4.6014,-4.7299,-4.7385,-4.7674,-4.8267,-4.8306,-4.8306,-4.8306,-4.8306,-4.8306,-4.8306,-4.8122,-4.8012,-4.8012,-4.7792,-4.7682,-4.7682,-4.7682,-4.7682,-4.4587,-4.4587,-4.4587,-4.4587,-4.4587,-4.4654,-4.4993,-4.5399,-4.5805,-4.6109,-4.7124,-4.7936,-4.7936,-4.8511,-4.9018,-4.9018,-4.9018,-4.9018,-4.9018,-4.9018,-4.9018,-4.9018,-4.9018,-4.9018,-4.9018,-4.9018,-4.9018,-4.9018,-4.9018,-4.9018,-4.9018,-4.9323,-4.9661,-5.0067,-5.0405,-5.0947,-5.1691,-5.2435,-5.2841,-5.2841,-5.3281,-5.3518,-5.3518,-5.3518,-5.3518,-5.3518,-5.3518,-5.3518,-5.3518,-5.3518,-5.3518,-5.3518,-5.3518,-5.3518,-5.3518,-5.3518,-5.3518,-5.3518,-5.3518,-5.3213,-5.257,-5.1082,-5.0371,-4.9965,-4.9221,-4.9018,-4.9018,-4.9018,-4.9018,-4.9018,-4.9018,-4.9018,-4.9018,-4.9018,-4.9018,-4.9018,-4.9018,-4.9018,-4.9018,-4.9018,-4.868,-4.8376,-4.8376,-4.8037,-4.7767,-4.7767,-4.7496,-4.7124,-4.6718,-4.6007,-4.5784,-4.6393,-4.6446,-4.6835,-4.7803,-4.7814,-4.7955,-4.8267,-4.8306,-4.8306,-4.8306,-4.8306,-4.8306,-4.8306,-4.8306,-4.8306,-4.8306,-4.8306,-4.8306,-4.8306,-4.8306,-4.8306,-4.4587,-4.4587,-4.4587,-4.4587,-4.4654,-4.4891,-4.5568,-4.5872,-4.6177,-4.6819,-4.753,-4.8071,-4.8071,-4.8578,-4.9018,-4.9018,-4.9018,-4.9018,-4.9018,-4.9018,-4.9018,-4.9018,-4.9018,-4.9018,-4.9018,-4.9018,-4.9052,-4.9154,-4.9154,-4.9154,-4.9154,-4.9729,-5.0168,-5.0371,-5.1116,-5.1826,-5.2469,-5.3145,-5.3518,-5.3518,-5.3518,-5.3518,-5.3518,-5.3518,-5.3518,-5.3518,-5.3518,-5.3518,-5.3518,-5.3518,-5.3518,-5.3518,-5.3518,-5.3518,-5.3518,-5.3518,-5.3518,-5.3518,-5.3518,-5.3518,-5.3281,-5.1826,-5.0845,-5.0101,-4.9357,-4.9086,-4.9018,-4.9018,-4.9018,-4.9018,-4.9018,-4.9018,-4.9018,-4.9018,-4.9018,-4.9018,-4.9018,-4.9018,-4.9018,-4.9018,-4.9018,-4.9018,-4.9018,-4.9018,-4.9018,-4.9018,-4.8477,-4.8071,-4.8071,-4.7327,-4.7043,-4.7617,-4.7732,-4.8034,-4.8587,-4.8575,-4.8489,-4.8489,-4.8379,-4.8306,-4.8306,-4.8306,-4.8306,-4.8306,-4.8306,-4.8306,-4.8306,-4.8306,-4.8306,-4.8306,-4.8306,-4.8306,-4.4587,-4.4587,-4.4587,-4.4587,-4.506,-4.5534,-4.5669,-4.665,-4.7564,-4.7699,-4.8308,-4.8815,-4.8815,-4.8917,-4.9018,-4.9018,-4.9018,-4.9018,-4.9018,-4.9018,-4.9018,-4.9018,-4.9018,-4.9018,-4.9018,-4.9018,-4.9255,-4.9864,-4.9898,-4.9898,-4.9898,-5.0033,-5.0642,-5.1894,-5.2706,-5.3179,-5.3281,-5.345,-5.3518,-5.3518,-5.3518,-5.3518,-5.3518,-5.3518,-5.3518,-5.3518,-5.3518,0.0,-5.3518,-5.3518,-5.3518,-5.3518,-5.3518,-5.3518,-5.3518,-5.3518,-5.3518,-5.3518,-5.3518,-5.3518,-5.3348,-5.2401,-5.1623,-5.0879,-5.0135,-4.9492,-4.9018,-4.9018,-4.9018,-4.9018,-4.9018,-4.9018,-4.9018,-4.9018,-4.9018,-4.9018,-4.9018,-4.9018,-4.9018,-4.9018,-4.9018,-4.9018,-4.9018,-4.9018,-4.9018,-4.9018,-4.8883,-4.8815,-4.8815,-4.7631,-4.7043,-4.7617,-4.8275,-4.8816,-4.946,-4.9414,-4.937,-4.937,-4.871,-4.8306,-4.8306,-4.8306,-4.8306,-4.8306,-4.8306,-4.8306,-4.8306,-4.8306,-4.8306,-4.8306,-4.8306,-4.8306,-4.4587,-4.4587,-4.4688,-4.506,-4.5432,-4.5906,-4.6684,0.0,0.0,-4.8409,-4.8748,-4.9018,-4.9018,-4.9018,-4.9018,-4.9018,-4.9018,-4.9018,-4.9018,-4.9018,-4.9018,-4.9018,-4.9018,-4.9018,-4.9018,-4.9018,-4.9323,-5.0033,-5.0101,-5.027,-5.0642,-5.1048,-5.1758,-5.2875,-5.3315,-5.3518,-5.3518,-5.3518,-5.3518,-5.3518,-5.3518,-5.3518,-5.3518,-5.3518,-5.3518,-5.3518,-5.3518,-5.3518,-5.3518,-5.3518,-5.3518,-5.3518,-5.3518,-5.3518,-5.3518,-5.3518,-5.3518,-5.3518,-5.3518,-5.3518,-5.345,-5.3044,-5.2164,-5.1082,-5.0304,-4.9593,-4.9018,-4.9018,-4.9018,-4.9018,-4.9018,-4.9018,-4.9018,-4.9018,-4.9018,-4.9018,-4.9018,-4.9018,-4.9018,-4.9018,-4.9018,-4.9018,-4.9018,-4.9018,-4.9018,-4.9018,-4.9018,-4.9018,-4.9018,-4.8376,-4.8056,-4.8343,-4.8958,-4.9487,-4.9781,-5.0083,-5.0215,-5.0215,-4.9444,-4.8967,-4.8967,-4.8526,-4.8306,-4.8306,-4.8306,-4.8306,-4.8306,-4.8306,-4.8306,-4.8306,-4.8306,-4.8306,-4.4587,-4.4587,-4.4756,-4.5534,-4.5838,-4.6278,-4.7631,-4.8037,-4.8308,-4.8883,-4.9018,-4.9018,-4.9018,-4.9018,-4.9018,-4.9018,-4.9018,-4.9018,-4.9018,-4.9018,-4.9018,-4.9018,-4.9018,-4.9018,-4.9018,-4.9154,-4.9526,-5.027,-5.0642,-5.1014,-5.142,-5.2164,-5.2841,-5.3484,-5.3518,-5.3518,-5.3518,-5.3518,-5.3518,-5.3518,-5.3518,-5.3518,-5.3518,-5.3518,-5.3518,-5.3518,-5.3518,-5.3518,-5.3518,-5.3518,-5.3518,-5.3518,-5.3518,-5.3518,-5.3518,-5.3518,-5.3518,-5.3518,-5.3518,-5.3518,-5.3484,-5.3315,-5.2334,-5.1116,-5.0507,-4.9695,-4.9018,-4.9018,-4.9018,-4.9018,-4.9018,-4.9018,-4.9018,-4.9018,-4.9018,-4.9018,-4.9018,-4.9018,-4.9018,-4.9018,-4.9018,-4.9018,-4.9018,-4.9018,-4.9018,-4.9018,-4.9018,-4.9018,-4.9018,-4.9018,-4.9046,-4.9195,-4.9791,-5.0201,-5.0353,-5.0794,-5.1059,-5.1059,-5.0288,-4.9848,-4.9848,-4.904,-4.86,-4.86,-4.8416,-4.8306,-4.8306,-4.8306,-4.8306,-4.8306,-4.8306,-4.8306,-4.4587,-4.4587,-4.4756,-4.5534,-4.621,-4.6921,-4.7733,0.0,-4.8917,-4.8984,-4.9018,-4.9018,-4.9018,-4.9018,-4.9018,-4.9018,-4.9018,-4.9018,-4.9018,-4.9018,-4.9018,-4.9018,-4.9018,-4.9018,-4.9018,-4.9593,-5.0304,-5.1048,-5.2401,-5.2909,-5.2232,-5.2976,-5.3416,-5.3518,-5.3518,-5.3518,-5.3518,-5.3518,-5.3518,-5.3518,-5.3518,-5.3518,-5.3518,-5.3518,-5.3518,-5.3518,-5.3518,-5.3518,0.0,-5.3518,-5.3518,-5.3518,-5.3518,-5.3518,-5.3518,-5.3518,-5.3518,-5.3518,-5.3518,-5.3518,-5.3382,-5.2638,-5.186,-5.1217,-5.115,-5.0135,-4.9018,-4.9018,-4.9018,-4.9018,-4.9018,-4.9018,-4.9018,-4.9018,-4.9018,-4.9018,-4.9018,-4.9018,-4.9018,-4.9018,-4.9018,-4.9018,-4.9018,-4.9018,-4.9018,-4.9018,-4.9018,-4.9018,-4.9018,-4.9018,-4.9195,-4.9804,-5.0538,-5.1236,-5.1862,-5.1894,-5.1867,-5.1867,-5.1132,-5.0692,-5.0692,-4.9884,-4.9481,-4.9481,-4.871,-4.8306,-4.8306,-4.8306,-4.8306,-4.8306,-4.8306,-4.8306,-4.4587,-4.4212,-4.4215,-4.5925,-4.5763,-4.56,-4.7334,0.0,-4.8161,-4.8161,-4.8576,-4.9018,-4.9018,-4.9018,-4.9018,-4.9018,-4.9018,-4.9018,-4.9018,-4.9018,-4.9018,-4.9018,-4.9018,-4.9018,-4.9018,-4.9661,-5.0574,-5.1792,-5.2875,-5.3382,-5.3044,-5.3348,-5.3518,-5.3518,-5.3518,-5.3518,-5.3518,-5.3518,-5.3518,-5.3518,-5.3518,-5.3518,-5.3518,-5.3518,-5.3518,-5.3518,-5.3518,-5.3518,0.0,-5.3518,-5.3518,-5.3518,-5.3518,-5.3518,-5.3518,-5.3518,-5.3518,-5.3518,-5.3518,-5.3518,-5.3382,-5.257,-5.1826,-5.115,-5.0676,-4.983,-4.9018,-4.9018,-4.9018,-4.9018,-4.9018,-4.9018,-4.9018,-4.9018,-4.9018,-4.9018,-4.9018,-4.9018,-4.9018,-4.9018,-4.9018,-4.9018,-4.9018,-4.9018,-4.9018,-4.9018,-4.9018,-4.9018,-4.9018,-4.9018,-4.9436,-5.0554,-5.0929,-5.1393,-5.2065,-5.2477,-5.2711,-5.2711,-5.1977,-5.1499,-5.1499,-5.0729,-5.0325,-5.0325,-4.9994,-4.9811,-4.9811,-4.9811,-4.9811,-4.9811,-4.9811,-4.9811,-4.427,-4.3739,-4.3773,-4.5872,-4.5241,-4.4747,-4.7045,-4.7572,-4.7506,-4.7239,-4.8161,-4.8923,-4.8639,-4.8798,-4.9018,-4.9018,0.0,-4.8576,-4.8576,-4.8353,-4.8289,-4.8576,-4.8353,-4.8289,-4.8576,-4.9157,-5.0293,-5.2068,-5.2706,-5.3179,-5.3484,-5.3179,-5.3179,-5.3518,-5.3518,-5.3518,-5.3518,-5.3518,-5.3518,-5.3518,-5.3518,-5.3518,-5.3518,-5.3518,-5.3518,-5.3518,-5.3518,-5.3518,0.0,-5.3518,-5.3518,-5.3518,-5.3518,-5.3518,-5.3518,-5.3518,-5.3518,-5.3518,-5.3518,-5.3518,-5.3348,-5.23,-5.1623,-5.1048,-5.0067,-4.939,-4.9018,-4.9018,-4.9018,-4.9018,-4.9018,-4.9018,-4.9018,-4.9018,-4.9018,-4.9018,-4.9018,-4.9018,-4.9018,-4.9018,-4.9018,-4.9018,-4.9018,-4.9018,-4.9018,-4.9018,-4.9018,-4.9018,-4.9018,-4.9168,-4.978,-5.0981,-5.1292,-5.1643,-5.2381,-5.2893,-5.3225,-5.3225,-5.2674,-5.2344,-5.2344,-5.1573,-5.1169,-5.1169,-5.0912,-5.0802,-5.0802,-5.0802,-5.0802,-5.0802,-5.0802,-5.0802,-4.3562,-4.3323,-4.3652,-4.5131,-4.4821,-4.4747,-4.7045,-4.7572,-4.7306,-4.6384,-4.7737,-4.8736,-4.7803,-4.8353,-4.9018,-4.9018,-4.8225,0.0,-4.7572,-4.6799,-4.6592,-4.7506,-4.6799,-4.6592,-4.7506,-4.8026,-4.9305,-5.1717,-5.1921,0.0,-5.3416,-5.2487,-5.2383,-5.345,-5.3518,-5.3518,-5.3518,-5.3518,-5.3518,-5.3518,-5.3518,-5.3518,-5.3518,-5.3518,-5.3518,-5.3518,-5.3518,-5.3518,0.0,-5.3518,-5.3518,-5.3518,-5.3518,-5.3518,-5.3518,-5.3518,-5.3518,-5.3518,-5.3518,-5.3518,-5.3247,-5.1725,-5.1217,-5.0947,-4.9458,-4.9018,-4.9018,-4.9018,-4.9018,-4.9018,-4.9018,-4.9018,-4.9018,-4.9018,-4.9018,-4.9018,-4.9018,-4.9018,-4.9018,-4.9018,-4.9018,-4.9018,-4.9018,-4.9018,-4.9018,-4.9018,-4.9018,-4.9018,-4.9018,-4.958,-5.0279,-5.1034,-5.1692,-5.2381,-5.3103,-5.3225,-5.3225,-5.3225,-5.3188,-5.3188,-5.3188,-5.2417,-5.1977,-5.1977,-5.1206,-5.0802,-5.0802,-5.0802,-5.0802,-5.0802,-5.0802,-5.0802,-4.3562,-4.3323,-4.3652,-4.5069,-4.4294,-4.3608,-4.5317,-4.5706,-4.5561,-4.53,-4.6276,-4.7036,-4.6662,-4.69,-4.7104,-4.7104,-4.6799,-4.6662,-4.6662,-4.6384,-4.6314,-4.6592,-4.6384,-4.6699,-4.7981,-4.8248,-4.9305,-5.175,-5.1921,-5.2065,-5.2383,-5.2065,-5.2065,-5.2383,-5.2383,-5.2383,-5.2383,-5.311,-5.3518,-5.3518,-5.3518,-5.3518,-5.3518,-5.3518,-5.3518,-5.3518,-5.3518,-5.3518,-5.3518,-5.3518,-5.3518,-5.3518,-5.3518,-5.3518,-5.3518,-5.3518,-5.3518,-5.3518,-5.3518,-5.3145,-5.2536,-5.1522,-5.0879,-5.027,-4.9289,-4.9018,-4.9018,-4.9018,-4.9018,-4.9018,-4.9018,-4.9018,-4.9018,-4.9018,-4.9018,-4.9018,-4.9018,-4.9018,-4.9018,-4.9018,-4.9018,-4.9018,-4.9018,-4.9018,-4.9018,-4.9018,-4.9018,-4.9018,-4.9018,-4.958,-5.0279,-5.1034,-5.1692,-5.2381,-5.3146,-5.3225,-5.3225,-5.3225,-5.3225,-5.3225,-5.3225,-5.2968,-5.2821,-5.2821,-5.2564,-5.2454,-5.2454,-5.2454,-5.2454,-5.2454,-5.2454,-5.2454,0.0,-4.2769,-4.3469,-4.4204,-4.3548,0.0,-4.4502,-4.4812,-4.4662,-4.4282,-4.5269,-4.6103,-4.5778,-4.5961,-4.6173,-4.6173,-4.5889,-4.5706,-4.5706,0.0,0.0,-4.5122,-4.5416,0.0,0.0,-4.7153,-4.818,-5.0574,-5.0747,-5.093,-5.1303,-5.093,-5.0747,-5.0747,-5.1155,-5.1303,-5.1303,-5.2383,-5.287,-5.287,-5.328,-5.3518,-5.3518,-5.3518,-5.3518,-5.3518,-5.3518,-5.3518,0.0,-5.3518,-5.3518,-5.3518,-5.3518,-5.3518,-5.3518,-5.3518,-5.3518,-5.345,-5.3145,-5.2706,-5.2131,-5.1116,-5.0304,-4.9593,-4.9154,-4.9018,-4.9018,-4.9018,-4.9018,-4.9018,-4.9018,-4.9018,-4.9018,-4.9018,-4.9018,-4.9018,-4.9018,-4.9018,-4.9018,-4.9018,-4.9018,-4.9018,-4.9018,-4.9018,-4.9018,-4.9018,-4.9018,-4.9107,-4.9376,-4.9976,-5.0716,-5.1393,-5.2065,-5.2725,-5.3146,-5.3225,-5.3225,-5.3225,-5.3225,-5.3225,-5.3225,-5.3225,-5.3225,-5.3225,-5.3225,-5.3225,-5.3225,-5.3225,-5.3225,-5.3225,-5.3225,-5.3225,0.0,0.0,0.0,0.0,0.0,0.0,0.0,0.0,0.0,-4.3488,-4.475,-4.5778,-4.4856,-4.5416,-4.5961,-4.5961,-4.5269,-4.4662,-4.4662,-4.3927,0.0,0.0,-4.4128,-4.4802,-4.5177,-4.5274,-4.6282,-4.8573,-4.881,-4.9215,-5.0242,-4.9376,-4.8759,-4.8677,-4.9615,-5.0242,-5.0397,-5.1451,-5.1993,-5.1993,-5.3008,-5.3518,-5.3518,-5.3518,-5.3518,-5.3518,-5.3518,-5.3518,-5.3518,-5.3518,-5.3518,-5.3518,-5.3518,-5.3518,-5.3518,-5.3518,-5.345,-5.3315,-5.257,-5.2232,-5.1894,-5.0473,-4.956,-4.9018,-4.9018,-4.9018,-4.9018,-4.9018,-4.9018,-4.9018,-4.9018,-4.9018,-4.9018,-4.9018,-4.9018,-4.9018,-4.9018,-4.9018,-4.9018,-4.9018,-4.9018,-4.9018,-4.9018,-4.9018,-4.9018,-4.9018,-4.9018,-4.9195,-4.9861,-5.0554,-5.1292,-5.197,-5.268,-5.3146,-5.3225,-5.3225,-5.3225,-5.3225,-5.3225,-5.3225,-5.3225,-5.3225,-5.3225,-5.3225,-5.3225,-5.3225,-5.3225,-5.3225,-5.3225,-5.3225,-5.3225,-5.3225,0.0,0.0,0.0,0.0,0.0,0.0,0.0,0.0,0.0,0.0,0.0,0.0,0.0,0.0,-4.3974,-4.3974,-4.3771,-4.3615,-4.3615,-4.3488,0.0,-4.3329,-4.3488,-4.3867,-4.4466,-4.5005,-4.61,-4.7923,-4.8531,-4.8891,-4.9135,-4.8891,-4.846,-4.7679,-4.7934,-4.879,-5.0397,-5.217,-5.311,-5.311,-5.3348,-5.3518,-5.3518,-5.3518,-5.3518,-5.3518,-5.3518,-5.3518,-5.3518,-5.3518,-5.3518,-5.3518,-5.3518,-5.3518,-5.3518,-5.3518,-5.3112,-5.257,-5.2367,-5.1555,-5.0473,-4.956,-4.9154,-4.9018,-4.9018,-4.9018,-4.9018,-4.9018,-4.9018,-4.9018,-4.9018,-4.9018,-4.9018,-4.9018,-4.9018,-4.9018,-4.9018,-4.9018,-4.9018,-4.9018,-4.9018,-4.9018,-4.9018,-4.9018,-4.9018,-4.9018,-4.9018,-4.9046,-4.9195,-4.9873,-5.0589,-5.1241,-5.197,-5.2599,-5.3146,-5.3225,-5.3225,-5.3225,-5.3225,-5.3225,-5.3225,-5.3225,-5.3225,-5.3225,-5.3225,-5.3225,-5.3225,-5.3225,-5.3225,-5.3225,-5.3225,-5.3225,0.0,0.0,0.0,0.0,0.0,0.0,0.0,0.0,0.0,0.0,0.0,0.0,0.0,0.0,0.0,0.0,-4.3329,0.0,0.0,0.0,-4.3329,-4.3329,-4.3329,-4.3599,0.0,-4.4915,-4.5793,-4.7006,-4.776,-4.8157,-4.8157,-4.8157,-4.7849,-4.7309,-4.824,-4.9004,-4.9694,-5.1262,-5.2345,-5.28,-5.3247,-5.3518,-5.3518,-5.3518,-5.3518,-5.3518,-5.3518,-5.3518,-5.3518,-5.3518,-5.3518,-5.3518,-5.3518,-5.3518,-5.3518,-5.3518,-5.2976,-5.2266,-5.1928,-5.0845,-4.9526,-4.912,-4.9018,-4.9018,-4.9018,-4.9018,-4.9018,-4.9018,-4.9018,-4.9018,-4.9018,-4.9018,-4.9018,-4.9018,-4.9018,-4.9018,-4.9018,-4.9018,-4.9018,-4.9018,-4.9018,-4.9018,-4.9018,-4.9018,-4.9018,-4.9018,-4.9018,-4.9107,-4.9402,-4.978,-5.0425,-5.1444,-5.1886,-5.2381,-5.3146,-5.3225,-5.3225,-5.3225,-5.3225,-5.3225,-5.3225,-5.3225,-5.3225,-5.3225,-5.3225,-5.3225,-5.3225,-5.3225,-5.3225,-5.3225,-5.3225,-5.3225,0.0,0.0,0.0,0.0,0.0,0.0,0.0,0.0,0.0,0.0,0.0,0.0,0.0,-4.3329,0.0,0.0,0.0,0.0,-4.3329,-4.3329,-4.3329,-4.3329,-4.3329,0.0,-4.4107,-4.4766,-4.5424,-4.6112,-4.677,-4.7189,-4.7309,-4.7309,-4.7309,-4.7309,-4.9166,-4.9773,-4.9054,-5.0242,-5.1336,-5.217,-5.3041,-5.3518,-5.3518,-5.3518,-5.3518,-5.3518,-5.3518,0.0,-5.3518,-5.3518,-5.3518,-5.3518,-5.3518,-5.3518,-5.3518,-5.3518,-5.2909,-5.2029,-5.1183,-5.0067,-4.9018,-4.9018,-4.9018,-4.9018,-4.9018,-4.9018,-4.9018,-4.9018,-4.9018,-4.9018,-4.9018,-4.9018,-4.9018,-4.9018,-4.9018,-4.9018,-4.9018,-4.9018,-4.9018,-4.9018,-4.9018,-4.9018,-4.9018,-4.9018,-4.9018,-4.9018,-4.9018,-4.9229,-4.978,-4.9919,-5.05,-5.179,-5.2065,-5.2381,-5.3146,-5.3225,-5.3225,-5.3225,-5.3225,-5.3225,-5.3225,-5.3225,-5.3225,-5.3225,-5.3225,-5.3225,-5.3225,-5.3225,-5.3225,-5.3225,-5.3225,-5.3225,-3.9409,-3.9625,-3.9768,-3.9601,-4.0531,0.0,0.0,0.0,0.0,0.0,0.0,0.0,0.0,-4.3329,-4.3329,0.0,0.0,-4.3329,0.0,0.0,-4.3329,-4.3329,0.0,-4.3359,-4.3479,-4.4077,-4.4736,-4.5394,-4.6082,-4.6711,-4.7279,-4.7309,-4.7309,-4.7309,-4.846,-4.9376,-5.0165,-5.2026,-5.311,-5.328,-5.3416,-5.3518,-5.3518,-5.3518,-5.3518,-5.3518,0.0,-5.3518,-5.3518,-5.3518,-5.3518,-5.3518,-5.3518,-5.3518,-5.3518,-5.3518,-5.2604,-5.1183,-4.983,-4.9187,-4.9018,-4.9018,-4.9018,-4.9018,-4.9018,-4.9018,-4.9018,-4.9018,-4.9018,-4.9018,-4.9018,-4.9018,-4.9018,-4.9018,-4.9018,-4.9018,-4.9018,-4.9018,-4.9018,-4.9018,-4.9018,-4.9018,-4.9018,-4.9018,-4.9018,-4.9018,-4.9018,-4.9046,-4.9168,-4.9664,-5.0335,-5.1189,-5.1741,-5.2381,-5.3146,-5.3225,-5.3225,-5.3225,-5.3225,-5.3225,-5.3225,-5.3225,-5.3225,-5.3225,-5.3225,-5.3225,-5.3225,-5.3225,-5.3225,-5.3225,-5.3225,-5.3225,-3.9409,-3.9409,-3.9499,-3.9858,0.0,-4.1474,-4.1833,0.0,0.0,0.0,0.0,0.0,0.0,0.0,-4.3329,-4.3329,0.0,-4.3329,-4.3329,-4.3329,-4.3329,0.0,0.0,-4.3329,-4.3329,-4.3928,-4.4436,-4.4736,-4.5723,-4.6441,-4.6741,-4.71,-4.7309,-4.7309,-4.8293,-4.9054,-4.9536,-5.1631,-5.2939,-5.3518,-5.3518,-5.3518,-5.3518,-5.3518,-5.3518,-5.3518,0.0,-5.3518,-5.3518,-5.3518,-5.3518,-5.3518,-5.3518,-5.3518,-5.3416,-5.257,-5.1555,-5.0439,-4.9357,-4.9018,-4.9018,-4.9018,-4.9018,-4.9018,-4.9018,-4.9018,-4.9018,-4.9018,-4.9018,-4.9018,-4.9018,-4.9018,-4.9018,-4.9018,-4.9018,-4.9018,-4.9018,-4.9018,-4.9018,-4.9018,-4.9018,-4.9018,-4.9018,-4.9018,-4.9018,-4.9018,-4.9018,-4.9107,-4.9521,-4.9838,-5.0445,-5.1544,-5.1922,-5.2381,-5.3146,-5.3225,-5.3225,-5.3225,-5.3225,-5.3225,-5.3225,-5.3225,-5.3225,-5.3225,-5.3225,-5.3225,-5.3225,-5.3225,-5.3225,-5.3225,-5.3225,-5.3225,-3.9409,-3.9529,-3.9798,0.0,0.0,-4.1564,-4.2222,0.0,0.0,0.0,0.0,0.0,0.0,-4.3329,0.0,-4.3329,-4.3329,-4.3329,-4.3329,-4.3329,-4.3329,-4.3329,-4.3329,-4.3329,-4.3329,-4.3778,-4.4137,-4.4317,-4.5274,-4.5933,-4.6082,-4.6561,-4.692,-4.707,-4.8048,-4.8736,-4.9135,-5.1005,-5.2312,-5.311,-5.3348,-5.3518,-5.3518,-5.3518,-5.3518,-5.3518,-5.3518,-5.3518,-5.3518,-5.3518,-5.3518,-5.3518,-5.3518,-5.3382,-5.3044,-5.1725,-5.0744,-4.9965,-4.9255,-4.9018,-4.9018,-4.9018,-4.9018,-4.9018,-4.9018,-4.9018,-4.9018,-4.9018,-4.9018,-4.9018,-4.9018,-4.9018,-4.9018,-4.9018,-4.9018,-4.9018,-4.9018,-4.9018,-4.9018,-4.9018,-4.9018,-4.9018,-4.9018,-4.9018,-4.9018,-4.9018,-4.9018,-4.9229,-4.9722,-4.9919,-5.05,-5.1741,-5.2018,-5.2381,-5.3146,-5.3225,-5.3225,-5.3225,-5.3225,-5.3225,-5.3225,-5.3225,-5.3225,-5.3225,-5.3225,-5.3225,-5.3225,-5.3225,-5.3225,-5.3225,-5.3225,-5.3225,-3.9409,-3.9858,-4.0487,-4.1145,-4.1354,0.0,-4.2222,-4.288,0.0,-4.3329,0.0,0.0,0.0,-4.3329,-4.3329,-4.3329,-4.3329,-4.3329,-4.3329,0.0,-4.3329,-4.3329,-4.3329,-4.3329,-4.3329,-4.3359,-4.3658,-4.4257,-4.4407,-4.4736,-4.5334,-4.5424,-4.5723,-4.6381,-4.7375,-4.867,-5.0242,-5.1377,-5.1921,-5.1993,-5.3008,-5.3518,-5.3518,-5.3518,-5.3518,-5.3518,-5.3518,-5.3518,-5.3518,-5.3518,-5.3518,-5.3518,-5.3518,-5.3044,-5.23,-5.1488,-5.0744,-4.9965,-4.9255,-4.9018,-4.9018,-4.9018,-4.9018,-4.9018,-4.9018,-4.9018,-4.9018,-4.9018,-4.9018,-4.9018,-4.9018,-4.9018,-4.9018,-4.9018,-4.9018,-4.9018,-4.9018,-4.9018,-4.9018,-4.9018,-4.9018,-4.9018,-4.9018,-4.9018,-4.9018,-4.9018,-4.9018,-4.9018,-4.9046,-4.9639,-5.0279,-5.1086,-5.1741,-5.2381,-5.3146,-5.3225,-5.3225,-5.3225,-5.3225,-5.3225,-5.3225,-5.3225,-5.3225,-5.3225,-5.3225,-5.3225,-5.3225,-5.3225,-5.3225,-5.3225,-5.3225,-5.3225,-3.9918,-4.0217,-4.0666,-4.1713,-4.1983,0.0,0.0,-4.315,-4.3329,-4.3329,-4.3329,0.0,0.0,0.0,-4.3329,-4.3329,-4.3329,-4.3329,-4.3329,-4.3329,-4.3329,-4.3329,-4.3329,-4.3329,-4.3329,-4.3329,-4.3449,-4.3688,-4.4077,-4.4436,-4.4676,-4.5065,-4.5424,-4.5663,-4.6048,-4.7058,-4.8749,-4.9801,-5.0847,-5.1921,-5.3008,-5.3518,-5.3518,-5.3518,-5.3518,-5.3518,-5.3518,-5.3518,-5.3518,-5.3518,-5.3518,-5.345,-5.2942,-5.23,-5.1522,-5.0777,-5.0033,-4.939,-4.9086,-4.9018,-4.9018,-4.9018,-4.9018,-4.9018,-4.9018,-4.9018,-4.9018,-4.9018,-4.9018,-4.9018,-4.9018,-4.9018,-4.9018,-4.9018,-4.9018,-4.9018,-4.9018,-4.9018,-4.9018,-4.9018,-4.9018,-4.9018,-4.9018,-4.9018,-4.9018,-4.9018,-4.9018,-4.9168,-4.958,-4.9804,-5.0279,-5.1034,-5.1692,-5.2381,-5.3146,-5.3225,-5.3225,-5.3225,-5.3225,-5.3225,-5.3225,-5.3225,-5.3225,-5.3225,-5.3225,-5.3225,-5.3225,-5.3225,-5.3225,-5.3225,-5.3225,-5.3225,-4.0217,-4.0546,-4.0965,0.0,0.0,0.0,-4.324,-4.3329,-4.3329,-4.3329,-4.3329,0.0,-4.3329,0.0,0.0,0.0,-4.3329,-4.3329,-4.3329,-4.3329,-4.3329,-4.3329,-4.3329,-4.3329,-4.3329,-4.3329,-4.3329,-4.3329,-4.3748,-4.4018,-4.4018,-4.4436,-4.4766,-4.4975,-4.5273,-4.6272,-4.795,-4.8989,-5.0334,-5.2018,-5.2808,-5.3247,-5.3518,-5.3518,-5.3518,-5.3518,-5.3518,-5.3518,-5.3518,-5.3518,-5.3518,-5.3416,-5.2604,-5.186,-5.1116,-5.0371,-4.9627,-4.9018,-4.9018,-4.9018,-4.9018,-4.9018,-4.9018,-4.9018,-4.9018,-4.9018,-4.9018,-4.9018,-4.9018,-4.9018,-4.9018,-4.9018,-4.9018,-4.9018,-4.9018,-4.9018,-4.9018,-4.9018,-4.9018,-4.9018,-4.9018,-4.9018,-4.9018,-4.9018,-4.9018,-4.9018,-4.9018,-4.9168,-4.9605,-4.9664,-4.9976,-5.0662,-5.1393,-5.2065,-5.2769,-5.2813,-5.2937,-5.3182,-5.3225,-5.3225,-5.3225,-5.3225,-5.3225,-5.3225,-5.3225,-5.3225,-5.3225,-5.3225,-5.3225,-5.3225,-5.3225,-5.3225,-4.0217,-4.0876,0.0,0.0,0.0,0.0,-4.3329,-4.3329,-4.3329,-4.3329,-4.3329,-4.3329,-4.3329,-4.3329,0.0,-4.3329,-4.3329,-4.3329,-4.3329,-4.3329,-4.3329,-4.3329,-4.3329,-4.3329,-4.3329,-4.3329,-4.3329,-4.3329,-4.3329,-4.3329,-4.3329,-4.3329,-4.3629,-4.4287,-4.5231,-4.651,-4.8285,-4.9257,-5.0556,-5.23,-5.23,-5.2739,-5.3518,-5.3518,-5.3518,-5.3518,-5.3518,-5.3518,-5.3518,-5.3518,-5.3518,-5.3416,-5.2604,-5.186,-5.1116,-5.0371,-4.9627,-4.9018,-4.9018,-4.9018,-4.9018,-4.9018,-4.9018,-4.9018,-4.9018,-4.9018,-4.9018,-4.9018,-4.9018,-4.9018,-4.9018,-4.9018,-4.9018,-4.9018,-4.9018,-4.9018,-4.9018,-4.9018,-4.9018,-4.9018,-4.9018,-4.9018,-4.9018,-4.9018,-4.9018,-4.9018,-4.9018,-4.9018,-4.9018,-4.9018,-4.9256,-4.9919,-5.0662,-5.1343,-5.2065,-5.2112,-5.2381,-5.3146,-5.3225,-5.3225,-5.3225,-5.3225,-5.3225,-5.3225,-5.3225,-5.3225,-5.3225,-5.3225,-5.3225,-5.3225,-5.3225,-5.3225,-4.0786,-4.1235,0.0,-4.2761,0.0,0.0,0.0,-4.3329,0.0,0.0,-4.3329,-4.3329,-4.3329,-4.3329,0.0,-4.3329,-4.3329,-4.3329,-4.3329,-4.3329,-4.3329,-4.3329,-4.3329,-4.3329,-4.3329,-4.3329,-4.3329,-4.3329,-4.3329,-4.3645,-4.4282,-4.4358,-4.4723,-4.5625,-4.5918,-4.6885,-4.8576,-4.8852,-4.9859,-5.1555,-5.2063,-5.2739,-5.3518,-5.3518,-5.3518,-5.3518,-5.3518,-5.3518,-5.3518,-5.3518,-5.3518,-5.3382,-5.2063,-5.142,-5.1082,-4.9796,-4.9187,-4.9018,-4.9018,-4.9018,-4.9018,-4.9018,-4.9018,-4.9018,-4.9018,-4.9018,-4.9018,-4.9018,-4.9018,-4.9018,-4.9018,-4.9018,-4.9018,-4.9018,-4.9018,-4.9018,-4.9018,-4.9018,-4.9018,-4.9018,-4.9018,-4.9018,-4.9018,-4.9018,-4.9018,-4.9018,-4.9018,-4.9018,-4.9018,-4.9018,-4.9256,-4.9919,-5.0202,-5.0608,-5.1343,-5.1838,-5.2206,-5.2381,-5.2937,-5.3225,-5.3225,-5.3225,-5.3225,-5.3225,-5.3225,-5.3225,-5.3225,-5.3225,-5.3225,-5.3225,-5.3225,-5.3225,-4.1414,0.0,0.0,-4.306,-4.3329,-4.3329,-4.3329,0.0,0.0,0.0,-4.3329,-4.3329,-4.3329,-4.3329,0.0,-4.3329,-4.3329,-4.3329,-4.3329,-4.3329,-4.3329,-4.3329,-4.3329,-4.3329,-4.3329,-4.3329,-4.3329,-4.3329,-4.3693,-4.4128,-4.4737,-4.5153,-4.5634,-4.6173,-4.6523,-4.7232,-4.8231,-4.8597,-4.9454,-5.0777,-5.1217,-5.1995,-5.3044,-5.3348,-5.3518,-5.3518,-5.3518,-5.3518,-5.3518,-5.3518,-5.3315,-5.2909,-5.1691,-5.1048,-5.0642,-4.9458,-4.9018,-4.9018,-4.9018,-4.9018,-4.9018,-4.9018,-4.9018,-4.9018,-4.9018,-4.9018,-4.9018,-4.9018,-4.9018,-4.9018,-4.9018,-4.9018,-4.9018,-4.9018,-4.9018,-4.9018,-4.9018,-4.9018,-4.9018,-4.9018,-4.9018,-4.9018,-4.9018,-4.9018,-4.9018,-4.9018,-4.9018,-4.9018,-4.9018,-4.9018,-4.9168,-4.958,-4.9605,-4.9861,-5.0608,-5.1034,-5.1393,-5.1692,-5.2381,-5.2769,-5.2769,-5.306,-5.3225,-5.3225,-5.3225,-5.3225,-5.3225,-5.3225,-5.3225,-5.3225,-5.3225,-5.3225,-4.1923,0.0,0.0,-4.318,-4.3329,0.0,-4.3329,-4.3329,-4.3329,-4.3329,0.0,-4.3329,-4.3329,-4.3329,-4.3329,-4.3329,-4.3329,-4.3329,-4.3329,-4.3329,-4.3329,-4.3329,-4.3329,-4.3329,-4.3329,-4.3329,-4.3329,-4.3329,-4.4205,-4.4812,-4.4962,-4.585,-4.6384,-4.6454,-4.7306,-4.7737,-4.7737,-4.8576,-4.9323,-4.9999,-5.0067,-5.0777,-5.2131,-5.301,-5.345,-5.3518,-5.3518,-5.3518,-5.3484,-5.3416,-5.2976,-5.2232,-5.142,-5.071,-4.9999,-4.9255,-4.9018,-4.9018,-4.9018,-4.9018,-4.9018,-4.9018,-4.9018,-4.9018,-4.9018,-4.9018,-4.9018,-4.9018,-4.9018,-4.9018,-4.9018,-4.9018,-4.9018,-4.9018,-4.9018,-4.9018,-4.9018,-4.9018,-4.9018,-4.9018,-4.9018,-4.9018,-4.9018,-4.9018,-4.9018,-4.9018,-4.9018,-4.9018,-4.9018,-4.9018,-4.9018,-4.9018,-4.9018,-4.9256,-4.9861,-4.9976,-5.0279,-5.0981,-5.1692,-5.2112,-5.2112,-5.2813,-5.3225,-5.3225,-5.3225,-5.3225,-5.3225,-5.3225,-5.3225,-5.3225,-5.3225,-5.3225,0.0,-4.1983,0.0,0.0,-4.3329,-4.3329,-4.3329,-4.3329,-4.3329,-4.3329,-4.3329,-4.3329,-4.3329,-4.3329,-4.3329,-4.3329,-4.3329,-4.3329,-4.3329,-4.3329,-4.3329,-4.3329,-4.3329,-4.3329,-4.3329,-4.3329,-4.3329,-4.3329,-4.4205,-4.5153,-4.585,-4.6831,-4.7671,-4.8353,-4.8576,-4.8702,-4.8702,-4.8923,-4.9086,-4.9255,-4.983,-5.027,-5.0608,-5.1961,-5.2909,-5.3518,-5.3518,-5.3518,-5.345,-5.2807,-5.2469,-5.2164,-5.0845,-5.0236,-4.9999,-4.9255,-4.9018,-4.9018,-4.9018,-4.9018,-4.9018,-4.9018,-4.9018,-4.9018,-4.9018,-4.9018,-4.9018,-4.9018,-4.9018,-4.9018,-4.9018,-4.9018,-4.9018,-4.9018,-4.9018,-4.9018,-4.9018,-4.9018,-4.9018,-4.9018,-4.9018,-4.9018,-4.9018,-4.9018,-4.9018,-4.9018,-4.9018,-4.9018,-4.9018,-4.9018,-4.9018,-4.9018,-4.9018,-4.9046,-4.9195,-4.9722,-5.009,-5.0258,-5.1444,-5.2112,-5.2112,-5.2813,-5.3225,-5.3225,-5.3225,-5.3225,-5.3225,-5.3225,-5.3225,-5.3225,-5.3225,-5.3225,0.0,0.0,0.0,-4.324,0.0,-4.3329,-4.3329,-4.3329,-4.3329,-4.3329,-4.3329,-4.3329,-4.3329,-4.3329,-4.3329,-4.3329,-4.3329,-4.3329,-4.3329,-4.3329,-4.3329,-4.3329,-4.3329,-4.3329,-4.3329,-4.3329,-4.3488,-4.4004,-4.493,-4.5921,-4.6799,-4.7737,-4.8513,-4.8984,-4.9018,-4.9018,-4.9018,-4.9018,-4.9018,-4.9018,-4.939,-4.9763,-5.0135,-5.1623,-5.2739,-5.3484,-5.3078,-5.2942,-5.2875,-5.2097,-5.1589,-5.115,-5.0405,-4.9864,-4.9526,-4.9154,-4.9018,-4.9018,-4.9018,-4.9018,-4.9018,-4.9018,-4.9018,-4.9018,-4.9018,-4.9018,-4.9018,-4.9018,-4.9018,-4.9018,-4.9018,-4.9018,-4.9018,-4.9018,-4.9018,-4.9018,-4.9018,-4.9018,-4.9018,-4.9018,-4.9018,-4.9018,-4.9018,-4.9018,-4.9018,-4.9018,-4.9018,-4.9018,-4.9018,-4.9018,-4.9018,-4.9018,-4.9018,-4.9018,-4.9018,-4.9316,-4.9521,-4.9521,-5.05,-5.1292,-5.1593,-5.2289,-5.2813,-5.3188,-5.3225,-5.3225,-5.3225,-5.3225,-5.3225,-5.3225,-5.3225,-5.3225,0.0,0.0,-4.3329,-4.3329,-4.3329,0.0,-4.3329,-4.3329,-4.3329,-4.3329,-4.3329,-4.3329,-4.3329,-4.3329,-4.3329,-4.3329,-4.3329,-4.3329,-4.3329,-4.3329,-4.3329,-4.3329,-4.3329,-4.3329,-4.3329,-4.3329,-4.3615,-4.4434,-4.5561,-4.6523,-4.7306,-4.8416,-4.9018,-4.9018,-4.9018,-4.9018,-4.9018,-4.9018,-4.9018,-4.9018,-4.9018,-4.939,-5.0135,-5.1352,-5.2367,-5.3078,-5.2401,-5.2131,-5.2063,-5.1319,-5.0642,-5.0067,-4.9965,-4.9526,-4.9018,-4.9018,-4.9018,-4.9018,-4.9018,-4.9018,-4.9018,-4.9018,-4.9018,-4.9018,-4.9018,-4.9018,-4.9018,-4.9018,-4.9018,-4.9018,-4.9018,-4.9018,-4.9018,-4.9018,-4.9018,-4.9018,-4.9018,-4.9018,-4.9018,-4.9018,-4.9018,-4.9018,-4.9018,-4.9018,-4.9018,-4.9018,-4.9018,-4.9018,-4.9018,-4.9018,-4.9018,-4.9018,-4.9018,-4.9018,-4.9018,-4.9018,-4.9018,-4.9018,-4.9605,-5.0335,-5.1086,-5.1741,-5.2427,-5.3182,-5.3225,-5.3225,-5.3225,-5.3225,-5.3225,-5.3225,-5.3225,-5.3225,0.0,0.0,-4.3329,0.0,-4.3329,-4.3329,0.0,0.0,-4.3329,0.0,-4.3329,-4.3329,-4.3329,-4.3329,-4.3329,-4.3329,-4.3329,-4.3329,-4.3329,-4.3329,-4.3329,-4.3329,-4.3329,-4.3329,-4.3329,-4.3329,-4.3329,-4.3488,-4.5196,-4.6244,-4.6384,-4.8096,-4.9018,-4.9018,-4.9018,-4.9018,-4.9018,-4.9018,-4.9018,-4.9018,-4.9018,-4.939,-5.0101,-5.0304,-5.0811,-5.1522,-5.142,-5.1352,-5.1319,-5.0541,-5.0168,-5.0033,-4.939,-4.9086,-4.9018,-4.9018,-4.9018,-4.9018,-4.9018,-4.9018,-4.9018,-4.9018,-4.9018,-4.9018,-4.9018,-4.9018,-4.9018,-4.9018,-4.9018,-4.9018,-4.9018,-4.9018,-4.9018,-4.9018,-4.9018,-4.9018,-4.9018,-4.9018,-4.9018,-4.9018,-4.9018,-4.9018,-4.9018,-4.9018,-4.9018,-4.9018,-4.9018,-4.9018,-4.9018,-4.9018,-4.9018,-4.9018,-4.9018,-4.9018,-4.9018,-4.9018,-4.9018,-4.9018,-4.9605,-5.0335,-5.1086,-5.1741,-5.2427,-5.3182,-5.3225,-5.3225,-5.3225,-5.3225,-5.3225,-5.3225,-5.3225,-5.3225,-4.2791,-4.312,-4.3329,0.0,-4.3329,-4.3329,-4.3329,0.0,-4.3329,-4.3329,-4.3329,-4.3329,-4.3329,-4.3329,-4.3329,-4.3329,-4.3329,-4.3329,-4.3329,-4.3329,-4.3329,-4.3329,-4.3329,-4.3329,-4.3329,-4.3329,-4.3771,-4.4825,-4.5746,-4.6662,-4.7737,-4.8576,-4.9018,-4.9018,-4.9018,-4.9018,-4.9018,-4.9018,-4.9018,-4.9018,-4.9018,-4.9187,-4.9492,-4.9492,-5.0101,-5.1183,-5.0777,-5.0574,-5.0541,-4.9796,-4.9492,-4.9458,-4.912,-4.9018,-4.9018,-4.9018,-4.9018,-4.9018,-4.9018,-4.9018,-4.9018,-4.9018,-4.9018,-4.9018,-4.9018,-4.9018,-4.9018,-4.9018,-4.9018,-4.9018,-4.9018,-4.9018,-4.9018,-4.9018,-4.9018,-4.9018,-4.9018,-4.9018,-4.9018,-4.9018,-4.9018,-4.9018,-4.9018,-4.9018,-4.9018,-4.9018,-4.9018,-4.9018,-4.9018,-4.9018,-4.9018,-4.9018,-4.9018,-4.9018,-4.9018,-4.9018,-4.9018,-4.9018,-4.9256,-4.978,-5.0445,-5.1189,-5.1874,-5.2554,-5.298,-5.3225,-5.3225,-5.3225,-5.3225,-5.3225,-5.3225,-5.3225,0.0,0.0,-4.3329,-4.3329,-4.3329,-4.3329,0.0,0.0,-4.3329,0.0,-4.3329,-4.3329,-4.3329,-4.3329,-4.3329,-4.3329,-4.3329,-4.3329,-4.3329,-4.3329,-4.3329,-4.3329,-4.3329,-4.3329,-4.3329,-4.3329,-4.3897,-4.5311,-4.5889,-4.6799,-4.8225,-4.8736,-4.9018,-4.9018,-4.9018,-4.9018,-4.9018,-4.9018,-4.9018,-4.9018,-4.9018,-4.9018,-4.9018,-4.9018,-4.9593,-5.0608,-5.0067,-4.983,-4.9763,-4.9221,-4.9018,-4.9018,-4.9018,-4.9018,-4.9018,-4.9018,-4.9018,-4.9018,-4.9018,-4.9018,-4.9018,-4.9018,-4.9018,-4.9018,-4.9018,-4.9018,-4.9018,-4.9018,-4.9018,-4.9018,-4.9018,-4.9018,-4.9018,-4.9018,-4.9018,-4.9018,-4.9018,-4.9018,-4.9018,-4.9018,-4.9018,-4.9018,-4.9018,-4.9018,-4.9018,-4.9018,-4.9018,-4.9018,-4.9018,-4.9018,-4.9018,-4.9018,-4.9018,-4.9018,-4.9018,-4.9018,-4.9018,-4.9018,-4.9018,-4.9316,-4.9976,-5.0716,-5.1393,-5.2112,-5.2813,-5.3225,-5.3225,-5.3225,-5.3225,-5.3225,-5.3225,-5.3225,0.0,-4.3329,0.0,-4.3329,0.0,0.0,0.0,0.0,-4.3329,-4.3329,-4.3329,-4.3329,-4.3329,-4.3329,-4.3329,-4.3329,-4.3329,-4.3329,-4.3329,-4.3329,-4.3329,-4.3329,-4.3329,-4.3329,-4.3329,-4.3329,-4.3329,-4.3488,-4.5196,-4.6244,-4.6314,-4.7998,-4.9018,-4.9018,-4.9018,-4.9018,-4.9018,-4.9018,-4.9018,-4.9018,-4.9018,-4.9018,-4.9018,-4.9018,-4.9052,-4.912,-4.9086,-4.9052,-4.9052,-4.9018,-4.9018,-4.9018,-4.9018,-4.9018,-4.9018,-4.9018,-4.9018,-4.9018,-4.9018,-4.9018,-4.9018,-4.9018,-4.9018,-4.9018,-4.9018,-4.9018,-4.9018,-4.9018,-4.9018,-4.9018,-4.9018,-4.9018,-4.9018,-4.9018,-4.9018,-4.9018,-4.9018,-4.9018,-4.9018,-4.9018,-4.9018,-4.9018,-4.9018,-4.9018,-4.9018,-4.9018,-4.9018,-4.9018,-4.9018,-4.9018,-4.9018,-4.9018,-4.9018,-4.9018,-4.9018,-4.9018,-4.9018,-4.9018,-4.9018,-4.9316,-4.9976,-5.0716,-5.1393,-5.2112,-5.2813,-5.3225,-5.3225,-5.3225,-5.3225,-5.3225,-5.3225,-5.3225,0.0,0.0,0.0,-4.3329,-4.3329,-4.3329,-4.3329,-4.3329,-4.3329,-4.3329,-4.3329,-4.3329,-4.3329,-4.3329,-4.3329,-4.3329,-4.3329,-4.3329,-4.3329,-4.3329,-4.3329,-4.3329,-4.3329,-4.3329,-4.3329,-4.3329,-4.3819,-4.5048,-4.5818,-4.673,-4.7933,-4.8639,-4.9018,-4.9018,-4.9018,-4.9018,-4.9018,-4.9018,-4.9018,-4.9018,-4.9018,-4.9018,-4.9018,-4.9018,-4.9018,-4.9018,-4.9018,-4.9018,-4.9018,-4.9018,-4.9018,-4.9018,-4.9018,-4.9018,-4.9018,-4.9018,-4.9018,-4.9018,-4.9018,-4.9018,-4.9018,-4.9018,-4.9018,-4.9018,-4.9018,-4.9018,-4.9018,-4.9018,-4.9018,-4.9018,-4.9018,-4.9018,-4.9018,-4.9018,-4.9018,-4.9018,-4.9018,-4.9018,-4.9018,-4.9018,-4.9018,-4.9018,-4.9018,-4.9018,-4.9018,-4.9018,-4.9018,-4.9018,-4.9018,-4.9018,-4.9018,-4.9018,-4.9018,-4.9018,-4.9018,-4.9018,-4.9018,-4.9018,-4.9018,-4.9107,-4.9376,-5.0445,-5.1189,-5.1444,-5.2635,-5.3225,-5.3225,-5.3225,-5.3225,-5.3225,-5.3225,-5.3225,-4.3329,0.0,0.0,0.0,0.0,-4.3329,-4.3329,0.0,-4.3329,-4.3329,-4.3329,-4.3329,-4.3329,-4.3329,-4.3329,-4.3329,-4.3329,-4.3329,-4.3329,-4.3329,-4.3329,-4.3329,-4.3329,-4.3329,-4.3329,-4.3329,-4.3974,-4.5634,-4.6032,-4.6867,-4.845,-4.8861,-4.9018,-4.9018,-4.9018,-4.9018,-4.9018,-4.9018,-4.9018,-4.9018,-4.9018,-4.9018,-4.9018,-4.9018,-4.9018,-4.9018,-4.9018,-4.9018,-4.9018,-4.9018,-4.9018,-4.9018,-4.9018,-4.9018,-4.9018,-4.9018,-4.9018,-4.9018,-4.9018,-4.9018,-4.9018,-4.9018,-4.9187,-4.9357,-4.9357,-4.956,-4.9763,-4.9763,-4.9763,-4.9763,-4.9763,-4.956,-4.9357,-4.9357,-4.9187,-4.9018,-4.9018,-4.9018,-4.9018,-4.9018,-4.9018,-4.9018,-4.9018,-4.9018,-4.9018,-4.9018,-4.9018,-4.9018,-4.9018,-4.9018,-4.9018,-4.9018,-4.9018,-4.9018,-4.9018,-4.9018,-4.9018,-4.9018,-4.9018,-4.9018,-4.9018,-5.0369,-5.1086,-5.1086,-5.2463,-5.3225,-5.3225,-5.3225,-5.3225,-5.3225,-5.3225,-5.3225,0.0,0.0,0.0,0.0,0.0,0.0,-4.3329,0.0,-4.3329,-4.3329,-4.3329,-4.3329,-4.3329,-4.3329,-4.3329,-4.3329,-4.3329,-4.3329,-4.3329,-4.3329,-4.3329,-4.3329,-4.3329,-4.3329,-4.3329,-4.3329,-4.3771,-4.4812,-4.5706,-4.6662,-4.7572,-4.8513,-4.9018,-4.9018,-4.9018,-4.9018,-4.9018,-4.9018,-4.9018,-4.9018,-4.9018,-4.9018,-4.9018,-4.9018,-4.9018,-4.9018,-4.9018,-4.9018,-4.9018,-4.9018,-4.9018,-4.9018,-4.9018,-4.9018,-4.9018,-4.9018,-4.9018,-4.9018,-4.9018,-4.9052,-4.9052,-4.9052,-4.956,-5.0135,-5.0135,-5.0642,-5.1217,-5.1217,-5.1217,-5.1217,-5.1217,-5.0676,-5.0135,-5.0101,-4.956,-4.9018,-4.9018,-4.9018,-4.9018,-4.9018,-4.9018,-4.9018,-4.9018,-4.9018,-4.9018,-4.9018,-4.9018,-4.9018,-4.9018,-4.9018,-4.9018,-4.9018,-4.9018,-4.9018,-4.9018,-4.9018,-4.9018,-4.9018,-4.9018,-4.9018,-4.9018,-5.0369,-5.1086,-5.1086,-5.2463,-5.3225,-5.3225,-5.3225,-5.3225,-5.3225,-5.3225,-5.3225,-4.3329,0.0,0.0,0.0,0.0,0.0,0.0,0.0,-4.3329,-4.3329,-4.3329,-4.3329,-4.3329,-4.3329,-4.3329,-4.3329,-4.3329,-4.3329,-4.3329,-4.3329,-4.3329,-4.3329,-4.3329,-4.3566,-4.4282,-4.4358,-4.5079,0.0,-4.7104,-4.7605,-4.8576,-4.8861,-4.9018,-4.9018,-4.9018,-4.9018,-4.9018,-4.9018,-4.9018,-4.9018,-4.9018,-4.9018,-4.9018,-4.9018,-4.9018,-4.9018,-4.9018,-4.9018,-4.9018,-4.9018,-4.9018,-4.9018,-4.9018,-4.9018,-4.9018,-4.9018,-4.9018,-4.9086,-4.9593,-4.9796,-4.9864,-5.0439,-5.0744,-5.0913,-5.0913,-5.1048,-5.1217,-5.1217,-5.1217,-5.1217,-5.1217,-5.1048,-5.0777,-5.0236,-4.9932,-4.9627,-4.912,-4.9018,-4.9018,-4.9018,-4.9018,-4.9018,-4.9018,-4.9018,-4.9018,-4.9018,-4.9018,-4.9018,-4.9018,-4.9018,-4.9018,-4.9018,-4.9018,-4.9018,-4.9018,-4.9018,-4.9018,-4.9018,-4.9018,-4.9018,-4.9018,-5.0369,-5.1086,-5.1086,-5.2463,-5.3225,-5.3225,-5.3225,-5.3225,-5.3225,-5.3225,-5.3225,-4.3329,-4.3329,0.0,0.0,0.0,0.0,-4.3329,-4.3329,-4.3329,-4.3329,-4.3329,-4.3329,-4.3329,-4.3329,-4.3329,-4.3329,-4.3329,-4.3329,-4.3329,-4.3329,-4.3329,-4.3329,-4.3329,-4.3693,-4.4737,-4.4812,-4.5561,-4.744,-4.7572,-4.7998,-4.8923,-4.9018,-4.9018,-4.9018,-4.9018,-4.9018,-4.9018,-4.9018,-4.9018,-4.9018,-4.9018,-4.9018,-4.9018,-4.9018,-4.9018,-4.9018,-4.9018,-4.9018,-4.9018,-4.9018,-4.9018,-4.9018,-4.9018,-4.9018,-4.9052,-4.9357,-4.9458,-4.956,-5.0304,-5.0574,-5.0642,-5.1082,-5.142,-5.1657,-5.1657,-5.1894,-5.2164,-5.2164,-5.2164,-5.2164,-5.2164,-5.1928,-5.1555,-5.1116,-5.0541,-4.9965,-4.956,-4.9221,-4.9018,-4.9018,-4.9018,-4.9018,-4.9018,-4.9018,-4.9018,-4.9018,-4.9018,-4.9018,-4.9018,-4.9018,-4.9018,-4.9018,-4.9018,-4.9018,-4.9018,-4.9018,-4.9018,-4.9018,-4.9018,-4.9018,-4.9018,-5.0369,-5.1086,-5.1086,-5.2463,-5.3225,-5.3225,-5.3225,-5.3225,-5.3225,-5.3225,-5.3225,0.0,0.0,0.0,0.0,-4.3329,0.0,-4.3329,-4.3329,-4.3329,-4.3329,-4.3329,-4.3329,-4.3329,-4.3329,-4.3329,-4.3329,-4.3329,-4.3329,-4.3329,-4.3329,-4.3329,-4.3329,-4.3329,-4.3771,-4.4887,-4.4962,-4.5706,-4.7572,-4.7737,-4.8161,-4.8923,-4.9018,-4.9018,-4.9018,-4.9018,-4.9018,-4.9018,-4.9018,-4.9018,-4.9018,-4.9018,-4.9018,-4.9018,-4.9018,-4.9018,-4.9018,-4.9018,-4.9018,-4.9018,-4.9018,-4.9018,-4.9018,-4.9018,-4.9018,-4.9086,-4.983,-5.0101,-5.0202,-5.1048,-5.1352,-5.1352,-5.1454,-5.1928,-5.2435,-5.2435,-5.2942,-5.3518,-5.3518,-5.3518,-5.3518,-5.3518,-5.2976,-5.2401,-5.2334,-5.1217,-5.0202,-5.0101,-4.9526,-4.9018,-4.9018,-4.9018,-4.9018,-4.9018,-4.9018,-4.9018,-4.9018,-4.9018,-4.9018,-4.9018,-4.9018,-4.9018,-4.9018,-4.9018,-4.9018,-4.9018,-4.9018,-4.9018,-4.9018,-4.9018,-4.9018,-4.9018,-5.0258,-5.1034,-5.1086,-5.2463,-5.3225,-5.3225,-5.3225,-5.3225,-5.3225,-5.3225,-5.3225,0.0,0.0,0.0,0.0,-4.3329,0.0,-4.3329,-4.3329,-4.3329,-4.3329,-4.3329,-4.3329,-4.3329,-4.3329,-4.3329,-4.3329,-4.3329,-4.3329,-4.3329,-4.3329,-4.3329,-4.3329,-4.3329,-4.3974,-4.5778,-4.5921,-4.6694,-4.8576,-4.8736,-4.8798,-4.8984,-4.9018,-4.9018,-4.9018,-4.9018,-4.9018,-4.9018,-4.9018,-4.9018,-4.9018,-4.9018,-4.9018,-4.9018,-4.9018,-4.9018,-4.9018,-4.9018,-4.9018,-4.9018,-4.9018,-4.9018,-4.9018,-4.9018,-4.9018,-4.9086,-4.983,-5.0101,-5.027,-5.1623,-5.2097,-5.2198,-5.2841,-5.3145,-5.3281,-5.3281,-5.3382,-5.3518,-5.3518,-5.3518,-5.3518,-5.3518,-5.3382,-5.3112,-5.2469,-5.1623,-5.0845,-5.0236,-4.9526,-4.9018,-4.9018,-4.9018,-4.9018,-4.9018,-4.9018,-4.9018,-4.9018,-4.9018,-4.9018,-4.9018,-4.9018,-4.9018,-4.9018,-4.9018,-4.9018,-4.9018,-4.9018,-4.9018,-4.9018,-4.9018,-4.9018,-4.9018,-4.978,-5.05,-5.1086,-5.2463,-5.3225,-5.3225,-5.3225,-5.3225,-5.3225,-5.3225,-5.3225,0.0,0.0,0.0,-4.3329,-4.3329,0.0,0.0,-4.3329,-4.3329,-4.3329,-4.3329,-4.3329,-4.3329,-4.3329,-4.3329,-4.3329,-4.3329,-4.3329,-4.3329,-4.3329,-4.3329,-4.3329,-4.3329,-4.4051,-4.6032,-4.6173,-4.6968,-4.8861,-4.9018,-4.9018,-4.9018,-4.9018,-4.9018,-4.9018,-4.9018,-4.9018,-4.9018,-4.9018,-4.9018,-4.9018,-4.9018,-4.9018,-4.9018,-4.9018,-4.9018,-4.8984,-4.8513,-4.8289,-4.8289,-4.7803,-4.7572,-4.7737,-4.8639,-4.9018,-4.912,-5.0236,-5.0642,-5.0879,-5.2367,-5.2909,-5.2976,-5.3382,-5.3518,-5.3518,-5.3518,-5.3518,-5.3518,-5.3518,-5.3518,-5.3518,-5.3518,-5.3518,-5.3416,-5.301,-5.2334,-5.1555,-5.0811,-5.0067,-4.9424,-4.9086,-4.9018,-4.9018,-4.9018,-4.9018,-4.9018,-4.9018,-4.9018,-4.9018,-4.9018,-4.9018,-4.9018,-4.9018,-4.9018,-4.9018,-4.9018,-4.9018,-4.9018,-4.9018,-4.9018,-4.9018,-4.9018,-4.9664,-5.05,-5.1593,-5.2289,-5.2813,-5.3225,-5.3225,-5.3225,-5.3225,-5.3225,-5.3225,0.0,0.0,0.0,0.0,0.0,-4.3329,0.0,0.0,0.0,-4.3329,0.0,0.0,0.0,0.0,0.0,-4.318,0.0,0.0,0.0,-4.3269,0.0,-4.3329,-4.3329,-4.3974,-4.5746,-4.6103,-4.6867,-4.8576,-4.8736,-4.8798,-4.8984,-4.9018,-4.9018,-4.9018,-4.9018,-4.9018,-4.9018,-4.9018,-4.9018,-4.9018,-4.9018,-4.9018,-4.8984,-4.8798,-4.8736,-4.8639,-4.7737,-4.7306,-4.7306,-4.6523,-4.6173,-4.6314,-4.7868,-4.845,-4.8617,-5.0091,-5.0759,-5.1125,-5.2674,-5.3348,-5.3518,-5.3518,-5.3518,-5.3518,-5.3518,-5.3518,-5.3518,-5.3518,-5.3518,-5.3518,-5.3518,-5.3518,-5.3518,-5.3518,-5.2875,-5.2131,-5.1555,-5.071,-4.9898,-4.9323,-4.9086,-4.9018,-4.9018,-4.9018,-4.9018,-4.9018,-4.9018,-4.9018,-4.9018,-4.9018,-4.9018,-4.9018,-4.9018,-4.9018,-4.9018,-4.9018,-4.9018,-4.9018,-4.9018,-4.9018,-4.9018,-4.978,-5.077,-5.1922,-5.2159,-5.2599,-5.3225,-5.3225,-5.3225,-5.3225,-5.3225,-5.3225,0.0,0.0,0.0,0.0,-4.3329,-4.3329,-4.3329,0.0,-4.3329,-4.3329,0.0,0.0,0.0,0.0,0.0,0.0,0.0,0.0,-4.2551,-4.297,-4.3329,-4.3329,-4.3329,-4.3771,-4.4887,-4.5706,-4.6592,-4.7671,-4.7737,-4.8161,-4.8923,-4.9018,-4.9018,-4.9018,-4.9018,-4.9018,-4.9018,-4.9018,-4.9018,-4.9018,-4.9018,-4.9018,-4.8984,-4.8161,-4.7737,-4.7737,-4.673,-4.6384,-4.6314,-4.6244,-4.6173,-4.6244,-4.6454,-4.6523,-4.6717,-4.8135,-4.9154,-5.0152,-5.1569,-5.2697,-5.3518,-5.3518,-5.3518,-5.3518,-5.3518,-5.3518,-5.3518,-5.3518,-5.3518,-5.3518,-5.3518,-5.3518,-5.3518,-5.3518,-5.2875,-5.2266,-5.2198,-5.1082,-5.0067,-4.9965,-4.9458,-4.9018,-4.9018,-4.9018,-4.9018,-4.9018,-4.9018,-4.9018,-4.9018,-4.9018,-4.9018,-4.9018,-4.9018,-4.9018,-4.9018,-4.9018,-4.9018,-4.9018,-4.9018,-4.9018,-4.9018,-5.0258,-5.1034,-5.1189,-5.2463,-5.3103,-5.3225,-5.3225,-5.3225,-5.3225,-5.3225,-5.3225,0.0,0.0,0.0,0.0,0.0,0.0,-4.3329,0.0,-4.3329,0.0,0.0,0.0,0.0,0.0,0.0,0.0,-4.315,0.0,0.0,0.0,-4.3329,-4.3329,0.0,0.0,-4.4737,-4.5634,-4.6592,-4.7506,-4.7572,-4.7998,-4.8923,-4.9018,-4.9018,-4.9018,-4.9018,-4.9018,-4.9018,-4.9018,-4.9018,-4.9018,-4.9018,-4.8702,-4.8161,-4.7803,-4.7306,-4.673,-4.5778,-4.5342,-4.5342,-4.4781,-4.4555,-4.4555,-4.4555,-4.5446,-4.6941,-4.7933,-4.8836,-4.9718,-5.1343,-5.2241,-5.2627,-5.328,-5.3518,-5.3518,-5.3518,-5.3518,-5.3518,-5.3518,-5.3518,-5.3518,-5.3518,-5.3518,-5.3518,-5.3518,-5.3247,-5.2875,-5.2401,-5.1488,-5.0608,-5.0168,-4.9492,-4.9018,-4.9018,-4.9018,-4.9018,-4.9018,-4.9018,-4.9018,-4.9018,-4.9018,-4.9018,-4.9018,-4.9018,-4.9018,-4.9018,-4.9018,-4.9018,-4.9018,-4.9018,-4.9018,-4.9018,-4.9919,-5.0662,-5.1086,-5.2065,-5.2769,-5.3225,-5.3225,-5.3225,-5.3225,-5.3225,-5.3225,-4.4706,0.0,0.0,0.0,0.0,0.0,0.0,0.0,0.0,0.0,0.0,0.0,0.0,0.0,0.0,0.0,0.0,-4.3269,0.0,-4.324,0.0,0.0,0.0,0.0,0.0,-4.4974,-4.5889,-4.7104,-4.7239,-4.7737,-4.8923,-4.9018,-4.8861,-4.8639,-4.8639,-4.8639,-4.8639,-4.8639,-4.8736,-4.9018,-4.8736,-4.8225,-4.7572,-4.7104,-4.6454,-4.5778,-4.4781,-4.4358,-4.4358,-4.3615,-4.3329,-4.3329,-4.3329,-4.4647,-4.6724,-4.7271,-4.8054,-4.9133,-5.0521,-5.1451,-5.2065,-5.3179,-5.3518,-5.3518,-5.3518,-5.3518,-5.3518,-5.3518,-5.3518,-5.3518,-5.3518,-5.3518,-5.3518,-5.3518,-5.3518,-5.3348,-5.2773,-5.2063,-5.1285,-5.0541,-4.9796,-4.9255,-4.9052,-4.9018,-4.9018,-4.9018,-4.9018,-4.9018,-4.9018,-4.9018,-4.9018,-4.9018,-4.9018,-4.9018,-4.9018,-4.9018,-4.9018,-4.9018,-4.9018,-4.9018,-4.9018,-4.9838,-5.0554,-5.1086,-5.197,-5.2644,-5.3225,-5.3225,-5.3225,-5.3225,-5.3225,-5.3225,0.0,0.0,0.0,-4.4287,0.0,0.0,0.0,0.0,-4.3329,0.0,0.0,0.0,0.0,0.0,0.0,0.0,0.0,0.0,0.0,0.0,0.0,0.0,0.0,0.0,0.0,-4.3409,-4.4205,-4.6103,-4.6244,-4.7036,-4.8923,-4.9018,-4.8576,-4.7638,-4.7671,-4.7671,-4.7671,-4.7671,-4.8096,-4.9018,-4.8096,-4.7671,-4.7506,-4.5706,-4.4887,-4.4812,-4.3771,-4.3329,-4.3329,-4.3329,-4.3329,-4.3329,-4.3329,-4.4107,-4.5327,-4.5357,-4.6458,-4.7991,-4.8674,-5.0211,-5.2065,-5.3179,-5.3518,-5.3518,-5.3518,-5.3518,-5.3518,-5.3518,-5.3518,-5.3518,-5.3518,-5.3518,-5.3518,-5.3518,-5.3518,-5.3484,-5.3484,-5.2841,-5.2063,-5.1319,-5.0574,-4.983,-4.912,-4.9018,-4.9018,-4.9018,-4.9018,-4.9018,-4.9018,-4.9018,-4.9018,-4.9018,-4.9018,-4.9018,-4.9018,-4.9018,-4.9018,-4.9018,-4.9018,-4.9018,-4.9018,-5.0314,-5.1086,-5.1086,-5.2463,-5.3182,-5.3225,-5.3225,-5.3225,-5.3225,-5.3225,-5.3225,0.0,0.0,-4.5544,-4.5065,0.0,0.0,0.0,0.0,0.0,0.0,0.0,0.0,0.0,0.0,0.0,0.0,0.0,0.0,0.0,0.0,0.0,0.0,0.0,0.0,0.0,0.0,-4.3849,-4.5153,-4.585,-4.673,-4.7998,-4.8639,-4.8576,-4.7671,-4.7572,-4.7306,-4.6662,-4.6662,-4.6799,-4.7172,-4.6831,-4.6314,-4.5706,-4.5079,-4.4434,-4.3771,-4.3488,-4.3329,-4.3329,-4.3329,-4.3329,-4.3329,-4.3329,-4.4137,-4.5304,-4.5304,-4.6244,-4.76,-4.8533,-4.9773,-5.093,-5.1336,-5.1882,-5.2454,-5.2454,-5.2939,-5.3518,-5.3518,-5.3518,-5.3518,-5.3518,-5.3518,-5.3518,-5.3518,-5.3518,-5.3518,-5.3518,-5.2875,-5.2097,-5.1352,-5.0608,-4.9864,-4.912,-4.9018,-4.9018,-4.9018,-4.9018,-4.9018,-4.9018,-4.9018,-4.9018,-4.9018,-4.9018,-4.9018,-4.9018,-4.9018,-4.9018,-4.9018,-4.9018,-4.9195,-4.9664,-5.0554,-5.1292,-5.1741,-5.2725,-5.3225,-5.3225,-5.3225,-5.3225,-5.3225,-5.3225,-5.3225,-4.68,-4.6501,0.0,-4.5783,-4.4975,0.0,-4.4317,0.0,-4.3329,0.0,0.0,0.0,0.0,0.0,0.0,0.0,0.0,0.0,0.0,-4.3329,-4.3329,-4.3329,-4.3329,-4.3329,0.0,-4.3329,-4.3693,-4.4737,-4.5342,-4.6103,-4.7036,-4.7671,-4.7605,-4.6625,-4.6625,-4.6346,-4.5706,-4.5706,-4.585,-4.6173,-4.585,-4.5342,-4.4812,-4.4434,-4.3927,-4.3329,-4.3329,-4.3329,-4.3329,-4.3329,-4.3329,-4.3359,-4.3599,-4.4347,-4.5304,-4.5304,-4.6142,-4.7452,-4.8429,-4.9215,-4.9931,-5.0703,-5.1377,-5.1993,-5.2312,-5.2939,-5.3518,-5.3518,-5.3518,-5.3518,-5.3518,-5.3518,-5.3518,-5.3518,-5.3518,-5.3518,-5.3518,-5.3078,-5.2435,-5.142,-5.0845,-5.0168,-4.9187,-4.9018,-4.9018,-4.9018,-4.9018,-4.9018,-4.9018,-4.9018,-4.9018,-4.9018,-4.9018,-4.9018,-4.9018,-4.9018,-4.9018,-4.9018,-4.9018,-4.9316,-4.9976,-5.0716,-5.1586,-5.2509,-5.2959,-5.3335,-5.3628,-5.3335,-5.3225,-5.3225,-5.3225,-5.3225]}]]